[[{"header":{"parameterUnit":"m.s-1","parameterCategory":1,"la1":30.6,"la2":29.2853,"lo1":-89.7004,"lo2":-87.6739,"dy":0.0162,"dx":0.0183,"nx":112,"ny":82,"refTime":"2024-02-09T18:00:00:Z","depth":0,"parameterNumber":2,"parameterNumberName":"U-component_of_WINDS"},"data":[0.0,0.0,0.0,0.0,0.0,0.0,0.0,0.0,0.0,0.0,0.0,0.0,0.0,0.0,0.0,0.0,0.0,0.0,0.0,0.0,0.0,0.0,0.0,0.0,0.0,0.0,0.0,0.0,0.0,0.0,0.0,0.0,0.0,0.0,0.0,0.0,0.0,0.0,0.0,0.0,0.0,0.0,0.0,0.0,0.0,0.0,0.0,0.0,0.0,0.0,0.0,0.0,0.0,0.0,0.0,0.0,0.0,0.0,0.0,0.0,0.0,0.0,0.0,0.0,0.0,0.0,0.0,0.0,0.0,0.0,0.0,0.0,0.0,0.0,0.0,0.0,0.0,0.0,0.0,0.0,0.0,0.0,0.0,0.0,0.0,0.0,0.0,0.0,0.0,0.0,-4.8846,-5.2704,-5.7894,-6.1093,-6.1093,-5.9261,-5.5747,-5.0241,0.0,0.0,0.0,0.0,0.0,0.0,0.0,0.0,0.0,0.0,0.0,0.0,0.0,0.0,0.0,0.0,0.0,0.0,0.0,0.0,0.0,0.0,0.0,0.0,0.0,0.0,0.0,0.0,0.0,0.0,0.0,0.0,0.0,0.0,0.0,0.0,0.0,0.0,0.0,0.0,0.0,0.0,0.0,0.0,0.0,0.0,0.0,0.0,0.0,0.0,0.0,0.0,0.0,0.0,0.0,0.0,0.0,0.0,0.0,0.0,0.0,0.0,0.0,0.0,0.0,0.0,0.0,0.0,0.0,0.0,0.0,0.0,0.0,0.0,0.0,0.0,0.0,0.0,0.0,0.0,0.0,0.0,0.0,0.0,0.0,0.0,0.0,0.0,0.0,0.0,0.0,0.0,0.0,0.0,0.0,0.0,0.0,0.0,0.0,0.0,0.0,0.0,0.0,0.0,-4.8651,-5.4305,-5.6996,-5.8402,-5.8402,-5.5474,-5.2312,-4.9189,0.0,0.0,0.0,0.0,0.0,0.0,0.0,0.0,0.0,0.0,0.0,0.0,0.0,0.0,0.0,0.0,0.0,0.0,0.0,0.0,0.0,0.0,0.0,0.0,0.0,0.0,0.0,0.0,0.0,0.0,0.0,0.0,0.0,0.0,0.0,0.0,0.0,0.0,0.0,0.0,0.0,0.0,0.0,0.0,0.0,0.0,0.0,0.0,0.0,0.0,0.0,0.0,0.0,0.0,0.0,0.0,0.0,0.0,0.0,0.0,0.0,0.0,0.0,0.0,0.0,0.0,0.0,0.0,0.0,0.0,0.0,0.0,0.0,0.0,0.0,0.0,0.0,0.0,0.0,0.0,0.0,0.0,0.0,0.0,0.0,0.0,0.0,0.0,0.0,0.0,0.0,0.0,0.0,0.0,0.0,0.0,0.0,0.0,0.0,0.0,0.0,0.0,0.0,-4.7985,-5.0832,-5.5513,-5.7074,-5.7621,-5.7192,-5.4849,-5.1882,-4.8369,-4.7705,0.0,0.0,0.0,0.0,0.0,0.0,0.0,0.0,0.0,0.0,0.0,0.0,0.0,0.0,0.0,0.0,0.0,0.0,0.0,0.0,0.0,0.0,0.0,0.0,0.0,0.0,0.0,0.0,0.0,0.0,0.0,0.0,0.0,0.0,0.0,0.0,0.0,0.0,0.0,0.0,0.0,0.0,0.0,0.0,0.0,0.0,0.0,0.0,0.0,0.0,0.0,0.0,0.0,0.0,0.0,0.0,0.0,0.0,0.0,0.0,0.0,0.0,0.0,0.0,0.0,0.0,0.0,0.0,0.0,0.0,0.0,0.0,0.0,0.0,0.0,0.0,0.0,0.0,0.0,0.0,0.0,0.0,0.0,0.0,0.0,0.0,0.0,0.0,0.0,0.0,0.0,0.0,0.0,0.0,0.0,0.0,0.0,0.0,0.0,0.0,0.0,0.0,-4.9891,-5.2273,-5.5357,-5.6411,-5.6567,-5.5747,-5.4068,-5.1414,-4.7549,-4.6261,0.0,0.0,0.0,0.0,0.0,0.0,0.0,0.0,0.0,0.0,0.0,0.0,0.0,0.0,0.0,0.0,0.0,0.0,0.0,0.0,0.0,0.0,0.0,0.0,0.0,0.0,0.0,0.0,0.0,0.0,0.0,0.0,0.0,0.0,0.0,0.0,0.0,0.0,0.0,0.0,0.0,0.0,0.0,0.0,0.0,0.0,0.0,0.0,0.0,0.0,0.0,0.0,0.0,0.0,0.0,0.0,0.0,0.0,0.0,0.0,0.0,0.0,0.0,0.0,0.0,0.0,0.0,0.0,0.0,0.0,0.0,0.0,0.0,0.0,0.0,0.0,0.0,0.0,0.0,0.0,0.0,0.0,0.0,0.0,0.0,0.0,0.0,0.0,0.0,0.0,0.0,0.0,0.0,0.0,0.0,0.0,0.0,0.0,0.0,0.0,0.0,0.0,-4.8642,-5.0906,-5.2782,-5.3756,-5.3912,-5.3055,-5.1375,-4.9226,-4.6573,-4.4816,0.0,0.0,0.0,0.0,0.0,0.0,0.0,0.0,0.0,0.0,0.0,0.0,0.0,0.0,0.0,0.0,0.0,0.0,0.0,0.0,0.0,0.0,0.0,0.0,0.0,0.0,0.0,0.0,0.0,0.0,0.0,0.0,0.0,0.0,0.0,0.0,0.0,0.0,0.0,0.0,0.0,0.0,0.0,0.0,0.0,0.0,0.0,0.0,0.0,0.0,0.0,0.0,0.0,0.0,0.0,0.0,0.0,0.0,0.0,0.0,0.0,0.0,0.0,0.0,0.0,0.0,0.0,0.0,0.0,0.0,0.0,0.0,0.0,0.0,0.0,0.0,0.0,0.0,0.0,0.0,0.0,0.0,0.0,0.0,0.0,0.0,0.0,0.0,0.0,0.0,0.0,0.0,0.0,0.0,0.0,0.0,0.0,0.0,0.0,0.0,0.0,0.0,-4.8057,-4.9969,-5.1687,-5.2195,-5.2038,-5.1141,-4.9969,-4.8213,-4.5636,0.0,0.0,0.0,0.0,0.0,0.0,0.0,0.0,0.0,0.0,0.0,0.0,0.0,0.0,0.0,0.0,0.0,0.0,0.0,0.0,0.0,0.0,0.0,0.0,0.0,0.0,0.0,0.0,0.0,0.0,0.0,0.0,0.0,0.0,0.0,0.0,0.0,0.0,0.0,0.0,0.0,0.0,0.0,0.0,0.0,0.0,0.0,0.0,0.0,0.0,0.0,0.0,0.0,0.0,0.0,0.0,0.0,0.0,0.0,0.0,0.0,0.0,0.0,0.0,0.0,0.0,0.0,0.0,0.0,0.0,0.0,0.0,0.0,0.0,0.0,0.0,0.0,0.0,0.0,0.0,0.0,0.0,0.0,0.0,0.0,0.0,0.0,0.0,0.0,0.0,0.0,0.0,0.0,0.0,0.0,0.0,0.0,0.0,0.0,0.0,0.0,0.0,-4.5599,-4.7354,-4.8954,-5.0438,-5.0555,-5.0243,-4.9382,-4.8252,-4.6729,-4.4699,0.0,0.0,0.0,0.0,0.0,0.0,0.0,0.0,0.0,0.0,0.0,0.0,0.0,0.0,0.0,0.0,0.0,0.0,0.0,0.0,0.0,0.0,0.0,0.0,0.0,0.0,0.0,0.0,0.0,0.0,0.0,0.0,0.0,0.0,0.0,0.0,0.0,0.0,0.0,0.0,0.0,0.0,0.0,0.0,0.0,0.0,0.0,0.0,0.0,0.0,0.0,0.0,0.0,0.0,0.0,0.0,0.0,0.0,0.0,0.0,0.0,0.0,0.0,0.0,0.0,0.0,0.0,0.0,0.0,0.0,0.0,0.0,0.0,0.0,0.0,0.0,0.0,0.0,0.0,0.0,0.0,0.0,0.0,0.0,0.0,0.0,0.0,0.0,0.0,0.0,0.0,0.0,0.0,0.0,0.0,0.0,0.0,0.0,0.0,0.0,0.0,0.0,-4.4777,-4.6493,-4.7899,-4.8681,-4.8798,-4.8447,-4.7664,-4.5986,-4.4619,0.0,0.0,0.0,0.0,0.0,0.0,0.0,0.0,0.0,0.0,0.0,0.0,0.0,0.0,0.0,0.0,0.0,0.0,0.0,0.0,0.0,0.0,0.0,0.0,0.0,0.0,0.0,0.0,0.0,0.0,0.0,0.0,0.0,0.0,0.0,0.0,0.0,0.0,0.0,0.0,0.0,0.0,0.0,0.0,0.0,0.0,0.0,0.0,0.0,0.0,0.0,0.0,0.0,0.0,0.0,0.0,0.0,0.0,0.0,0.0,0.0,0.0,0.0,0.0,0.0,0.0,0.0,0.0,0.0,0.0,0.0,0.0,0.0,0.0,0.0,0.0,0.0,0.0,0.0,0.0,0.0,0.0,0.0,0.0,0.0,0.0,0.0,0.0,0.0,0.0,0.0,0.0,0.0,0.0,0.0,0.0,0.0,0.0,0.0,0.0,0.0,0.0,0.0,-4.384,-4.5597,-4.7002,-4.7861,-4.7872,-4.7457,-4.6599,-4.5464,-4.4417,-4.3557,0.0,0.0,0.0,0.0,0.0,0.0,0.0,0.0,0.0,0.0,0.0,0.0,0.0,0.0,0.0,0.0,0.0,0.0,0.0,0.0,0.0,0.0,0.0,0.0,0.0,0.0,0.0,0.0,0.0,0.0,0.0,0.0,0.0,0.0,0.0,0.0,0.0,0.0,0.0,0.0,0.0,0.0,0.0,0.0,0.0,0.0,0.0,0.0,0.0,0.0,0.0,0.0,0.0,0.0,0.0,0.0,0.0,0.0,0.0,0.0,0.0,0.0,0.0,0.0,0.0,0.0,0.0,0.0,0.0,0.0,0.0,0.0,0.0,0.0,0.0,0.0,0.0,0.0,0.0,0.0,0.0,0.0,0.0,0.0,0.0,0.0,0.0,0.0,0.0,0.0,0.0,0.0,0.0,0.0,0.0,0.0,0.0,0.0,0.0,0.0,0.0,0.0,-4.2942,-4.4645,-4.6038,-4.6896,-4.6878,-4.6597,-4.6052,-4.487,-4.3976,-4.3428,0.0,0.0,0.0,0.0,0.0,0.0,0.0,0.0,0.0,0.0,0.0,0.0,0.0,0.0,0.0,0.0,0.0,0.0,0.0,0.0,0.0,0.0,0.0,0.0,0.0,0.0,0.0,0.0,0.0,0.0,0.0,0.0,0.0,0.0,0.0,0.0,0.0,0.0,0.0,0.0,0.0,0.0,0.0,0.0,0.0,0.0,0.0,0.0,0.0,0.0,0.0,0.0,0.0,0.0,0.0,0.0,0.0,0.0,0.0,0.0,0.0,0.0,0.0,0.0,0.0,0.0,0.0,0.0,0.0,0.0,0.0,0.0,0.0,0.0,0.0,0.0,0.0,0.0,0.0,0.0,0.0,0.0,0.0,0.0,0.0,0.0,0.0,0.0,0.0,0.0,0.0,0.0,0.0,0.0,0.0,0.0,0.0,0.0,0.0,0.0,0.0,0.0,-4.2157,-4.3716,-4.5039,-4.5974,-4.5969,-4.5908,-4.5908,-4.4416,-4.3435,-4.3396,0.0,0.0,0.0,0.0,0.0,0.0,0.0,0.0,0.0,0.0,0.0,0.0,0.0,0.0,0.0,0.0,0.0,0.0,0.0,0.0,0.0,0.0,0.0,0.0,0.0,0.0,0.0,0.0,0.0,0.0,0.0,0.0,0.0,0.0,0.0,0.0,0.0,0.0,0.0,0.0,0.0,0.0,0.0,0.0,0.0,0.0,0.0,0.0,0.0,0.0,0.0,0.0,0.0,0.0,0.0,0.0,0.0,0.0,0.0,0.0,-4.819,-4.6944,0.0,0.0,0.0,0.0,0.0,0.0,0.0,0.0,0.0,0.0,0.0,0.0,0.0,0.0,0.0,0.0,0.0,0.0,0.0,0.0,0.0,0.0,0.0,0.0,0.0,0.0,0.0,0.0,0.0,0.0,0.0,0.0,0.0,0.0,0.0,0.0,0.0,0.0,0.0,0.0,-4.1947,-4.314,-4.4316,-4.5808,-4.5852,-4.5809,-4.5809,-4.4776,-4.3844,-4.3189,-4.2221,0.0,0.0,0.0,0.0,0.0,0.0,0.0,0.0,0.0,0.0,0.0,0.0,0.0,0.0,0.0,0.0,0.0,0.0,0.0,0.0,0.0,0.0,0.0,0.0,0.0,0.0,0.0,0.0,0.0,0.0,0.0,0.0,0.0,0.0,0.0,0.0,0.0,0.0,0.0,0.0,0.0,0.0,0.0,0.0,0.0,0.0,0.0,0.0,0.0,0.0,0.0,0.0,0.0,0.0,0.0,0.0,0.0,0.0,0.0,-5.0369,-4.8928,0.0,0.0,0.0,0.0,0.0,0.0,0.0,0.0,0.0,0.0,0.0,0.0,0.0,0.0,0.0,0.0,0.0,0.0,0.0,0.0,0.0,0.0,0.0,0.0,0.0,0.0,0.0,0.0,0.0,0.0,0.0,0.0,0.0,0.0,0.0,0.0,0.0,0.0,0.0,0.0,-4.189,-4.2938,-4.4088,-4.5691,-4.5747,-4.5688,-4.5688,-4.4837,-4.4124,-4.3701,-4.251,0.0,0.0,0.0,0.0,0.0,0.0,0.0,0.0,0.0,0.0,0.0,0.0,0.0,0.0,0.0,0.0,0.0,0.0,0.0,0.0,0.0,0.0,0.0,0.0,0.0,0.0,0.0,0.0,0.0,0.0,0.0,0.0,0.0,0.0,0.0,0.0,0.0,0.0,0.0,0.0,0.0,0.0,0.0,0.0,0.0,0.0,0.0,0.0,0.0,0.0,0.0,0.0,0.0,-5.4615,-5.5123,-5.5123,-5.5123,-5.5044,-5.481,-5.3366,-5.2003,-5.0723,-4.9902,0.0,0.0,0.0,0.0,0.0,0.0,0.0,0.0,0.0,0.0,0.0,0.0,0.0,0.0,0.0,0.0,0.0,0.0,0.0,0.0,0.0,0.0,0.0,0.0,-4.6012,-4.6127,-4.4684,0.0,0.0,0.0,0.0,0.0,0.0,0.0,0.0,0.0,0.0,0.0,-4.2103,-4.2986,-4.3928,-4.5392,-4.5293,-4.521,-4.5364,-4.4701,-4.4316,-4.4316,-4.3008,-4.1854,0.0,0.0,0.0,0.0,0.0,0.0,0.0,0.0,0.0,0.0,0.0,0.0,0.0,0.0,0.0,0.0,0.0,0.0,0.0,0.0,0.0,0.0,0.0,0.0,0.0,0.0,0.0,0.0,0.0,0.0,0.0,0.0,-5.0906,-5.0906,0.0,0.0,0.0,0.0,0.0,0.0,0.0,0.0,0.0,0.0,0.0,0.0,0.0,-5.2236,-5.2351,-5.4849,-5.645,-5.7153,-5.8792,-5.9573,-5.9573,-5.9573,-5.9143,-5.84,-5.8165,0.0,-5.3407,-5.2548,0.0,0.0,0.0,0.0,0.0,0.0,0.0,0.0,0.0,0.0,0.0,0.0,0.0,0.0,0.0,0.0,0.0,0.0,0.0,0.0,0.0,0.0,-4.6328,-4.707,-4.7343,-4.738,0.0,-4.6009,-4.4445,-4.2572,-4.1709,0.0,0.0,0.0,0.0,0.0,0.0,0.0,-4.3025,-4.3224,-4.3554,-4.4413,-4.3871,-4.3701,-4.4393,-4.4355,-4.4316,-4.4316,-4.4085,-4.3624,-4.2777,-4.1931,0.0,0.0,0.0,0.0,0.0,0.0,0.0,0.0,0.0,0.0,0.0,0.0,0.0,0.0,0.0,0.0,0.0,0.0,0.0,0.0,0.0,0.0,0.0,0.0,0.0,0.0,0.0,0.0,0.0,-4.9382,-5.0319,-4.9384,-4.9772,-4.9382,0.0,0.0,0.0,0.0,0.0,0.0,0.0,0.0,0.0,-5.2975,-5.4693,-5.5786,-5.6294,-5.8909,-6.0354,-6.0744,-6.1993,-6.2579,-6.2579,-6.2579,-6.2384,-6.2032,-6.2032,-6.1174,-5.9534,-5.6255,-5.3873,-5.2156,0.0,0.0,0.0,0.0,-4.9741,-4.9936,-5.1263,-5.1187,-5.0526,-5.0757,0.0,0.0,0.0,0.0,0.0,0.0,0.0,-4.4999,0.0,0.0,-4.6521,-4.738,-4.7612,-4.7608,-4.7606,-4.7019,-4.5963,0.0,-4.3965,-4.3416,-4.1576,0.0,0.0,0.0,0.0,-4.1384,-4.2539,-4.2968,-4.3294,-4.3602,-4.3701,-4.3932,-4.4278,-4.4739,-4.5017,-4.5017,-4.4586,-4.4124,-4.3778,-4.297,-4.2316,0.0,0.0,0.0,0.0,0.0,0.0,0.0,0.0,0.0,0.0,0.0,0.0,0.0,0.0,0.0,0.0,0.0,0.0,0.0,0.0,0.0,0.0,0.0,0.0,0.0,0.0,0.0,0.0,-5.0124,-5.1061,-4.915,-5.0982,-5.1295,0.0,0.0,0.0,0.0,0.0,0.0,-5.36,-5.4108,-5.5044,-5.6567,-5.8246,-5.9534,-6.0432,-6.2345,-6.3555,-6.3984,-6.4179,-6.4416,-6.4648,-6.4416,-6.4299,-6.4299,-6.4299,-6.4182,-6.3633,-5.9339,-5.6684,-5.5162,-5.3639,-5.2507,-5.1726,-5.1726,-5.1726,-5.196,-5.3483,-5.3288,-5.2312,-5.2117,-5.1187,-4.9672,-4.7333,0.0,0.0,0.0,0.0,-4.5349,-4.5312,-4.5818,-4.6516,-4.7376,-4.7607,-4.7602,-4.7601,-4.7599,-4.7168,0.0,-4.5679,-4.5366,-4.3411,0.0,0.0,0.0,-4.1368,-4.1478,-4.2034,-4.2511,-4.2825,-4.2786,-4.3085,-4.3508,-4.397,-4.4586,-4.5133,-4.5556,-4.4979,-4.4624,-4.4624,-4.3662,-4.2777,-4.2162,0.0,0.0,0.0,0.0,0.0,0.0,0.0,0.0,0.0,0.0,0.0,0.0,0.0,0.0,0.0,0.0,0.0,0.0,0.0,0.0,0.0,0.0,0.0,0.0,0.0,0.0,0.0,0.0,0.0,-5.2743,-5.6138,0.0,0.0,0.0,0.0,-5.3756,-5.4537,-5.5435,-5.6333,-5.7894,-5.9183,-6.0119,-6.1837,-6.3164,-6.4026,-6.4182,-6.5041,-6.66,-6.5041,-6.4726,-6.5507,-6.4687,-6.4299,-6.4299,-6.4299,-6.3828,-6.293,-6.1017,-5.9651,-5.8517,-5.524,-5.3405,-5.2626,-5.2626,-5.2626,-5.2782,-5.3678,-5.2897,-5.1726,-5.3366,-5.2161,-4.9788,-4.8069,-4.6942,0.0,0.0,-4.6205,-4.6245,-4.6248,-4.6285,-4.6517,-4.738,-4.7613,-4.7609,-4.7603,-4.7602,-4.7329,0.0,-4.5608,-4.5021,-4.4894,0.0,-4.2318,-4.2318,-4.2185,-4.2073,-4.2107,-4.1969,-4.1862,-4.1893,-4.1162,-4.1362,-4.3008,-4.3201,-4.3893,-4.5518,-4.5556,-4.5518,-4.5518,-4.397,-4.3085,-4.3047,-4.0623,0.0,0.0,0.0,0.0,0.0,0.0,0.0,0.0,0.0,0.0,0.0,0.0,0.0,0.0,0.0,0.0,0.0,0.0,0.0,0.0,0.0,0.0,0.0,0.0,0.0,0.0,0.0,0.0,-5.5396,-5.8011,0.0,-5.5942,-5.5669,-5.5669,-5.5669,-5.6957,-5.8363,-5.9805,-6.0978,-6.1993,-6.2891,-6.4062,-6.4804,-6.5116,-6.5663,-6.6209,-6.6795,-6.617,-6.6053,-6.6366,-6.6053,-6.5624,-6.5155,-6.5155,-6.4648,-6.3711,-6.1954,-6.0393,-5.8985,-5.7777,-5.645,-5.5201,-5.5201,-5.4849,-5.4422,-5.4732,-5.4068,-5.2975,-5.2474,-5.0608,-4.8388,-4.7767,-4.6989,-4.6288,-4.6288,-4.6288,-4.6288,-4.6289,-4.6288,-4.6364,-4.6675,-4.675,-4.6744,-4.6776,-4.6773,-4.6656,-4.6344,-4.6032,-4.5679,-4.509,-4.4463,-4.3879,-4.3333,-4.3081,-4.2728,-4.2155,-4.1937,-4.1585,-4.1008,-4.17,-4.2431,-4.3047,-4.4085,-4.4701,-4.4739,-4.4739,-4.4509,-4.4008,-4.3431,-4.2854,-4.2277,-4.0816,-3.9554,0.0,0.0,0.0,0.0,0.0,0.0,0.0,0.0,0.0,0.0,0.0,0.0,0.0,0.0,0.0,0.0,0.0,0.0,0.0,0.0,0.0,0.0,0.0,0.0,0.0,-5.5669,-5.8714,-5.7582,-6.0744,-6.1993,-5.9456,-5.9729,-6.0041,-6.0041,-6.133,-6.2657,-6.3787,-6.4687,-6.5273,-6.5585,-6.6131,-6.6444,-6.6444,-6.6678,-6.6951,-6.7224,-6.6951,-6.6795,-6.6795,-6.6522,-6.6092,-6.5585,-6.5273,-6.4492,-6.3321,-6.2189,-6.0508,-5.8675,-5.8675,-5.7972,-5.6957,-5.6684,-5.6216,-5.563,-5.5083,-5.4303,-5.3251,-5.1542,-4.9831,-4.8391,-4.8122,-4.7656,-4.7109,-4.6836,-4.6757,-4.6679,-4.6367,-4.6287,-4.6282,-4.6319,-4.6313,-4.6308,-4.6302,-4.63,-4.63,-4.63,-4.63,-4.6105,-4.5558,-4.5207,-4.4772,-4.4172,-4.3456,-4.2723,-4.211,-4.164,-4.1123,-4.0554,-4.1816,-4.2777,-4.3085,-4.4355,-4.4893,-4.4355,-4.4047,-4.3508,-4.2701,-4.2393,-4.1931,-4.1354,-4.0516,-3.9554,-3.843,0.0,0.0,0.0,0.0,0.0,0.0,0.0,0.0,0.0,0.0,0.0,0.0,0.0,0.0,0.0,0.0,0.0,0.0,0.0,0.0,0.0,0.0,0.0,-5.3134,-5.805,-6.121,-5.9571,-6.4609,-6.7185,-6.4689,-6.5939,-6.6873,-6.6795,-6.7615,-6.8083,-6.8083,-6.8942,-6.902,-6.8161,-6.8122,-6.8122,-6.8083,-6.7224,-6.7224,-6.8044,-6.7185,-6.6756,-6.6756,-6.5975,-6.5546,-6.5429,-6.457,-6.3243,-6.1601,-6.1601,-6.008,-5.7816,-5.7816,-5.7777,-5.766,-5.6879,-5.6567,-5.6255,-5.4537,-5.3366,-5.2392,-5.0684,-5.0105,-4.9954,-4.9177,-4.8906,-4.8711,-4.7891,-4.7616,-4.7416,-4.656,-4.6318,-4.6303,-4.6311,-4.6306,-4.63,-4.63,-4.63,-4.63,-4.63,-4.63,-4.63,-4.63,-4.5597,-4.4996,-4.4819,-4.3268,0.0,-4.1912,-4.1114,-4.0554,-4.0554,-4.1354,-4.22,-4.3047,-4.3855,-4.4278,-4.4201,-4.3431,-4.2624,-4.1769,-4.0893,-4.0477,-4.0516,-3.9708,-3.9284,-3.9284,0.0,0.0,0.0,0.0,0.0,0.0,0.0,0.0,0.0,0.0,0.0,0.0,0.0,0.0,0.0,0.0,0.0,0.0,0.0,0.0,0.0,-5.4459,-5.7153,-5.7309,-6.1486,-6.4804,-6.5546,-6.82,-6.945,-6.8122,-6.8396,-6.8161,-6.6912,-6.7615,-6.8083,-6.8083,-6.8942,-6.9294,-6.9059,-6.902,-6.8747,-6.8122,-6.7224,-6.6912,-6.7146,-6.6327,-6.5936,-6.5936,-6.5702,-6.457,-6.2772,-6.254,-6.1447,-5.9766,-5.9143,-5.8441,-5.7816,-5.7816,-5.7426,-5.6918,-5.6684,-5.5786,-5.4459,-5.2702,-5.196,-5.1689,-5.1192,-5.0613,-5.0071,-4.988,-4.9413,-4.8867,-4.8594,-4.8086,-4.7538,-4.7303,-4.6752,-4.6316,-4.6313,-4.6306,-4.63,-4.63,-4.63,-4.63,-4.63,-4.63,-4.63,-4.63,-4.6105,-4.5662,-4.4907,-4.3821,0.0,-4.2073,-4.1654,-4.1431,-4.1431,-4.2739,-4.347,-4.3124,-4.3855,-4.3508,-4.167,-4.1324,-4.0862,-4.0008,-3.9746,-3.99,-4.0477,-3.9708,-3.9284,0.0,0.0,0.0,0.0,0.0,0.0,0.0,0.0,0.0,0.0,0.0,0.0,0.0,0.0,0.0,0.0,0.0,0.0,0.0,0.0,0.0,0.0,-5.7387,-6.0549,-6.211,-6.4804,-6.742,-6.9489,-7.0621,-7.1324,-7.1519,-7.0894,-7.023,-6.9567,-6.9645,-6.9723,-6.9723,-7.0191,-7.0309,-6.9957,-6.9957,-6.9176,-6.7576,-6.7068,-6.6639,-6.6288,-6.5468,-6.5234,-6.5585,-6.4843,-6.3477,-6.1679,-6.133,-6.0159,-5.8519,-5.8011,-5.7582,-5.7309,0.0,0.0,0.0,0.0,-5.4966,-5.3327,-5.2312,-5.1726,-5.1338,-5.096,-5.077,-5.0579,-5.0272,-5.0078,-4.9883,-4.9531,-4.8828,-4.8046,-4.7694,-4.6948,-4.6317,-4.6313,-4.6306,-4.63,-4.63,-4.63,-4.63,-4.63,-4.63,0.0,-4.63,-4.5987,-4.5545,-4.4904,-4.37,-4.263,-4.2034,-4.1538,-4.1393,-4.1769,-4.2662,-4.3201,-4.3124,-4.3547,0.0,0.0,0.0,-4.0131,-3.9323,-3.9284,0.0,0.0,0.0,-3.9785,-3.9785,-3.9277,0.0,0.0,-3.9669,-4.02,0.0,0.0,0.0,0.0,0.0,0.0,0.0,0.0,0.0,0.0,0.0,0.0,0.0,0.0,0.0,0.0,-6.0785,-6.3906,-6.6444,-6.7537,-6.902,-7.1558,-7.2026,-7.2651,-7.3939,-7.308,-7.2612,-7.3119,-7.2534,-7.2143,-7.2143,-7.2065,0.0,0.0,0.0,-6.9489,-6.6951,-6.6756,-6.6249,-6.5429,-6.457,-6.457,-6.5234,-6.3711,-6.2462,-6.1522,-6.0744,-5.9417,-5.7816,-5.7816,-5.7348,-5.6606,-5.6606,-5.6489,-5.6216,-5.5435,-5.411,-5.2704,-5.2587,0.0,0.0,-5.0496,-5.0773,-5.1284,-5.0546,-5.082,-5.125,-5.0547,-4.9726,-4.8866,-4.7967,-4.7103,-4.6431,-4.6312,-4.6306,-4.63,-4.63,-4.63,-4.6261,-4.6183,-4.6144,-4.6105,-4.6027,-4.5441,-4.4918,-4.4702,-4.319,-4.2004,-4.1796,-4.1114,-4.0931,-4.1731,0.0,0.0,-4.2893,-4.2931,-4.2547,-4.1585,-4.0777,-4.0054,-3.9323,-3.94,-3.9785,-4.0477,-4.0516,-4.0516,-4.0516,-4.0516,-4.0554,-4.0631,-3.99,-4.0392,0.0,0.0,0.0,0.0,0.0,0.0,0.0,0.0,0.0,0.0,0.0,0.0,0.0,0.0,0.0,-5.8378,-6.118,-6.3906,-6.6444,-6.7537,-6.8825,-7.0738,-7.2182,-7.2612,-7.1558,-7.3627,-7.429,-7.2378,-7.2768,-7.3041,-7.3041,-7.2378,-7.1909,-7.1753,-7.1089,-6.9762,-6.7888,-6.6522,-6.539,-6.4531,-6.3672,0.0,-6.3477,-6.3164,-6.2149,-6.0627,-6.0471,-5.9417,-5.7816,-5.7816,-5.7348,-5.6606,-5.6606,-5.5747,-5.4498,-5.4303,-5.36,-5.2587,-5.1882,-5.1537,-5.1389,-5.1201,-5.1245,-5.1365,-5.1211,-5.1289,0.0,-5.1211,-5.0586,-4.9765,-4.8866,-4.8004,-4.7178,-4.647,-4.6306,-4.63,-4.63,-4.63,-4.6105,-4.5402,-4.5246,-4.5012,-4.4309,-4.466,-4.4725,-4.3968,-4.2844,-4.1815,-4.1022,-4.1299,-4.1623,-4.1769,-4.2431,-4.2624,-4.2085,-4.2038,-4.1393,-3.9892,-3.9631,-3.9477,-3.9323,-3.9938,-4.0323,-4.0516,-4.0516,-4.0516,-4.0516,-4.0516,-4.0854,-4.1546,-4.1393,-4.1508,0.0,0.0,0.0,0.0,0.0,0.0,0.0,0.0,0.0,0.0,0.0,-5.2734,-5.4881,0.0,-5.8188,-6.1192,-6.3486,-6.5507,-6.7224,-6.7849,-6.8903,-7.1089,-7.1363,-7.1519,-7.1948,-7.3158,-7.3354,-7.2104,-7.2417,-7.2651,-7.2651,-7.1831,-7.1558,-7.1987,-7.1167,-6.9645,-6.7459,-6.6209,-6.4921,-6.3633,-6.2774,-6.2579,-6.3008,-6.254,-6.1642,-6.0393,-6.0393,-5.9651,-5.8402,-5.7972,-5.7074,-5.5981,-5.645,-5.5786,-5.4615,-5.4147,-5.3721,-5.318,-5.1851,-5.1701,-5.1981,-5.1557,-5.1403,-5.1405,-5.1406,-5.1406,-5.1406,-5.1406,-5.0508,-4.9453,-4.9023,-4.7928,-4.6831,-4.6397,-4.6312,-4.6306,-4.6302,-4.63,-4.6027,-4.5168,-4.501,-4.4738,-4.384,-4.3684,-4.3521,-4.3071,-4.2128,-4.1281,-4.0798,-4.0963,-4.1316,-4.1731,-4.1816,-4.1816,-4.1808,-4.1393,-4.0623,-3.94,-3.9284,-3.9284,-3.9284,-3.9708,-3.99,-3.99,-4.0285,-4.0516,-4.0516,-4.0516,-4.0708,-4.1162,-4.1585,-4.2239,0.0,0.0,0.0,0.0,0.0,0.0,0.0,-5.0391,-5.0859,-5.3437,-5.3945,-5.4921,-5.8045,-5.9173,-6.0687,-6.4005,-6.5674,-6.6876,-6.7732,-6.7849,-6.8708,-7.0972,-7.0152,-7.023,-7.2339,-7.2378,-7.2026,-7.1519,-7.1987,-7.2182,-7.2026,-7.1324,-7.1206,-7.1714,-7.0738,-6.902,-6.66,-6.5585,-6.4297,-6.2735,-6.2032,-6.2071,-6.2735,-6.203,-6.133,-6.0627,-6.0276,-5.9651,-5.8792,-5.7933,-5.6764,-5.5634,-5.6335,-5.6064,-5.5207,-5.4307,-5.3883,-5.3539,-5.1938,-5.1865,-5.2338,-5.1638,-5.1405,-5.1405,-5.1406,-5.1406,-5.1367,-5.1211,-5.0195,-4.9062,-4.875,-4.7617,-4.6521,-4.6322,-4.6317,-4.6311,-4.6302,-4.6183,-4.5792,-4.4933,-4.4621,-4.4231,-4.3333,-4.2591,-4.2201,-4.2357,-4.1497,-4.0809,-4.0791,-4.0649,-4.0816,-4.147,-4.0931,-4.0708,-4.1277,-4.0662,-3.9938,-3.9092,-3.9053,-3.9053,-3.9053,-3.9053,-3.9053,-3.9053,-3.9861,-4.0285,-4.0285,-4.0439,-4.0593,-4.0785,-4.147,-4.2508,-4.8789,-4.7734,-4.8398,-5.0469,-5.0508,-5.125,0.0,-5.5703,-5.5312,-5.793,-5.8476,-5.9062,-6.0937,-6.1366,-6.23,-6.5028,-6.5606,-6.6028,-6.6837,-6.6951,-6.7342,-6.8396,-6.9059,-6.9528,-6.9801,-7.1831,-7.2182,-6.9879,-7.1831,-7.2807,-7.2026,-7.1909,-7.1558,-7.0855,-6.9255,-6.7537,-6.5741,-6.4101,-6.2813,-6.1835,-6.1757,-6.1757,-6.1835,-6.1757,-6.164,-6.1483,-5.9922,-5.8753,-5.7894,-5.7074,-5.6612,-5.6463,-5.6541,-5.6077,-5.5183,-5.4319,-5.3501,-5.2725,-5.1749,-5.1479,-5.1521,-5.1444,-5.1406,-5.1406,-5.1406,-5.1406,-5.125,-5.0547,-5.0195,-4.9687,-4.8164,-4.7617,-4.7263,-4.6478,-4.6317,-4.6311,-4.6302,-4.5675,-4.4894,-4.3997,-4.3216,-4.2396,-4.1539,-4.1304,-4.1498,-4.2279,-4.1571,-4.0917,-4.08,-4.0721,-4.0668,-4.0646,-4.0554,-4.0246,-3.9631,-3.9477,-3.9092,-3.82,-3.8161,-3.8161,-3.8161,-3.8161,-3.8161,-3.8161,-3.8969,-3.9438,-3.9438,-4.0169,-4.0893,-4.1662,-4.1731,-4.1885,-5.1328,-5.0195,-5.0195,-5.1758,-5.2656,-5.3867,-5.6523,-5.6562,-5.6797,-5.9375,-5.9883,-6.0586,-6.2812,-6.3202,-6.3903,-6.6011,-6.6314,-6.642,-6.6768,-6.68,-6.7107,-6.8005,-6.8435,-6.863,-6.863,-7.0074,-7.0387,-6.8747,-7.0113,-7.1089,-7.1245,-7.027,-6.9801,-6.9957,-6.8239,-6.6522,-6.4843,-6.3633,-6.2579,-6.1718,-6.1718,-6.1718,-6.1718,-6.1718,-6.1405,-6.09,-6.0165,-5.9076,-5.7787,-5.748,-5.6741,-5.5846,-5.5846,-5.5303,-5.4487,-5.4131,-5.3781,-5.3277,-5.1871,-5.1717,-5.207,-5.1562,-5.1406,-5.1406,-5.1406,-5.1406,-5.1211,-5.043,-4.9844,-4.9141,-4.793,-4.7226,-4.6757,-4.6403,-4.6283,-4.6316,-4.6309,-4.5605,-4.4743,-4.3881,-4.2986,-4.2129,-4.1265,-4.1109,-4.1226,-4.1576,-4.1267,-4.0981,-4.091,-4.0775,-4.0642,-4.0492,-4.0092,-3.9477,-3.8623,-3.8546,-3.8161,-3.7315,-3.7238,-3.7238,-3.7238,-3.7238,-3.7238,-3.7238,-3.8084,-3.8777,-3.9284,-3.9631,-4.0246,-4.1046,-4.1046,-4.1046,-5.293,-5.2226,-5.207,-5.3437,-5.4922,-5.6289,-5.7383,-5.7656,-5.8242,-6.0312,-6.0742,-6.1406,-6.3555,-6.414,-6.4803,-6.6286,-6.6905,-6.717,-6.7168,-6.716,-6.7386,-6.801,-6.7891,-6.7732,-6.7732,-6.8747,-6.8864,-6.7498,-6.8864,-6.9801,-6.9957,-6.9255,-6.8903,-6.902,-6.7381,-6.5663,-6.3945,-6.3086,-6.2306,-6.1718,-6.1718,-6.1718,-6.1679,-6.1444,-6.0861,-6.0046,-5.978,-5.8849,-5.7446,-5.7254,-5.6438,-5.5267,-5.5033,-5.441,-5.3631,-5.3629,-5.363,-5.3436,-5.1913,-5.1796,-5.2226,-5.1601,-5.1406,-5.1367,-5.1133,-5.1055,-5.0859,-4.9766,-4.9023,-4.8359,-4.7461,-4.6758,-4.6289,-4.6288,-4.6286,-4.6283,-4.6317,-4.5417,-4.4439,-4.3809,-4.2795,-4.1859,-4.119,-4.1111,-4.1109,-4.1109,-4.1044,-4.1011,-4.0994,-4.0612,-4.0217,-3.9838,-3.9284,-3.8584,-3.7738,-3.7623,-3.7276,-3.6423,-3.6385,-3.6385,-3.6385,-3.6385,-3.6385,-3.6385,-3.7199,-3.8084,-3.8931,-3.9169,-3.9708,-4.0516,-4.0516,-4.0516,-5.2266,-5.2695,-5.3281,-5.5859,-5.7148,-5.8242,-5.9922,-6.0273,-6.0547,-6.1484,-6.164,-6.1953,-6.2851,-6.3711,-6.4609,-6.5505,-6.7068,-6.8121,-6.8075,-6.8068,-6.8062,-6.8101,-6.7349,-6.6834,-6.6834,-6.8396,-6.8357,-6.5858,-6.8786,-6.9918,-6.8279,-6.9723,-6.9879,-6.82,-6.6522,-6.4804,-6.3047,-6.2189,-6.1718,-6.1718,-6.1718,-6.1718,-6.1679,-6.0822,-5.997,-5.9079,-5.8261,-5.7407,-5.6554,-5.5732,-5.5346,-5.5232,-5.4372,-5.3515,-5.2734,-5.2734,-5.2734,-5.2617,-5.1719,-5.1406,-5.1445,-5.1406,-5.1406,-5.125,-5.0469,-5.0234,-4.9883,-4.8164,-4.7656,-4.7422,-4.6562,-4.6328,-4.6289,-4.6288,-4.6287,-4.6286,-4.6283,-4.4953,-4.3742,-4.3703,-4.2293,-4.1117,-4.1117,-4.1114,-4.1109,-4.1109,-4.1108,-4.1055,-4.1,-4.0107,-3.9103,-3.8176,-3.8046,-3.77,-3.6808,-3.6731,-3.6385,-3.5577,-3.5538,-3.5538,-3.5538,-3.5538,-3.5538,-3.5538,-3.6346,-3.7161,-3.8046,-3.8892,-3.9708,-4.0516,-4.0516,-4.0516,-5.3242,-5.4414,-5.5781,-5.7812,-5.8945,-5.9844,-6.1015,-6.125,-6.1367,-6.164,-6.082,-6.0273,-6.1133,-6.1523,-6.2187,-6.3632,-6.5819,-6.734,-6.73,-6.8272,-6.8538,-6.736,-6.798,-6.8054,-6.6915,-6.7342,-6.7303,-6.6444,-6.6951,-6.7537,-6.8083,-6.7068,-6.6444,-6.6444,-6.4765,-6.3321,-6.2149,-6.1835,-6.1718,-6.1718,-6.1718,-6.1683,-6.1653,-6.0794,-5.9901,-5.9051,-5.8234,-5.7065,-5.5699,-5.5428,-5.4608,-5.3554,-5.3242,-5.2617,-5.1836,-5.1836,-5.1836,-5.1797,-5.1484,-5.1406,-5.1406,-5.1406,-5.1055,-5.0547,-5.0273,-4.9805,-4.9101,-4.793,-4.7617,-4.7383,-4.6523,-4.6289,-4.6289,-4.6289,-4.6288,-4.6287,-4.6286,-4.5387,-4.4371,-4.3821,-4.2768,-4.179,-4.1198,-4.1116,-4.1114,-4.1109,-4.1109,-4.1095,-4.1,-4.0127,-3.9381,-3.8981,-3.784,-3.7,-3.6731,-3.6192,-3.5808,-3.5538,-3.55,-3.55,-3.55,-3.55,-3.55,-3.55,-3.5769,-3.6308,-3.7161,-3.8007,-3.8854,-3.9708,-4.0246,-4.0516,-5.4883,-5.6211,-5.7539,-5.9609,-6.0469,-6.1015,-6.1562,-6.1445,-6.125,-6.125,-5.9883,-5.8906,-5.9414,-5.9765,-6.0351,-6.1445,-6.3828,-6.5819,-6.6757,-6.7574,-6.8077,-6.819,-6.8616,-6.8611,-6.782,-6.7466,-6.6878,-6.5978,-6.5975,-6.6249,-6.6717,-6.5468,-6.4882,-6.5116,-6.375,-6.2579,-6.1718,-6.1718,-6.1681,-6.1688,-6.1373,-6.1223,-6.1195,-6.0023,-5.9207,-5.8627,-5.7458,-5.6326,-5.5233,-5.4648,-5.3711,-5.2656,-5.2344,-5.1875,-5.1406,-5.1406,-5.1406,-5.1406,-5.1406,-5.1406,-5.1406,-5.1406,-5.0859,-5.0156,-4.9844,-4.9141,-4.8242,-4.7383,-4.7148,-4.6992,-4.6445,-4.6289,-4.6289,-4.6289,-4.6289,-4.6288,-4.6288,-4.5351,-4.4374,-4.3825,-4.2732,-4.1755,-4.1203,-4.1082,-4.1116,-4.1114,-4.1111,-4.0978,-4.0577,-4.0025,-3.9367,-3.8595,-3.7726,-3.6947,-3.6315,-3.6077,-3.5808,-3.5538,-3.55,-3.55,-3.55,-3.55,-3.55,-3.55,-3.55,-3.6038,-3.7161,-3.7738,-3.8584,-3.9746,-4.0246,-4.0516,-5.707,-5.8047,-5.8672,-6.1094,-6.1719,-6.1719,-6.1719,-6.1015,-6.039,-6.0351,-5.8984,-5.7734,-5.7695,-5.8437,-5.9101,-5.918,-6.1406,-6.4023,-6.6523,-6.6288,-6.7029,-7.0153,-6.9135,-6.8463,-6.9275,-6.8531,-6.7043,-6.4614,-6.5861,-6.6053,-6.4455,-6.5077,-6.5077,-6.426,-6.3399,-6.254,-6.1718,-6.172,-6.1688,-6.1699,-6.0838,-6.0414,-6.0342,-5.8663,-5.7885,-5.781,-5.6052,-5.5272,-5.5117,-5.3398,-5.2656,-5.2539,-5.1719,-5.1406,-5.1406,-5.1406,-5.1367,-5.1328,-5.1328,-5.1328,-5.1328,-5.1289,-5.0742,-4.9922,-4.9062,-4.8203,-4.7344,-4.6523,-4.6289,-4.6289,-4.6289,-4.6289,-4.6289,-4.6289,-4.6289,-4.6289,-4.6289,-4.4961,-4.375,-4.3711,-4.2304,-4.1092,-4.1092,-4.1087,-4.1119,-4.1119,-4.1114,-4.0787,-3.9886,-3.9722,-3.901,-3.7234,-3.7694,-3.7397,-3.5706,-3.6269,-3.6346,-3.5538,-3.55,-3.55,-3.55,-3.55,-3.55,-3.55,-3.55,-3.6269,-3.7853,-3.7969,-3.8815,-4.0362,-4.0477,-4.0516,-5.8437,-5.9765,-6.0898,-6.1523,-6.1719,-6.1719,-6.1719,-6.1015,-6.0234,-5.9648,-5.7617,-5.5742,-5.5117,-5.625,-5.7695,-5.8984,-6.2422,-6.539,-6.6719,-6.8359,-6.9023,-6.8005,-6.859,-6.89,-6.8463,-6.7682,-6.6939,-6.6275,-6.6026,-6.5702,-6.5273,-6.4258,-6.3555,-6.3321,-6.2501,-6.1913,-6.1718,-6.169,-6.1699,-6.1707,-6.0808,-6.0381,-6.0348,-5.8668,-5.7889,-5.7812,-5.6054,-5.4922,-5.4258,-5.3164,-5.2305,-5.1719,-5.1484,-5.1406,-5.1406,-5.1406,-5.1016,-5.0508,-5.0508,-5.0508,-5.0391,-4.9766,-4.8945,-4.8203,-4.8008,-4.7305,-4.6601,-4.6367,-4.6289,-4.6289,-4.6289,-4.6289,-4.6289,-4.6289,-4.6289,-4.6289,-4.6289,-4.543,-4.4492,-4.3828,-4.2304,-4.1092,-4.1092,-4.1089,-4.1086,-4.1086,-4.1081,-4.0995,-4.0787,-4.0133,-3.9491,-3.8951,-3.8435,-3.7629,-3.6476,-3.6577,-3.6346,-3.5538,-3.55,-3.55,-3.55,-3.55,-3.55,-3.55,-3.55,-3.5692,-3.6154,-3.7392,-3.8238,-3.8661,-3.9938,-4.0516,-5.9329,-6.0389,-6.1211,-6.1601,-6.1719,-6.1523,-6.0781,-5.9648,-5.8515,-5.7656,-5.539,-5.3555,-5.3437,-5.4531,-5.6015,-5.7773,-6.1015,-6.414,-6.6562,-6.8125,-6.8906,-6.8593,-6.9413,-6.9646,-6.8744,-6.8274,-6.7845,-6.7452,-6.5959,-6.4859,-6.4468,-6.3179,-6.2438,-6.2438,-6.1969,-6.1694,-6.1694,-6.1701,-6.1707,-6.1674,-6.0463,-5.9879,-5.9804,-5.8124,-5.7343,-5.7226,-5.5508,-5.4453,-5.3906,-5.2656,-5.1836,-5.1406,-5.1406,-5.1406,-5.1406,-5.1406,-5.0898,-5.0156,-4.9766,-4.9375,-4.9023,-4.8945,-4.832,-4.7617,-4.7617,-4.6992,-4.6289,-4.6289,-4.6289,-4.6289,-4.6289,-4.6289,-4.6289,-4.6289,-4.6289,-4.6406,-4.6797,-4.6172,-4.5312,-4.4453,-4.3476,-4.2695,-4.2304,-4.2224,-4.2106,-4.1715,-4.1672,-4.1512,-4.1158,-4.098,-4.0552,-3.9714,-3.9776,-3.9154,-3.7469,-3.762,-3.7315,-3.6115,-3.6038,-3.5885,-3.55,-3.55,-3.55,-3.55,-3.55,-3.5654,-3.6038,-3.7353,-3.82,-3.8584,-3.99,-4.0516,-6.03,-6.0842,-6.1054,-6.1718,-6.1797,-6.125,-5.957,-5.7773,-5.6172,-5.5312,-5.3125,-5.1641,-5.2383,-5.332,-5.4648,-5.6601,-5.8984,-6.2109,-6.6445,-6.7187,-6.8008,-7.0117,-7.0469,-7.0156,-6.9178,-6.8943,-6.859,-6.7843,-6.55,-6.386,-6.3193,-6.2334,-6.1826,-6.1709,-6.1709,-6.1709,-6.171,-6.171,-6.1713,-6.1678,-5.9998,-5.9218,-5.914,-5.7383,-5.6601,-5.6523,-5.4883,-5.4101,-5.3867,-5.2226,-5.1484,-5.1406,-5.1406,-5.1406,-5.1406,-5.1289,-5.0742,-4.9883,-4.9023,-4.8164,-4.7539,-4.832,-4.8047,-4.7422,-4.7422,-4.6914,-4.6289,-4.6289,-4.6289,-4.6289,-4.6289,-4.6289,-4.6289,-4.6289,-4.6289,-4.6523,-4.7266,-4.6758,-4.5937,-4.5312,-4.5078,-4.4805,-4.4141,-4.4062,-4.3749,-4.2889,-4.2653,-4.2261,-4.1362,-4.1823,-4.1686,-4.0213,-4.1303,-4.116,-3.8833,-3.9153,-3.8792,-3.7168,-3.686,-3.6392,-3.5692,-3.5577,-3.55,-3.55,-3.55,-3.5885,-3.6692,-3.7584,-3.843,-3.9323,-4.0131,-4.0516,-6.2801,-6.335,-6.333,-6.2822,-6.218,-6.125,-5.957,-5.7305,-5.5273,-5.4414,-5.2734,-5.1445,-5.1601,-5.293,-5.5039,-5.8242,-6.0273,-6.3008,-6.7344,-6.8594,-6.8945,-6.8672,-6.9219,-6.9023,-6.7461,-6.6679,-6.6211,-6.6054,-6.4296,-6.3475,-6.4054,-6.3232,-6.2451,-6.1709,-6.1709,-6.1711,-6.1716,-6.1716,-6.1717,-6.168,-6.0,-5.9219,-5.914,-5.7383,-5.6601,-5.6523,-5.5508,-5.4687,-5.3906,-5.2891,-5.2031,-5.1406,-5.1406,-5.1406,-5.1328,-5.0664,-4.9844,-4.8984,-4.8125,-4.7266,-4.6562,-4.6719,-4.6641,-4.6523,-4.6523,-4.6406,-4.6289,-4.6289,-4.6289,-4.6289,-4.6289,-4.6289,-4.6289,-4.6289,-4.6289,-4.6328,-4.6484,-4.5859,-4.5391,-4.5976,-4.5508,-4.5195,-4.5742,-4.5859,-4.5547,-4.4687,-4.3944,-4.3162,-4.2304,-4.1676,-4.1468,-4.1824,-4.2068,-4.1936,-4.138,-4.0739,-3.9942,-3.8912,-3.7564,-3.6696,-3.65,-3.5846,-3.55,-3.55,-3.55,-3.5885,-3.6692,-3.7584,-3.843,-3.9323,-4.0131,-4.0516,-6.291,-6.3181,-6.3206,-6.2906,-6.1881,-6.0379,-5.832,0.0,0.0,-5.293,-5.1641,-5.0898,-5.1328,-5.2461,-5.418,-5.6758,-5.8984,-6.1758,-6.5625,-6.7305,-6.8164,-6.8203,-6.8555,-6.8086,-6.6406,-6.5859,-6.539,-6.4961,-6.3711,-6.3164,-6.3592,-6.281,-6.2146,-6.1716,-6.1716,-6.1717,-6.1718,-6.1718,-6.1718,-6.168,-6.0,-5.9219,-5.914,-5.7383,-5.6601,-5.6562,-5.5664,-5.5078,-5.457,-5.3242,-5.2461,-5.2031,-5.1562,-5.1406,-5.1367,-5.0976,-5.0273,-4.9453,-4.8594,-4.7695,-4.6914,-4.6445,-4.6289,-4.6289,-4.6289,-4.6289,-4.6289,-4.6289,-4.6289,-4.6289,-4.6289,-4.6641,-4.6875,-4.6406,-4.6641,-4.6992,-4.6992,-4.6992,-4.7031,-4.6992,-4.6641,-4.6328,-4.6328,-4.668,-4.668,-4.582,-4.5703,-4.5234,-4.3906,-4.3007,-4.2262,-4.1742,-4.201,-4.2231,-4.2163,-4.1241,-4.0507,-4.0113,-3.846,-3.7244,-3.6754,-3.5984,-3.5554,-3.5495,-3.5495,-3.5912,-3.6692,-3.7584,-3.843,-3.9323,-4.0131,-4.0516,-6.2847,-6.2944,-6.3022,-6.3015,-6.1576,-5.9508,-5.7101,-5.5075,-5.3241,-5.1719,-5.0742,-5.0469,-5.125,-5.1953,-5.3047,-5.5,-5.7031,-5.9687,-6.3476,-6.5351,-6.6758,-6.7812,-6.793,0.0,-6.5508,-6.5156,-6.4687,-6.3828,-6.3125,-6.2734,-6.2734,-6.1914,-6.1523,-6.168,-6.1523,-6.1523,-6.1719,-6.1719,-6.1719,-6.168,-6.0,-5.9219,-5.914,-5.7383,-5.6601,-5.6562,-5.5898,-5.5469,-5.5195,-5.3633,-5.2851,-5.2617,-5.1758,-5.1406,-5.1367,-5.1016,-5.0469,-4.9766,-4.8711,-4.7891,-4.7226,-4.6523,-4.6289,-4.6289,-4.6289,-4.6289,-4.6289,-4.6289,-4.6289,-4.6289,-4.6289,-4.6797,-4.7148,-4.6445,-4.6836,-4.7383,-4.7578,-4.8008,-4.832,-4.8164,-4.8008,-4.7773,-4.7461,-4.7969,-4.8125,-4.7266,-4.7578,-4.7266,-4.5508,-4.4687,-4.3515,-4.1562,-4.1931,-4.2373,-4.257,-4.1626,-4.1003,-4.1086,-3.9224,-3.79,-3.7392,-3.6234,-3.5759,-3.6042,-3.5888,-3.6254,-3.7259,-3.7945,-3.8715,-3.96,-4.0208,-4.0516,-6.427,-6.4589,-6.4511,-6.3782,-6.1803,-5.9402,-5.6962,0.0,-5.239,-5.1561,-5.0742,-5.0469,-5.125,-5.1484,-5.2344,-5.4883,-5.5508,-5.7422,-6.2422,-6.3945,-6.5156,-6.6836,0.0,0.0,-6.4609,-6.3711,-6.289,-6.1992,-6.1875,-6.1836,-6.1836,-6.0976,-6.0898,-6.168,-6.0937,-6.0898,-6.168,-6.1719,-6.1719,-6.168,-6.0,-5.9219,-5.914,-5.7383,-5.6601,-5.6601,-5.6523,-5.6015,-5.5234,-5.4258,-5.3398,-5.2617,-5.1758,-5.1406,-5.1211,-4.9687,-4.9062,-4.8789,-4.7109,-4.6484,-4.6406,-4.6328,-4.6289,-4.6289,-4.6289,-4.6289,-4.6289,-4.6289,-4.6289,-4.6289,-4.6289,-4.6367,-4.6406,-4.6328,-4.6367,-4.6641,-4.7422,-4.7031,-4.7226,-4.9531,-4.9336,-4.9258,-5.0664,-5.1016,-5.0781,-4.9961,-4.9258,-4.8164,-4.6406,-4.6094,-4.5078,-4.2539,-4.2292,-4.2623,-4.3406,-4.2556,-4.1975,-4.1994,-3.9596,-3.846,-3.9128,-3.6852,-3.6311,-3.781,-3.7077,-3.7501,-3.9153,-3.9157,-3.9637,-4.0484,-4.0492,-4.0516,-6.2906,-6.3191,-6.3166,-6.2915,-6.0957,-5.8636,-5.6819,0.0,-5.293,-5.1678,-5.1133,-5.1016,-5.1328,-5.1406,-5.1758,-5.2773,-5.3398,-5.4805,-5.793,-5.9101,-6.0703,-6.3437,-6.332,-6.3125,-6.3476,-6.2734,-6.207,-6.1719,-6.1719,-6.1719,-6.1719,-6.1367,-6.1328,-6.168,-6.0859,-6.082,-6.168,-6.0703,-6.043,-6.0898,-5.9219,-5.8437,-5.8398,-5.7148,-5.6601,-5.6601,-5.6601,-5.6094,-5.5234,-5.4375,-5.3476,-5.2617,-5.1758,-5.1406,-5.1328,-5.0664,-5.0117,-4.9492,-4.8281,-4.7539,-4.6992,-4.6484,-4.6289,-4.6289,-4.6289,-4.6289,-4.6289,-4.6289,-4.6289,-4.6289,-4.6289,-4.6289,-4.6445,-4.6953,-4.707,-4.7187,-4.7539,-4.7734,-4.8164,-4.9219,-4.9141,-4.9101,-4.9766,-5.0312,-5.0586,-5.0234,-5.0312,-4.9961,-4.8789,-4.8203,-4.7266,-4.5703,-4.41,-4.3081,-4.2886,-4.2,-4.1646,-4.2148,-4.0172,-3.9128,-3.9464,-3.7989,-3.7474,-3.8151,-3.7803,-3.8222,-3.9398,-3.9378,-3.9795,-4.0605,-4.0569,-4.0546,-6.155,-6.1908,-6.2109,-6.2228,-6.0336,-5.8114,0.0,0.0,-5.3367,-5.1981,-5.1561,-5.1406,-5.1406,-5.1406,-5.1406,-5.1406,-5.1914,-5.293,-5.4687,-5.5898,-5.7695,-6.0625,0.0,-6.0976,-6.2461,-6.207,-6.1719,-6.1719,-6.1719,-6.1719,-6.1719,-6.1445,-6.1328,-6.1328,-6.0508,-6.0351,-6.0937,-5.9805,-5.9492,-6.0039,-5.8594,-5.789,-5.7851,-5.6992,-5.6601,-5.6601,-5.6601,-5.6094,-5.5234,-5.4375,-5.3476,-5.2656,-5.2031,-5.1797,-5.1719,-5.1211,-5.0703,-5.0,-4.8594,-4.7734,-4.7109,-4.6484,-4.6289,-4.6289,-4.6289,-4.6289,-4.6289,-4.6289,-4.6289,-4.6289,-4.6289,-4.6289,-4.6523,-4.7383,-4.7617,-4.7656,-4.793,-4.8476,-4.8984,-4.9219,-4.9297,-4.9375,-4.9609,-5.0156,-5.0547,-5.0547,-5.082,-5.0859,-5.0273,-4.9648,-4.8867,-4.7734,-4.6172,-4.457,-4.293,-4.1915,-4.15,-4.1815,-4.0369,-3.9617,-3.9887,-3.8798,-3.8438,-3.8961,-3.8729,-3.8987,-3.9818,-3.9805,-4.0223,-4.0995,-4.0721,-4.0622,-6.0819,-6.1435,-6.2101,-6.2101,-6.0177,-5.8115,-5.7357,-5.5313,-5.3371,-5.262,-5.1902,-5.1406,-5.1406,-5.1406,-5.1406,-5.1406,-5.1406,-5.2031,-5.3789,-5.5508,-5.7265,0.0,-5.9922,-6.0742,-6.164,-6.1719,-6.1719,-6.1719,-6.1719,-6.1719,-6.1719,-6.0898,-6.039,-6.039,-5.9648,-5.9219,-5.9219,-5.9219,-5.9219,-5.9219,-5.832,-5.789,-5.7851,-5.6992,-5.6601,-5.6601,-5.6601,-5.6094,-5.5234,-5.4375,-5.3476,-5.2695,-5.2695,-5.2695,-5.25,-5.082,-5.0195,-4.9844,-4.7226,-4.6328,-4.6328,-4.6289,-4.6289,-4.6289,-4.6289,-4.6289,-4.6289,-4.6289,-4.6289,-4.6289,-4.6289,-4.6289,-4.6523,-4.7383,-4.7617,-4.7851,-4.8711,-4.8906,-4.9141,-5.0039,-5.0195,-5.043,-5.125,-5.1367,-5.1406,-5.1406,-5.0703,-5.0195,-5.0195,-5.0195,-4.9531,-4.7773,-4.8359,-4.7461,-4.3984,-4.2776,-4.1854,-4.1068,-4.0058,-3.9887,-4.0739,-3.9108,-3.903,-4.0739,-3.9926,-3.9926,-4.0777,-4.0739,-4.1138,-4.1949,-4.1033,-4.0605,-5.8934,-5.9281,-5.9511,-5.9511,-5.8434,-5.724,-5.6459,-5.4904,-5.3385,-5.2656,-5.1898,-5.1406,-5.1406,-5.1406,-5.1601,-5.2187,-5.2305,-5.2461,-5.3047,-5.4609,0.0,-5.7305,-5.9726,-6.1406,-6.168,-6.1719,-6.1719,-6.1719,-6.1719,-6.1445,-6.0859,-6.0547,-6.039,-6.039,-5.9023,-5.8594,-5.918,-5.8008,-5.7734,-5.8281,-5.7422,-5.6992,-5.6992,-5.6719,-5.6601,-5.6562,-5.5976,-5.5234,-5.4375,-5.4101,-5.3476,-5.2773,-5.3359,-5.2851,-5.1758,-5.1211,-4.9922,-4.8281,-4.7461,-4.6797,-4.6289,-4.6289,-4.6289,-4.6289,-4.6289,-4.6289,-4.6289,-4.6289,-4.6289,-4.6289,-4.6289,-4.6289,-4.6523,-4.7383,-4.8047,-4.8711,-4.9609,-5.0234,-5.0703,-5.0976,-5.1016,-5.1094,-5.1367,-5.1406,-5.1211,-5.0664,-5.0351,-4.9961,-4.9375,-4.9297,-4.9101,-4.8555,-4.875,-4.7734,-4.4844,-4.3696,-4.3029,-4.2711,-4.1285,-4.0826,-4.159,-4.0539,-4.023,-4.0777,-4.0545,-4.0507,-4.0816,-4.1345,-4.2021,-4.2813,-4.1942,-4.183,-5.755,-5.805,-5.8319,-5.8319,-5.7627,-5.6872,-5.6435,-5.511,-5.3805,-5.3057,-5.2333,-5.1749,-5.1444,-5.1406,-5.1562,-5.2109,-5.2226,-5.2305,-5.2656,-5.4219,-5.5859,-5.7383,-5.9726,-6.1211,-6.1211,-6.1523,-6.1719,-6.1719,-6.1406,-6.0976,-6.043,-5.9805,-5.9453,-5.9453,-5.8437,-5.8008,-5.8203,-5.7148,-5.6875,-5.7383,-5.6875,-5.6601,-5.6601,-5.6601,-5.6406,-5.6094,-5.5547,-5.4609,0.0,-5.3516,-5.3203,-5.2734,-5.293,-5.2578,-5.1758,-5.082,-4.9453,-4.8008,-4.7344,-4.6758,-4.6289,-4.6289,-4.6289,-4.6289,-4.6289,-4.6289,-4.6289,-4.6289,-4.6289,-4.6367,-4.6719,-4.6797,-4.7109,-4.8281,-4.8984,-4.9609,-5.0469,-5.1055,-5.1406,-5.1406,-5.1406,-5.1406,-5.1406,-5.1406,-5.1211,-5.0742,-5.0391,-5.0,-4.9453,-4.9101,-4.8906,-4.8906,-4.8906,-4.8242,-4.6601,-4.5305,-4.4259,-4.3533,-4.2443,-4.1911,-4.2015,-4.1506,-4.1126,-4.0816,-4.1087,-4.1235,-4.1274,-4.2434,-4.2885,-4.2756,-4.3213,-4.334,0.0,-5.7588,-5.8204,-5.8204,-5.7588,-5.6983,-5.6907,-5.5779,0.0,-5.3844,-5.3061,-5.2301,-5.1636,-5.1445,-5.1406,-5.1484,-5.1523,-5.1875,-5.2695,-5.4336,-5.6445,-5.8984,-6.0,-6.0469,-6.039,-6.1133,-6.1601,-6.1601,-6.0781,-6.0273,-6.0234,-5.875,-5.7851,-5.7812,-5.7812,-5.7422,-5.6601,-5.6601,-5.6601,-5.6601,-5.6601,-5.6601,-5.6601,-5.6523,-5.6055,-5.5273,-5.5156,-5.4219,-5.2695,-5.2773,-5.2734,-5.2539,-5.1836,-5.1914,-5.2148,-4.9766,-4.8828,-4.8476,-4.6875,-4.6289,-4.6289,-4.6289,-4.6289,-4.6289,-4.6289,-4.6289,-4.6289,-4.6289,-4.6289,-4.6484,-4.7305,-4.7539,-4.8008,-4.9726,-5.0156,-5.043,-5.1211,-5.1406,-5.1406,-5.1406,-5.1406,-5.1406,-5.1406,-5.1406,-5.1367,-5.1328,-5.0664,-5.0195,-5.0117,-4.9336,-4.8828,-4.8828,-4.8828,-4.8789,-4.8711,-4.718,-4.5512,-4.3887,-4.3536,-4.3047,-4.2209,-4.2125,-4.1738,-4.1009,-4.1699,-4.2125,-4.2202,-4.375,-4.375,-4.2318,-4.4639,-4.4896,-5.6753,0.0,-5.733,-5.733,-5.7137,-5.683,0.0,-5.5287,-5.4638,0.0,0.0,0.0,0.0,0.0,-5.1601,-5.2305,-5.2969,-5.3476,-5.3672,-5.5781,-5.8008,-5.9883,-6.0859,-6.1133,-6.0469,-6.0586,-6.0703,-6.0703,-5.9961,-5.918,-5.8515,-5.8125,-5.7578,-5.6914,-5.6914,-5.6797,-5.6601,-5.6601,-5.6601,-5.6601,-5.6601,-5.6601,-5.6562,-5.5898,-5.5508,-5.5234,-5.3906,-5.3086,-5.2734,-5.3437,-5.2891,-5.1836,-5.2969,-5.1914,-4.9726,-4.9101,-4.8047,-4.6836,-4.6445,-4.6289,-4.6289,-4.6289,-4.6289,-4.6289,-4.6289,-4.6289,-4.6289,-4.6289,-4.6289,-4.6367,-4.6562,-4.7109,-4.7851,-4.8945,-4.9726,-5.043,-5.1211,-5.1406,-5.1406,-5.1406,-5.1406,-5.1406,-5.1406,-5.1406,-5.1172,-5.0586,-5.0312,-4.9961,-4.9297,-4.8437,-4.7891,-4.7891,-4.7891,-4.7656,-4.6953,-4.6523,-4.6354,-4.6463,-4.4607,-4.3626,-4.3988,-4.3363,-4.2899,-4.2705,-4.2899,-4.3324,-4.3982,-4.375,-4.4059,-4.4917,-4.4871,-4.5005,-5.6753,-5.6983,-5.7099,-5.7511,-5.7291,-5.6868,-5.6406,-5.5681,-5.5044,0.0,0.0,0.0,0.0,-5.2197,-5.2058,-5.2571,-5.3397,-5.4297,-5.5078,-5.6758,-5.8515,-6.0195,-6.082,-6.0937,-6.0469,-6.039,-6.0234,-5.9883,-5.9062,-5.8398,-5.793,-5.7539,-5.7109,-5.6601,-5.6601,-5.6601,-5.6601,-5.6601,-5.6601,-5.6601,-5.6172,-5.6015,-5.5976,-5.5117,-5.4492,-5.4062,-5.3125,-5.2461,-5.2109,-5.2226,-5.1914,-5.1367,-5.1133,-5.0195,-4.8789,-4.8008,-4.7109,-4.6289,-4.6289,-4.6289,-4.6289,-4.6289,-4.6289,-4.6289,-4.6289,-4.6562,-4.6914,-4.6914,-4.6601,-4.6562,-4.7773,-4.8125,-4.8516,-4.9766,-5.0391,-5.0859,-5.1328,-5.1406,-5.1406,-5.1406,-5.1406,-5.1406,-5.1406,-5.1406,-5.125,-5.082,-5.0742,-5.0469,-4.9609,-4.9062,-4.8476,-4.7695,-4.7617,-4.7422,-4.6953,-4.6523,-4.6479,-4.6816,-4.5495,-4.4677,-4.4664,-4.417,-4.3904,-4.3904,-4.3904,-4.413,-4.4594,-4.4485,-4.4717,-4.5258,-4.5181,-4.5367,-5.6945,-5.7214,-5.7357,-5.8127,-5.7742,-5.7176,-5.7022,-5.6329,-5.5545,0.0,0.0,0.0,-5.2933,-5.277,-5.2741,-5.2788,-5.3706,-5.5039,-5.6914,-5.7812,-5.8828,-6.0234,-6.0508,-6.0508,-6.0234,-6.0234,-5.9883,-5.9062,-5.8203,-5.7695,-5.7695,-5.6992,-5.6601,-5.6601,-5.6601,-5.6601,-5.6601,-5.6601,-5.6601,-5.6601,-5.5703,-5.5312,-5.5273,-5.4258,-5.3398,-5.2695,-5.2578,0.0,-5.1367,-5.0664,-5.0625,-5.0781,-4.8633,-4.8086,-4.832,-4.6836,-4.6289,-4.6289,-4.6289,-4.6289,-4.6328,-4.6445,-4.6406,-4.6367,-4.6601,-4.7109,-4.7656,-4.793,-4.7383,-4.7226,-4.9414,-4.9531,-4.9453,-5.0898,-5.1328,-5.1406,-5.1406,-5.1406,-5.1406,-5.1406,-5.1406,-5.1406,-5.1406,-5.1406,-5.1406,-5.1406,-5.1406,-5.1133,-5.0469,-5.0273,-4.9648,-4.8164,-4.7773,-4.7617,-4.7617,-4.6797,-4.6287,-4.6231,-4.6142,-4.5745,-4.4888,-4.4815,-4.4794,-4.4794,-4.4794,-4.4794,-4.4794,-4.5452,-4.5452,-4.4794,-4.549,-4.5807,-5.7665,-5.8088,-5.8127,-5.828,-5.8204,-5.7896,-5.7176,-5.6329,-5.574,0.0,0.0,-5.4702,-5.4828,-5.4243,-5.3784,-5.3784,-5.5155,-5.7031,-5.9492,-5.9922,-6.0117,-6.0351,-6.1055,-6.0937,-5.9531,-5.9375,-5.9023,-5.8164,-5.7305,-5.6797,-5.6797,-5.668,-5.6601,-5.6601,-5.6601,-5.6601,-5.6601,-5.6601,-5.6601,-5.6601,-5.5703,-5.5312,-5.5234,-5.3633,-5.2812,-5.2656,0.0,-5.1523,-5.1406,-5.1289,-5.0469,-4.9258,-4.8867,-4.7891,-4.668,-4.6406,-4.6289,-4.6289,-4.6289,-4.6289,-4.6406,-4.7148,-4.6914,-4.6562,-4.8047,-4.8086,-4.7891,-4.9375,-4.918,-4.8594,-4.8984,-4.9531,-5.0078,-5.0312,-5.0898,-5.1406,-5.1406,-5.1406,-5.1406,-5.1406,-5.1406,-5.1406,-5.1406,-5.1406,-5.1406,-5.1406,-5.1406,-5.1367,-5.1211,-5.0625,-5.0117,-4.9844,-4.8476,-4.7617,-4.7617,-4.6797,-4.6289,-4.6288,-4.6162,-4.5953,-4.5654,-4.562,-4.5613,-4.5613,-4.5613,-4.5613,-4.5613,-4.5729,-4.5729,-4.5613,-4.5729,-4.5807,-5.6665,-5.7242,-5.7588,-5.7588,-5.828,-5.8742,-5.7896,-5.7011,-5.6305,-5.595,-5.5304,-5.4847,-5.4946,-5.5155,-5.5648,-5.6639,-5.7461,-5.8398,-5.9609,-5.9765,-5.9922,-6.0351,-6.0742,-6.0703,-5.9922,-5.9453,-5.8828,-5.7969,-5.7109,-5.6562,-5.6553,-5.6561,-5.6562,-5.6553,-5.6131,-5.5898,-5.5898,-5.543,-5.543,-5.5898,-5.4531,-5.3906,-5.3867,-5.2578,-5.1992,-5.1992,0.0,-5.1406,-5.1328,-5.043,-4.9609,-4.8828,-4.7851,-4.6992,-4.6289,-4.6289,-4.6289,-4.6367,-4.6836,-4.6992,-4.7148,-4.8008,-4.8047,-4.7851,-4.8672,-4.8945,-4.918,-4.9961,-4.957,-4.9101,-5.0039,-5.0234,-5.0312,-5.0742,-5.1133,-5.1406,-5.1406,-5.1406,-5.1406,-5.1406,-5.1406,-5.1406,-5.1406,-5.1406,-5.1406,-5.1406,-5.1406,-5.1406,-5.1406,-5.1094,-5.0664,-5.0234,-4.9062,-4.8125,-4.7656,-4.6797,-4.6286,-4.6181,-4.6134,-4.6022,-4.5814,-4.5807,-4.5807,-4.5807,-4.5807,-4.5807,-4.5807,-4.5807,-4.5807,-4.5807,-4.5807,-4.5807,-5.5934,-5.6626,-5.7368,-5.7561,-5.8242,-5.8858,-5.8627,-5.7742,-5.6917,-5.6701,-5.5923,-5.5318,-5.5335,-5.6052,-5.7182,-5.8631,-5.9218,-5.9531,-5.9765,-5.9805,-6.0,-6.0625,-6.0703,-6.0625,-6.043,-5.9687,-5.8828,-5.7969,-5.7109,-5.6561,-5.6543,-5.656,-5.6482,-5.6231,-5.5622,-5.5195,-5.5,-5.4141,-5.4141,-5.4961,-5.3437,-5.2695,-5.2656,-5.1797,-5.1406,-5.1406,-5.1406,-5.1289,-5.1016,-4.9492,-4.8789,-4.8437,-4.6914,-4.6289,-4.6289,-4.6289,-4.6289,-4.6406,-4.7305,-4.7617,-4.7773,-4.8867,-4.9062,-4.8984,-4.9375,-4.9805,-5.0234,-5.043,-5.0,-4.9766,-5.1055,-5.0937,-5.0625,-5.125,-5.1406,-5.1406,-5.1406,-5.1406,-5.1406,-5.1406,-5.1406,-5.1406,-5.1406,-5.1406,-5.1406,-5.1406,-5.1406,-5.1406,-5.1406,-5.1406,-5.1172,-5.0547,-4.9531,-4.8476,-4.7383,-4.668,-4.6243,-4.6131,-4.6109,-4.6022,-4.5814,-4.5807,-4.5807,-4.5807,-4.5807,-4.5807,-4.5807,-4.5807,-4.5807,-4.5807,-4.5807,-4.5807,-5.6676,-5.755,-5.8396,-5.9127,-5.8242,-5.7561,-5.9088,-5.8165,-5.7461,-5.908,-5.8157,-5.7071,-5.719,-5.7385,-5.7629,-5.7925,-5.9295,-6.0585,-6.1406,-6.1523,-6.1523,-6.1601,-6.1601,-6.1289,-6.0469,-5.9687,-5.8828,-5.7969,-5.7109,-5.6601,-5.6601,-5.6601,-5.6211,-5.5429,-5.5312,-5.4922,-5.4101,-5.3242,-5.3242,-5.4062,-5.3164,-5.2695,-5.2656,-5.1797,-5.1406,-5.1406,-5.1406,-5.0976,-5.0195,-4.9297,-4.8437,-4.7617,-4.6641,-4.6289,-4.6289,-4.6289,-4.6289,-4.6406,-4.7305,-4.7617,-4.7891,-4.957,-4.957,-4.918,-5.0742,-5.0742,-5.0351,-5.1094,-5.1289,-5.125,-5.1367,-5.1367,-5.1328,-5.1406,-5.1406,-5.1406,-5.1406,-5.1406,-5.1406,-5.1406,-5.1406,-5.1406,-5.1406,-5.1406,-5.1406,-5.1406,-5.1406,-5.1406,-5.1406,-5.1406,-5.1367,-5.1328,-4.9883,-4.8203,-4.6523,-4.6328,-4.6286,-4.6181,-4.6134,-4.6022,-4.5814,-4.5807,-4.5807,-4.5807,-4.5807,-4.5807,-4.5807,-4.5807,-4.5807,-4.5807,-4.5807,-4.5807,-5.6088,-5.6434,-5.6896,-5.7742,-5.7484,-5.7599,-5.9781,-6.0242,-5.993,-5.9006,-5.9215,-5.9138,-5.7658,-5.7522,-5.7808,-5.848,-5.9595,-6.0699,-6.1561,-6.1249,-6.0898,-6.0898,-6.0469,-6.0039,-5.9687,-5.8906,-5.8242,-5.793,-5.7109,-5.6561,-5.655,-5.6053,-5.5624,-5.526,-5.4217,-5.3516,-5.3203,-5.2344,-5.207,-5.2383,-5.2031,-5.1875,-5.1875,-5.1562,-5.1406,-5.1367,-5.0859,-5.0469,-5.0078,-4.8672,-4.7891,-4.75,-4.6641,-4.6289,-4.6289,-4.6289,-4.6641,-4.7226,-4.8125,-4.875,-4.9414,-5.0586,-5.0703,-5.0586,-5.1211,-5.1172,-5.1016,-5.1328,-5.1406,-5.1406,-5.1406,-5.1406,-5.1406,-5.1406,-5.1406,-5.1406,-5.1406,-5.1406,-5.1406,-5.1406,-5.1406,-5.1406,-5.1406,-5.1406,-5.1406,-5.1406,-5.1406,-5.1406,-5.1406,-5.1406,-5.1406,-5.1406,-4.9883,-4.8203,-4.6445,-4.6289,-4.6287,-4.6186,-4.6137,-4.6048,-4.5941,-4.5854,-4.5807,-4.5807,-4.5807,-4.5807,-4.5807,-4.5807,-4.5807,-4.5807,-4.5807,-4.5807,-5.5703,-5.5895,-5.6252,-5.6868,-5.7407,-5.833,-6.0319,-6.1243,-6.1358,-6.0127,-6.0201,-5.9949,-5.8047,-5.7585,-5.7712,-5.839,-5.9261,-6.0073,-6.0673,-6.0243,-5.9857,-5.9904,-5.9398,-5.9086,-5.9089,-5.8308,-5.7799,-5.7799,-5.7018,-5.6501,-5.6428,-5.5687,-5.5108,-5.4808,-5.3427,-5.2537,-5.2305,-5.1405,-5.1092,-5.1406,-5.0859,-5.0742,-5.1016,-5.1016,-5.0859,-5.0586,-5.0312,-4.9883,-4.9297,-4.8086,-4.7422,-4.7148,-4.6523,-4.6289,-4.6328,-4.6601,-4.7109,-4.7773,-4.8906,-4.9687,-5.0312,-5.1133,-5.1406,-5.1406,-5.1406,-5.1406,-5.1406,-5.1406,-5.1406,-5.1406,-5.1406,-5.1406,-5.1406,-5.1406,-5.1406,-5.1406,-5.1406,-5.1406,-5.1406,-5.1406,-5.1406,-5.1406,-5.1406,-5.1406,-5.1406,-5.1406,-5.1406,-5.1406,-5.1406,-5.1406,-5.1211,-5.0664,-4.9336,-4.7891,-4.6406,-4.6289,-4.6288,-4.6238,-4.6162,-4.6102,-4.6017,-4.5902,-4.5874,-4.5874,-4.5827,-4.5807,-4.5807,-4.5807,-4.5807,-4.5807,-4.5807,-4.5807,-5.5703,-5.6329,-5.6983,-5.7022,-5.8242,-5.9704,-6.0589,-6.0819,-6.1281,-6.2974,-6.1281,-5.926,-5.8568,-5.7744,-5.7257,-5.7399,-5.8136,-5.8698,-5.8698,-5.8704,-5.8714,-5.8778,-5.8778,-5.8792,-5.8854,-5.8074,-5.7563,-5.7563,-5.678,-5.6273,-5.6273,-5.5597,-5.4806,-5.3908,-5.3051,-5.2211,-5.1406,-5.0454,-5.0454,-5.1367,-4.9687,-4.9336,-5.0195,-5.0195,-4.9726,-4.8945,-4.9805,-4.918,-4.7617,-4.7578,-4.707,-4.6328,-4.6289,-4.6289,-4.6406,-4.7265,-4.7617,-4.7851,-4.9609,-5.0195,-5.0351,-5.1133,-5.1406,-5.1406,-5.1406,-5.1406,-5.1406,-5.1406,-5.1406,-5.1406,-5.1406,-5.1406,-5.1406,-5.1406,-5.1406,-5.1406,-5.1406,-5.1406,-5.1406,-5.1406,-5.1406,-5.1406,-5.1406,-5.1406,-5.1406,-5.1406,-5.1406,-5.1406,-5.1406,-5.1406,-5.0742,-4.9062,-4.8125,-4.7266,-4.6367,-4.6289,-4.6289,-4.6289,-4.6239,-4.6165,-4.6105,-4.6056,-4.6002,-4.6002,-4.588,-4.5807,-4.5807,-4.5807,-4.5807,-4.5807,-4.5807,-4.5807,-5.5703,-5.5895,-5.6357,-5.7627,-5.828,-5.9204,-6.1243,-6.2166,-6.2858,-6.3974,-6.1704,-5.9407,-5.9205,-5.8578,-5.7934,-5.735,-5.8069,-5.8694,-5.8698,-5.8153,-5.7776,-5.7808,-5.7318,-5.6748,-5.6217,-5.6459,-5.6195,-5.503,-5.5766,-5.5805,-5.4601,-5.4344,-5.3809,-5.2955,-5.2058,-5.121,-5.0332,-5.0664,-5.0352,-4.9401,-4.8928,-4.9233,-5.0195,-4.957,-4.9139,-4.8816,-4.8514,-4.8039,-4.7409,-4.6782,-4.674,-4.6933,-4.6389,-4.6155,-4.6194,-4.647,-4.7287,-4.8379,-4.8886,-4.9862,-5.0959,-5.1226,-5.1312,-5.1355,-5.1405,-5.1016,-5.0664,-5.125,-5.0976,-5.0703,-5.125,-5.1406,-5.1406,-5.1406,-5.1406,-5.1406,-5.1406,-5.1406,-5.1406,-5.1406,-5.1406,-5.1406,-5.1406,-5.1406,-5.1406,-5.1406,-5.1406,-5.1406,-5.1406,-5.0351,-4.9453,-4.8945,-4.8125,-4.7266,-4.6367,-4.6289,-4.6289,-4.6289,-4.6288,-4.624,-4.6167,-4.6105,-4.6035,-4.6002,-4.5964,-4.5905,-4.5807,-4.5807,-4.5807,-4.5807,-4.5807,-4.5807,-5.5703,-5.5934,-5.6472,-5.7511,-5.855,-5.9781,-6.1678,-6.2704,-6.3551,-6.4436,-6.2166,-6.0127,-6.0473,-5.9391,-5.8249,-5.7719,-5.786,-5.7899,-5.7552,-5.7048,-5.6746,-5.6752,-5.6037,-5.5475,-5.5372,-5.5249,-5.4879,-5.4218,-5.4819,-5.4747,-5.3736,-5.3385,-5.2977,-5.2436,-5.1614,-5.0741,-4.9925,-5.004,-4.9612,-4.8607,-4.7933,-4.8134,-4.9085,-4.8538,-4.8097,-4.7684,-4.7201,-4.695,-4.6842,-4.6336,-4.6371,-4.6796,-4.6293,-4.6098,-4.6141,-4.6491,-4.7271,-4.8167,-4.8479,-4.9492,-5.0708,-5.0712,-5.0723,-5.0806,-5.1185,-5.0723,-5.0179,-5.0696,-5.0737,-5.0699,-5.0859,-5.1172,-5.1406,-5.1406,-5.1406,-5.1406,-5.1406,-5.1406,-5.1406,-5.1406,-5.1406,-5.1406,-5.1406,-5.1406,-5.1406,-5.1406,-5.1406,-5.1289,-5.0976,-4.9726,-4.8789,-4.8437,-4.7617,-4.6875,-4.6328,-4.6289,-4.6289,-4.6289,-4.6289,-4.6288,-4.624,-4.6167,-4.6122,-4.6076,-4.6044,-4.5973,-4.5886,-4.5886,-4.5861,-4.5807,-4.5807,-4.5807,-5.5703,-5.6329,-5.7022,-5.7099,-5.9011,-6.1127,-6.1908,-6.2666,-6.3435,-6.4205,-6.2512,-6.1127,-6.187,-6.0012,-5.8357,-5.8204,-5.7511,-5.6714,-5.5818,-5.5626,-5.5609,-5.5661,-5.4901,-5.4689,-5.5461,-5.4244,-5.3653,-5.431,-5.3812,-5.342,-5.3265,-5.2588,-5.2155,-5.2078,-5.1262,-5.0464,-4.9668,-4.8865,-4.8443,-4.8312,-4.6863,-4.6547,-4.7256,-4.7267,-4.6842,-4.6098,-4.6084,-4.6123,-4.6204,-4.6119,-4.6119,-4.6193,-4.6119,-4.608,-4.6158,-4.6941,-4.7291,-4.7486,-4.8191,-4.9048,-4.9746,-4.9753,-4.9835,-5.003,-5.0735,-5.0466,-4.9896,-4.9872,-5.0432,-5.091,-5.0348,-5.0702,-5.1288,-5.1367,-5.1406,-5.1406,-5.1406,-5.1406,-5.1406,-5.1406,-5.1406,-5.1406,-5.1406,-5.1406,-5.1367,-5.1289,-5.1211,-5.0898,-5.0195,-4.9258,-4.8398,-4.7695,-4.6836,-4.6289,-4.6289,-4.6289,-4.6289,-4.6289,-4.6289,-4.6289,-4.6289,-4.624,-4.6225,-4.6183,-4.6139,-4.6072,-4.6017,-4.6017,-4.5958,-4.5827,-4.5827,-4.5821,-5.5703,-5.6329,-5.7176,-5.7857,-5.9935,-6.187,-6.2062,-6.2216,-6.2397,-6.2601,-6.2216,-6.1678,-6.1166,-6.0089,-5.8819,-5.7473,-5.7137,-5.6714,-5.5818,-5.5164,-5.4752,-5.4762,-5.4072,-5.3369,-5.2878,-5.3195,-5.2913,-5.1717,-5.2765,-5.2868,-5.1515,-5.1308,-5.092,-5.0262,-4.9449,-4.8579,-4.7721,-4.8185,-4.7727,-4.6409,-4.6745,-4.6629,-4.6138,-4.6316,-4.6297,-4.6095,-4.5942,-4.6263,-4.6916,-4.6168,-4.628,-4.6823,-4.6125,-4.5854,-4.5893,-4.6054,-4.6597,-4.7178,-4.7372,-4.7992,-4.8742,-4.8771,-4.9264,-4.9746,-4.9282,-4.9492,-4.9761,-4.9088,-4.9049,-4.9283,-4.9848,-5.0085,-5.0408,-5.1146,-5.1363,-5.1406,-5.1406,-5.1406,-5.1406,-5.1406,-5.1406,-5.1406,-5.1406,-5.1406,-5.1172,-5.0547,-4.9883,-4.9375,-4.9219,-4.7812,-4.7031,-4.7539,-4.6836,-4.6289,-4.6289,-4.6289,-4.6289,-4.6289,-4.6289,-4.6289,-4.6289,-4.6289,-4.6244,-4.6184,-4.6175,-4.6145,-4.6076,-4.6076,-4.6031,-4.5964,-4.5964,-4.5911,-5.5703,-5.6626,0.0,-5.9704,0.0,-6.1601,-6.1985,-6.1793,-6.1485,-6.1485,-6.1485,-6.1204,-6.0319,-5.9819,-5.8934,-5.7291,-5.6983,-5.6714,-5.5818,-5.5318,-5.4934,-5.4549,-5.3772,-5.3051,-5.2627,-5.229,-5.1903,-5.1402,-5.1477,-5.1172,-5.0301,-4.99,-4.949,-4.9088,-4.8624,-4.7966,-4.7115,-4.754,-4.7115,-4.5807,-4.6271,-4.6232,-4.5807,-4.5914,-4.5968,-4.5963,-4.5829,-4.608,-4.6487,-4.5989,-4.6078,-4.6426,-4.6,-4.5807,-4.5807,-4.5807,-4.6078,-4.6464,-4.6464,-4.7038,-4.7787,-4.7831,-4.8128,-4.8528,-4.8483,-4.8805,-4.9082,-4.8672,-4.8841,-4.9279,-4.975,-4.9882,-5.0127,-5.1057,-5.1299,-5.1362,-5.1406,-5.1406,-5.1406,-5.1406,-5.1406,-5.1406,-5.1406,-5.1094,-5.0547,-4.9687,-4.918,-4.875,-4.832,-4.7461,-4.6953,-4.6953,-4.6562,-4.6289,-4.6289,-4.6289,-4.6289,-4.6289,-4.6289,-4.6289,-4.6289,-4.6289,-4.6288,-4.6243,-4.6242,-4.6191,-4.6147,-4.6147,-4.6115,-4.6035,-4.6035,-4.6008,-5.5703,-5.6973,-5.8858,-6.1089,-6.1216,0.0,-6.1716,-6.132,-6.0781,-6.0781,-6.0781,-6.0473,-5.9473,-5.9281,-5.8742,-5.706,-5.6791,-5.6483,-5.5588,-5.5357,-5.4972,-5.4164,-5.328,-5.2779,-5.2779,-5.1511,-5.1,-5.1732,-5.0506,-4.9663,-4.9581,-4.8786,-4.8269,-4.8191,-4.8043,-4.7579,-4.6883,-4.6883,-4.6503,-4.5807,-4.5807,-4.5807,-4.5807,-4.5807,-4.5807,-4.5807,-4.5807,-4.5807,-4.5807,-4.5807,-4.5807,-4.5807,-4.5807,-4.5807,-4.5807,-4.5807,-4.5807,-4.5807,-4.5807,-4.6271,-4.6883,-4.6883,-4.696,-4.7192,-4.7773,-4.8275,-4.8568,-4.8334,-4.8875,-4.9565,-4.961,-4.9638,-4.9841,-5.075,-5.1115,-5.1249,-5.1168,-5.1171,-5.1172,-5.1172,-5.1172,-5.1133,-5.0976,-5.043,-4.9687,-4.8828,-4.8672,-4.8359,-4.75,-4.7383,-4.7109,-4.6367,-4.6289,-4.6289,-4.6289,-4.6289,-4.6289,-4.6289,-4.6289,-4.6289,-4.6289,-4.6289,-4.6289,-4.6289,-4.6289,-4.6287,-4.6231,-4.6231,-4.6173,-4.6118,-4.6118,-4.6112,-5.5703,0.0,-5.855,0.0,-6.0319,-6.0819,0.0,0.0,-6.0781,-6.0781,-6.0781,-6.0319,-5.8742,-5.8473,-5.7896,-5.6165,-5.5857,-5.5588,-5.478,-5.401,-5.3203,-5.2346,-5.1548,-5.102,-5.102,-5.0827,-5.076,-5.0875,-5.0682,-5.0248,-4.9563,-4.8753,-4.799,-4.7303,-4.652,-4.6078,-4.5962,-4.5962,-4.5923,-4.5807,-4.5807,-4.5807,-4.5807,-4.5807,-4.5807,-4.5807,-4.5807,-4.5807,-4.5807,-4.5807,-4.5807,-4.5807,-4.5807,-4.5807,-4.5807,-4.5807,-4.5807,-4.5807,-4.5807,-4.5884,-4.5962,-4.5962,-4.6464,-4.696,-4.6348,-4.7734,-4.9204,-4.7724,-4.7918,-4.8583,-4.8604,-4.8611,-4.8839,-4.9771,-5.0581,-5.0952,-5.031,-5.0268,-5.0351,-5.0351,-5.0351,-5.0117,-4.9375,-4.9141,-4.8789,-4.7891,-4.7773,-4.7461,-4.6601,-4.6484,-4.6445,-4.6328,-4.6289,-4.6289,-4.6289,-4.6289,-4.6289,-4.6289,-4.6289,-4.6289,-4.6289,-4.6289,-4.6289,-4.6289,-4.6289,-4.6289,-4.6289,-4.6289,-4.6244,-4.6175,-4.6175,-4.6153,-5.6291,-5.6973,-5.7896,0.0,-5.9781,-6.0204,-6.0704,-6.0781,-6.0781,-6.0781,-6.0781,-6.0281,-5.8627,-5.7896,-5.7165,-5.5895,-5.5703,-5.5434,-5.4626,-5.4164,-5.3433,-5.2038,-5.1587,-5.1202,-5.075,-5.0712,-5.0712,-5.0712,-4.9798,-4.9133,-4.8804,-4.7546,-4.6692,-4.6329,-4.5981,-4.581,-4.581,-4.5793,-4.5807,-4.5807,-4.5807,-4.5807,-4.5807,-4.5807,-4.5807,-4.5807,-4.5807,-4.5807,-4.5807,-4.5807,-4.5807,-4.5807,-4.5807,-4.5807,-4.5807,-4.5807,-4.5807,-4.5807,-4.5807,-4.5807,-4.5807,-4.5807,-4.6078,-4.631,-4.5923,-4.6922,-4.8198,-4.7927,-4.7734,-4.7889,-4.8856,-4.8392,-4.791,-4.8786,-4.9329,-4.9409,-4.86,-4.9286,-4.9954,-4.9531,-4.9453,-4.918,-4.832,-4.8164,-4.7891,-4.6992,-4.6875,-4.6719,-4.6367,-4.6289,-4.6289,-4.6289,-4.6289,-4.6289,-4.6289,-4.6289,-4.6289,-4.6289,-4.6289,-4.6289,-4.6289,-4.6289,-4.6289,-4.6289,-4.6289,-4.6289,-4.6289,-4.6289,-4.6288,-4.6245,-4.6245,-4.624,0.0,0.0,-5.7291,-5.855,-5.9011,-5.9435,0.0,0.0,-6.0512,-6.0742,-6.0627,-6.0089,-5.8858,-5.7896,-5.6973,-5.5857,-5.5703,-5.5318,-5.4318,-5.4164,-5.3549,-5.1818,-5.1587,-5.1356,-5.075,-5.0712,-5.0712,-5.0712,-4.9279,-4.8365,-4.817,-4.6801,-4.5902,-4.5711,-4.575,-4.5773,-4.5788,-4.5786,-4.5807,-4.5807,-4.5807,-4.5807,-4.5807,-4.5807,-4.5807,-4.5807,-4.5807,-4.5807,-4.5807,-4.5807,-4.5807,-4.5807,-4.5807,-4.5807,-4.5807,-4.5807,-4.5923,-4.6116,-4.6116,-4.6271,-4.6464,-4.6464,-4.631,-4.6116,-4.6116,-4.6728,-4.7579,-4.8237,-4.7927,-4.7734,-4.9049,-4.8237,-4.727,-4.7927,-4.8289,-4.8266,-4.7427,-4.8379,-4.9157,-4.8356,-4.8398,-4.8281,-4.7422,-4.7266,-4.7031,-4.6406,-4.6289,-4.6289,-4.6289,-4.6289,-4.6289,-4.6289,-4.6289,-4.6289,-4.6289,-4.6289,-4.6289,-4.6289,-4.6289,-4.6406,-4.6601,-4.6406,-4.6406,-4.6641,-4.6406,-4.6289,-4.6289,-4.6289,-4.6289,-4.6289,-4.6289,-4.6289,0.0,-5.6368,0.0,-5.7099,-5.7742,-5.8588,0.0,0.0,-5.9819,-6.0627,-6.0127,-5.955,-5.9435,-5.8781,-5.7665,-5.5972,-5.5703,-5.5126,-5.351,-5.328,-5.2626,-5.0981,-5.075,-5.075,-5.0712,-5.0712,-5.0712,-5.0712,-4.9856,-4.8971,-4.8163,-4.7323,-4.6502,-4.5701,-4.5703,-4.575,-4.5788,-4.5786,-4.5807,-4.5807,-4.5807,-4.5807,-4.5807,-4.5807,-4.5807,-4.5807,-4.5807,-4.5807,-4.5807,-4.5807,-4.5807,-4.5807,-4.5807,-4.5807,-4.5807,-4.5807,-4.631,-4.7038,-4.7038,-4.7579,-4.8275,-4.8275,-4.7695,-4.7038,-4.7038,-4.7657,-4.8353,-4.8392,-4.8353,-4.8353,-4.843,-4.7773,-4.7115,-4.7154,-4.7819,-4.8212,-4.7544,-4.7518,-4.7356,-4.6498,-4.7065,-4.7383,-4.6523,-4.6367,-4.6367,-4.6328,-4.6289,-4.6289,-4.6289,-4.6289,-4.6289,-4.6289,-4.6289,-4.6289,-4.6289,-4.6289,-4.6289,-4.6289,-4.6289,-4.668,-4.75,-4.6758,-4.668,-4.7539,-4.6719,-4.6289,-4.6289,-4.6289,-4.6289,-4.6289,-4.6289,-4.6289,0.0,0.0,0.0,-5.6868,-5.7253,-5.7703,-5.855,-5.8742,-5.8973,-5.9781,-5.9704,-5.9358,-5.8819,-5.805,-5.7242,-5.6637,-5.6049,-5.5318,-5.4203,-5.4049,-5.3395,-5.1664,-5.1471,-5.1279,-5.075,-5.0712,-5.0481,-4.9894,-4.9048,-4.8202,-4.7355,-4.6527,-4.592,-4.5659,-4.5662,-4.5719,-4.5788,-4.5803,-4.5778,-4.5807,-4.5807,-4.5807,-4.5807,-4.5807,-4.5807,-4.5807,-4.5807,-4.5807,-4.5807,-4.5807,-4.5807,-4.5807,-4.5807,-4.6155,-4.6612,-4.6612,-4.7192,-4.7927,-4.7927,-4.8121,-4.8392,-4.8392,-4.8198,-4.7927,-4.7927,-4.8159,-4.8392,-4.8392,-4.8005,-4.7579,-4.7579,-4.6922,-4.6426,-4.696,-4.7347,-4.7654,-4.7985,-4.8093,-4.7766,-4.6446,-4.6933,-4.7256,-4.6445,-4.6289,-4.6289,-4.6289,-4.6289,-4.6289,-4.6289,-4.6289,-4.6289,-4.6289,-4.6289,-4.6289,-4.6289,-4.6289,-4.6289,-4.6289,-4.6289,-4.6445,-4.6758,-4.6484,-4.6445,-4.6758,-4.6445,-4.6289,-4.6289,-4.6289,-4.6289,-4.6289,-4.6289,-4.6289,-5.5703,0.0,0.0,0.0,-5.6791,-5.6857,-5.805,-5.8088,-5.8088,-5.8934,-5.9088,-5.8934,-5.8396,-5.7588,-5.6907,-5.6599,-5.6329,-5.5742,-5.4664,-5.4511,-5.3972,-5.25,-5.2346,-5.201,-5.1164,-5.1087,-5.0741,-4.9894,-4.9048,-4.8163,-4.7355,-4.6509,-4.5893,-4.5594,-4.5676,-4.5726,-4.5781,-4.5758,-4.5781,-4.5764,-4.5778,-4.5778,-4.5764,-4.5778,-4.5778,-4.5764,-4.5764,-4.5778,-4.5807,-4.5807,-4.5962,-4.6232,-4.6232,-4.6767,-4.754,-4.754,-4.8082,-4.8856,-4.8856,-4.901,-4.9243,-4.9243,-4.9049,-4.8856,-4.8856,-4.8856,-4.8856,-4.8856,-4.8198,-4.754,-4.754,-4.6883,-4.6464,-4.7308,-4.7773,-4.8043,-4.8353,-4.8464,-4.8204,-4.7161,-4.7468,-4.7687,-4.7168,-4.7101,-4.7105,-4.7105,-4.7148,-4.707,-4.6758,-4.6758,-4.6601,-4.6328,-4.6289,-4.6289,-4.6289,-4.6289,-4.6289,-4.6289,-4.6289,-4.6445,-4.6719,-4.6445,-4.6445,-4.6719,-4.6445,-4.6289,-4.6289,-4.6289,-4.6289,-4.6289,-4.6289,-4.6289,0.0,0.0,0.0,-5.6753,-5.6329,-5.6126,-5.7857,-5.755,-5.7214,-5.8088,-5.828,-5.828,-5.828,-5.7588,-5.6753,-5.5857,-5.6406,-5.6406,-5.4741,-5.4549,-5.4203,-5.3356,-5.3241,-5.2895,-5.2,-5.1923,-5.1587,-5.075,-4.9933,-4.9048,-4.8163,-4.7355,-4.6509,-4.5633,-4.5676,-4.5701,-4.5701,-4.5703,-4.5688,-4.5688,-4.5765,-4.5765,-4.5688,-4.5765,-4.5765,-4.5688,-4.5688,-4.5734,-4.5838,-4.5838,-4.6341,-4.7115,-4.7115,-4.7657,-4.843,-4.843,-4.8972,-4.9745,-4.9745,-5.0241,-5.0898,-5.0898,-5.0357,-4.9745,-4.9745,-4.9745,-4.9745,-4.9707,-4.9088,-4.843,-4.8392,-4.7773,-4.7347,-4.8237,-4.9088,-4.9475,-4.8662,-4.8535,-4.8544,-4.851,-4.8555,-4.8612,-4.8616,-4.8641,-4.8714,-4.8716,-4.8821,-4.8594,-4.7734,-4.7656,-4.7305,-4.6445,-4.6328,-4.6328,-4.6328,-4.6328,-4.6367,-4.6367,-4.6367,-4.6719,-4.7578,-4.6758,-4.6719,-4.7539,-4.6719,-4.6289,-4.6289,-4.6289,-4.6289,-4.6289,-4.6328,-4.6328,-5.5703,0.0,0.0,0.0,0.0,0.0,-5.6319,-5.6242,-5.6319,-5.7176,-5.7368,-5.7368,-5.7368,-5.7665,-5.7434,-5.5934,-5.5895,-5.5895,-5.5434,-5.5357,-5.5049,-5.4241,-5.4126,-5.3818,-5.2933,-5.2856,-5.2241,-5.0827,-5.0481,-4.9663,-4.8202,-4.7355,-4.6509,-4.5633,-4.5603,-4.5667,-4.5701,-4.5709,-4.5695,-4.5688,-4.5735,-4.5735,-4.5688,-4.5735,-4.5735,-4.5688,-4.5688,-4.6082,-4.6677,-4.6715,-4.6885,-4.7155,-4.7804,-4.8585,-4.9359,-4.9359,-4.9861,-5.055,-5.055,-5.0705,-5.0898,-5.0898,-5.0743,-5.055,-5.055,-5.055,-5.0434,-4.9861,-4.9513,-4.9204,-4.8546,-4.8237,-4.8275,-4.9126,-4.9513,-4.9784,-5.0124,-5.024,-4.991,-4.8726,-4.9038,-4.9274,-4.8686,-4.8635,-4.8629,-4.8673,-4.8725,-4.87,-4.8554,-4.8555,-4.8203,-4.7344,-4.7226,-4.7226,-4.7226,-4.7226,-4.75,-4.8125,-4.7578,-4.7344,-4.7578,-4.6758,-4.6406,-4.6641,-4.6406,-4.6289,-4.6289,-4.6289,-4.6289,-4.6328,-4.6953,-4.6914,-5.5703,-5.5703,-5.578,-5.6165,0.0,0.0,-5.6165,-5.5972,-5.5818,-5.6368,-5.6483,-5.6483,-5.6483,-5.6857,-5.6896,-5.5857,-5.5703,-5.5703,-5.5703,-5.5703,-5.5511,-5.5049,-5.5011,-5.4664,-5.3818,-5.3741,-5.3203,-5.1856,-5.1395,-5.0433,-4.874,-4.7855,-4.7009,-4.6163,-4.6124,-4.5988,-4.5667,-4.5676,-4.5646,-4.5671,-4.5687,-4.5687,-4.5671,-4.5687,-4.588,-4.6202,-4.6202,-4.6664,-4.7474,-4.791,-4.8097,-4.8152,-4.8678,-4.9381,-5.0162,-5.0178,-5.0488,-5.0921,-5.089,-5.0898,-5.0898,-5.0898,-5.0898,-5.0898,-5.0898,-5.0898,-5.0782,-5.0318,-4.9977,-4.9591,-4.9088,-4.8933,-4.9165,-5.0016,-5.021,-5.0318,-5.0782,-5.0898,-5.0619,-4.9691,-4.9905,-5.0119,-4.9648,-4.9624,-4.9672,-4.9687,-4.9721,-4.9635,-4.9348,-4.9324,-4.9018,-4.8158,-4.8124,-4.8125,-4.8125,-4.7812,-4.7812,-4.832,-4.7891,-4.7422,-4.707,-4.6914,-4.6836,-4.6836,-4.6836,-4.6836,-4.6836,-4.6484,-4.6289,-4.6328,-4.6836,-4.6797,-5.5703,-5.5703,-5.5895,-5.6665,-5.628,0.0,-5.6676,-5.6252,-5.5703,-5.5703,-5.5703,-5.5703,-5.5703,-5.5703,-5.5703,-5.5703,-5.5703,-5.5703,-5.5703,-5.5703,-5.5703,-5.5703,-5.5703,-5.5434,-5.4703,-5.4626,-5.428,-5.3395,-5.2462,-5.1192,-4.9625,-4.8702,-4.7855,-4.7038,-4.7038,-4.6663,-4.5902,-4.5787,-4.5748,-4.5748,-4.5714,-4.5667,-4.5594,-4.5753,-4.6206,-4.6885,-4.7,-4.7509,-4.8317,-4.9133,-4.9486,-4.9521,-4.9607,-5.0117,-5.0821,-5.0863,-5.0872,-5.088,-5.0921,-5.089,-5.089,-5.0898,-5.0898,-5.0898,-5.0898,-5.0898,-5.0898,-5.0898,-5.0395,-4.9823,-4.9823,-4.9823,-5.0016,-5.0743,-5.0898,-5.0898,-5.0898,-5.0898,-5.0898,-5.0898,-5.0898,-5.0898,-5.0898,-5.1016,-5.1068,-5.108,-5.1133,-5.0918,-5.0143,-5.0085,-4.9803,-4.8944,-4.8937,-4.9023,-4.9023,-4.832,-4.793,-4.8008,-4.793,-4.75,-4.6601,-4.7344,-4.7695,-4.7617,-4.7695,-4.7734,-4.7734,-4.6875,-4.6445,-4.6445,-4.6641,-4.668,-5.5703,-5.5703,-5.5742,-5.5895,-5.5818,0.0,-5.5895,-5.5818,-5.5703,-5.5703,-5.5703,-5.5703,-5.5703,-5.5703,-5.5703,-5.5703,-5.5703,-5.5703,-5.5703,-5.5703,-5.5703,-5.5703,-5.5703,-5.5626,-5.5472,-5.5472,-5.5126,-5.4318,-5.2779,-5.1471,-5.0519,-4.9625,-4.874,-4.7894,-4.7855,-4.7778,-4.7625,-4.6971,-4.6663,-4.6624,-4.595,-4.5603,-4.5633,-4.6326,-4.6749,-4.6923,-4.7586,-4.8355,-4.9163,-4.9327,-4.9441,-4.9563,-5.0263,-5.0666,-5.0782,-5.0829,-5.0829,-5.0838,-5.088,-5.0888,-5.0897,-5.089,-5.0898,-5.0898,-5.0898,-5.0898,-5.0898,-5.0898,-5.0782,-5.0666,-5.0666,-5.0666,-5.0705,-5.0859,-5.0898,-5.0898,-5.0898,-5.0898,-5.0898,-5.0898,-5.0898,-5.0898,-5.0898,-5.0929,-5.0988,-5.1068,-5.1103,-5.1074,-5.0957,-5.0942,-5.0637,-4.9776,-4.9757,-4.9783,-4.9783,-4.9723,-4.9961,-5.0625,-5.0039,-4.9297,-4.8437,-4.8555,-4.832,-4.7617,-4.8281,-4.8633,-4.8633,-4.7773,-4.7344,-4.7383,-4.8789,-4.9062,-5.5703,-5.6011,-5.6252,-5.5818,-5.6011,0.0,0.0,-5.5703,-5.5703,-5.5703,-5.5703,-5.5703,-5.5703,-5.5703,-5.5703,-5.5703,-5.5703,-5.5703,-5.5703,-5.5703,-5.5703,-5.5703,-5.5703,-5.5703,-5.5703,-5.5703,-5.5357,-5.4549,-5.3703,-5.2818,-5.1972,-5.1125,-5.0279,-4.9433,-4.8971,-4.8548,-4.8086,-4.7702,-4.7509,-4.7509,-4.7048,-4.6855,-4.6855,-4.7317,-4.774,-4.8163,-4.8586,-4.924,-5.0048,-5.0048,-5.0067,-5.0125,-5.0586,-5.0749,-5.0749,-5.0729,-5.0738,-5.0747,-5.0838,-5.0863,-5.0888,-5.0905,-5.0882,-5.0898,-5.0898,-5.0898,-5.0898,-5.0898,-5.0898,-5.0898,-5.0898,-5.0898,-5.0898,-5.0898,-5.1215,-5.1563,-5.1563,-5.1873,-5.2066,-5.1641,-5.1563,-5.1409,-5.0975,-5.0898,-5.0929,-5.1009,-5.1016,-5.1004,-5.1035,-5.1097,-5.0972,-5.0544,-5.0548,-5.0592,-5.0592,-5.0287,-5.0109,-5.007,-5.0155,-4.9609,-4.832,-4.9101,-4.9336,-4.8906,-4.9336,-4.9531,-4.9531,-4.9101,-4.8672,-4.8281,-4.9141,-4.9336,-5.5934,-5.6599,-5.7099,-5.6395,-5.6588,-5.683,0.0,0.0,0.0,-5.5703,-5.5703,0.0,0.0,0.0,0.0,-5.5703,0.0,0.0,0.0,-5.5703,0.0,-5.5703,-5.5703,-5.5703,-5.5703,-5.5703,-5.5434,-5.478,-5.4587,-5.4203,-5.351,-5.2615,-5.1856,-5.1202,-5.0356,-4.9548,-4.8856,-4.8509,-4.8355,-4.8355,-4.8202,-4.8086,-4.8125,-4.8279,-4.874,-4.9394,-4.9586,-5.0048,-5.0712,-5.0712,-5.0712,-5.0712,-5.0712,-5.0712,-5.0712,-5.0712,-5.0682,-5.0692,-5.0747,-5.0829,-5.0855,-5.0863,-5.0897,-5.089,-5.0898,-5.0898,-5.0898,-5.0898,-5.0898,-5.0898,-5.0898,-5.0898,-5.0898,-5.0898,-5.1563,-5.219,-5.219,-5.2879,-5.3304,-5.2577,-5.2306,-5.1912,-5.1053,-5.0898,-5.0898,-5.0898,-5.0898,-5.0898,-5.0898,-5.097,-5.1043,-5.1043,-5.1118,-5.1174,-5.1174,-5.0586,-4.9916,-4.9211,-4.9945,-4.9682,-4.812,-4.9412,-5.0233,-5.0428,-5.0429,-5.043,-5.043,-5.043,-5.0,-4.9141,-4.9297,-4.9375,-5.6868,-5.7473,-5.8127,-5.805,-5.7511,-5.6983,-5.6868,0.0,-5.5703,-5.5703,0.0,-5.5703,-5.5703,0.0,0.0,-5.5703,-5.5703,0.0,-5.5703,-5.5703,-5.5703,-5.5703,-5.5703,-5.5703,-5.5703,-5.5703,-5.5665,-5.5549,-5.4895,-5.4472,-5.4357,-5.3549,-5.301,-5.2933,-5.2077,-5.1577,-5.1462,-5.001,-4.924,-4.924,-4.8471,-4.8086,-4.8125,-4.8894,-4.9317,-4.9433,-5.0212,-5.0596,-5.0712,-5.0712,-5.0712,-5.0712,-5.0712,-5.0712,-5.0712,-5.0712,-5.0712,-5.0683,-5.0692,-5.071,-5.072,-5.0773,-5.0855,-5.0897,-5.089,-5.0898,-5.0898,-5.0898,-5.0898,-5.0898,-5.0898,-5.0898,-5.0898,-5.0898,-5.1563,-5.219,-5.219,-5.2879,-5.3459,-5.3382,-5.2732,-5.1912,-5.1053,-5.0898,-5.0898,-5.0898,-5.0898,-5.0898,-5.0898,-5.0914,-5.0929,-5.0929,-5.1024,-5.1103,-5.1103,-5.1087,-5.102,-5.0903,-5.1027,-5.0641,-4.9662,-4.9874,-5.0404,-5.1146,-5.1247,-5.125,-5.125,-5.125,-5.0859,-5.0078,-5.0781,-5.1133,-5.7137,-5.7973,-5.8896,-5.8434,-5.8396,-5.8319,-5.7857,-5.7088,-5.6445,-5.6445,0.0,0.0,0.0,0.0,0.0,0.0,-5.5703,-5.5703,0.0,0.0,-5.5703,-5.5703,0.0,0.0,-5.5703,-5.5703,-5.5703,-5.5703,-5.5395,-5.5203,-5.5203,-5.4395,-5.3933,-5.3933,-5.3126,-5.2423,-5.1885,-5.1192,-5.0625,-5.0164,-4.9779,-4.9625,-4.9625,-4.9971,-5.0164,-5.0164,-5.0558,-5.0712,-5.0712,-5.0712,-5.0712,-5.0712,-5.0712,-5.0712,-5.0712,-5.0712,-5.0712,-5.0712,-5.0693,-5.0712,-5.071,-5.0764,-5.0829,-5.0846,-5.0825,-5.0888,-5.0905,-5.0905,-5.0882,-5.0898,-5.0898,-5.0898,-5.1014,-5.1525,-5.2337,-5.3072,-5.3614,-5.4349,-5.4813,-5.4349,-5.3536,-5.2685,-5.1796,-5.1215,-5.0898,-5.0898,-5.0898,-5.0898,-5.0898,-5.0898,-5.0898,-5.0898,-5.0959,-5.0963,-5.0963,-5.1092,-5.0923,-5.0413,-5.043,-5.0498,-5.0654,-5.0686,-5.0859,-5.1249,-5.1301,-5.1356,-5.1356,-5.1366,-5.1211,-5.0898,-5.125,-5.1406,-5.7857,-5.8742,-5.9704,-5.9127,-5.9242,-5.9358,-5.8781,-5.7973,-5.7368,-5.7368,-5.6665,0.0,0.0,0.0,-5.5703,-5.5703,0.0,-5.5703,-5.5703,-5.5703,0.0,-5.5703,-5.5703,0.0,0.0,-5.5703,-5.5703,-5.5703,-5.5703,-5.5703,-5.5703,-5.5164,-5.4818,-5.4818,-5.401,-5.3241,-5.2615,-5.2154,-5.1625,-5.101,-5.0827,-5.0712,-5.0712,-5.0712,-5.0712,-5.0712,-5.0712,-5.0712,-5.0712,-5.0712,-5.0712,-5.0712,-5.0712,-5.0712,-5.0712,-5.0712,-5.0712,-5.0712,-5.0712,-5.0693,-5.073,-5.0738,-5.0756,-5.0764,-5.0773,-5.0838,-5.0902,-5.1151,-5.1059,-5.1006,-5.1478,-5.1246,-5.1169,-5.2298,-5.3033,-5.373,-5.4619,-5.5432,-5.5818,-5.5238,-5.4426,-5.3575,-5.2732,-5.1834,-5.1254,-5.1254,-5.1254,-5.1254,-5.1254,-5.1053,-5.0898,-5.0898,-5.0898,-5.0898,-5.0898,-5.1009,-5.0791,-5.0125,-5.0137,-5.0573,-5.1434,-5.1502,-5.1516,-5.1516,-5.1596,-5.1511,-5.1277,-5.1356,-5.1365,-5.1365,-5.1406,-5.1406,-5.9435,-6.0089,-6.0742,-6.0742,-6.0089,-5.9473,-5.9473,-5.8858,-5.828,-5.828,-5.755,-5.6945,-5.6945,-5.6291,-5.5703,-5.5703,-5.5703,0.0,0.0,-5.5703,-5.5703,-5.5703,-5.5703,0.0,0.0,-5.5703,-5.5703,0.0,-5.5703,-5.5703,-5.5703,-5.5665,-5.5665,-5.5665,-5.4895,-5.4434,-5.4434,-5.2731,-5.1885,-5.1846,-5.1087,-5.0712,-5.0712,-5.0712,-5.0712,-5.0712,-5.0712,-5.0712,-5.0712,-5.0712,-5.0712,-5.0712,-5.0712,-5.0712,-5.0712,-5.0712,-5.0712,-5.0712,-5.0712,-5.0712,-5.0721,-5.0682,-5.0701,-5.071,-5.0764,-5.0782,-5.0984,-5.1837,-5.1498,-5.1283,-5.2987,-5.2144,-5.1323,-5.3033,-5.3459,-5.373,-5.4619,-5.5432,-5.6012,-5.5973,-5.5316,-5.4465,-5.3614,-5.2724,-5.2152,-5.2152,-5.2152,-5.2152,-5.2152,-5.1409,-5.0898,-5.0898,-5.0898,-5.0898,-5.0898,-5.0906,-5.0906,-5.0867,-5.0875,-5.127,-5.2129,-5.2227,-5.2257,-5.2257,-5.2402,-5.2056,-5.1207,-5.1274,-5.1299,-5.1299,-5.1364,-5.1406,-5.9511,-6.0127,-6.0781,-6.0781,-6.0589,-6.0358,-6.0358,-5.9704,-5.9088,-5.9088,-5.8434,-5.7665,-5.7099,-5.6753,-5.6368,-5.578,-5.5703,-5.5703,0.0,-5.5703,-5.5703,-5.5703,-5.5703,-5.5703,0.0,0.0,0.0,-5.5703,-5.5703,-5.5703,-5.5703,-5.5703,-5.5703,-5.5703,-5.5434,-5.5049,-5.4511,-5.3356,-5.2462,-5.1885,-5.1087,-5.0712,-5.0712,-5.0712,-5.0712,-5.0712,-5.0712,-5.0712,-5.0712,-5.0712,-5.0712,-5.0712,-5.0712,-5.0712,-5.0712,-5.0712,-5.0712,-5.0712,-5.0712,-5.0712,-5.0712,-5.0693,-5.1077,-5.1491,-5.1511,-5.1549,-5.1769,-5.2636,-5.1892,-5.1078,-5.2279,-5.2133,-5.1987,-5.3219,-5.3923,-5.4581,-5.5432,-5.5818,-5.6012,-5.6012,-5.5354,-5.4697,-5.4426,-5.4116,-5.3536,-5.2384,-5.219,-5.219,-5.219,-5.1447,-5.0898,-5.0898,-5.0898,-5.0898,-5.0898,-5.0898,-5.113,-5.1718,-5.1215,-5.1563,-5.2995,-5.2547,-5.2499,-5.308,-5.2634,-5.223,-5.1924,-5.1476,-5.1263,-5.1297,-5.1309,-5.1361,-5.9511,-6.0127,-6.0781,-6.0781,-6.0781,-6.0781,-6.0781,-6.0358,-5.9973,-5.9973,-5.9319,-5.8473,-5.7627,-5.7214,-5.6714,-5.5818,-5.5703,-5.5703,0.0,-5.5703,-5.5703,-5.5703,-5.5703,-5.5703,0.0,0.0,-5.5703,-5.5703,-5.5703,-5.5703,-5.5703,-5.5703,-5.5703,-5.5703,-5.5703,-5.5434,-5.4934,-5.4087,-5.3395,-5.2818,-5.1664,-5.1125,-5.1125,-5.0827,-5.0712,-5.0712,-5.0712,-5.0712,-5.0712,-5.0712,-5.0856,-5.1087,-5.0827,-5.0856,-5.1087,-5.0827,-5.0712,-5.075,-5.101,-5.0933,-5.0712,-5.0712,-5.1048,-5.1548,-5.1808,-5.1914,-5.2136,-5.3051,-5.254,-5.1883,-5.2794,-5.2773,-5.2859,-5.4108,-5.4581,-5.5006,-5.5818,-5.6012,-5.6012,-5.6012,-5.5586,-5.5122,-5.4851,-5.5045,-5.4735,-5.3343,-5.3111,-5.3111,-5.3111,-5.2105,-5.137,-5.137,-5.1091,-5.0898,-5.0898,-5.1169,-5.1602,-5.2152,-5.1679,-5.2144,-5.3884,-5.3111,-5.3188,-5.4387,-5.3289,-5.2725,-5.2725,-5.1686,-5.1183,-5.1236,-5.1282,-5.1309]},{"header":{"parameterUnit":"m.s-1","parameterCategory":1,"la1":30.6,"la2":29.2853,"lo1":-89.7004,"lo2":-87.6739,"dy":0.0162,"dx":0.0183,"nx":112,"ny":82,"refTime":"2024-02-09T18:00:00:Z","depth":0,"parameterNumber":3,"parameterNumberName":"V-component_of_WINDS"},"data":[0.0,0.0,0.0,0.0,0.0,0.0,0.0,0.0,0.0,0.0,0.0,0.0,0.0,0.0,0.0,0.0,0.0,0.0,0.0,0.0,0.0,0.0,0.0,0.0,0.0,0.0,0.0,0.0,0.0,0.0,0.0,0.0,0.0,0.0,0.0,0.0,0.0,0.0,0.0,0.0,0.0,0.0,0.0,0.0,0.0,0.0,0.0,0.0,0.0,0.0,0.0,0.0,0.0,0.0,0.0,0.0,0.0,0.0,0.0,0.0,0.0,0.0,0.0,0.0,0.0,0.0,0.0,0.0,0.0,0.0,0.0,0.0,0.0,0.0,0.0,0.0,0.0,0.0,0.0,0.0,0.0,0.0,0.0,0.0,0.0,0.0,0.0,0.0,0.0,0.0,0.1439,0.1783,0.2022,0.22,0.22,0.2069,0.1947,0.1809,0.0,0.0,0.0,0.0,0.0,0.0,0.0,0.0,0.0,0.0,0.0,0.0,0.0,0.0,0.0,0.0,0.0,0.0,0.0,0.0,0.0,0.0,0.0,0.0,0.0,0.0,0.0,0.0,0.0,0.0,0.0,0.0,0.0,0.0,0.0,0.0,0.0,0.0,0.0,0.0,0.0,0.0,0.0,0.0,0.0,0.0,0.0,0.0,0.0,0.0,0.0,0.0,0.0,0.0,0.0,0.0,0.0,0.0,0.0,0.0,0.0,0.0,0.0,0.0,0.0,0.0,0.0,0.0,0.0,0.0,0.0,0.0,0.0,0.0,0.0,0.0,0.0,0.0,0.0,0.0,0.0,0.0,0.0,0.0,0.0,0.0,0.0,0.0,0.0,0.0,0.0,0.0,0.0,0.0,0.0,0.0,0.0,0.0,0.0,0.0,0.0,0.0,0.0,0.0,0.1433,0.1837,0.199,0.2039,0.2039,0.1937,0.1827,0.1718,0.0,0.0,0.0,0.0,0.0,0.0,0.0,0.0,0.0,0.0,0.0,0.0,0.0,0.0,0.0,0.0,0.0,0.0,0.0,0.0,0.0,0.0,0.0,0.0,0.0,0.0,0.0,0.0,0.0,0.0,0.0,0.0,0.0,0.0,0.0,0.0,0.0,0.0,0.0,0.0,0.0,0.0,0.0,0.0,0.0,0.0,0.0,0.0,0.0,0.0,0.0,0.0,0.0,0.0,0.0,0.0,0.0,0.0,0.0,0.0,0.0,0.0,0.0,0.0,0.0,0.0,0.0,0.0,0.0,0.0,0.0,0.0,0.0,0.0,0.0,0.0,0.0,0.0,0.0,0.0,0.0,0.0,0.0,0.0,0.0,0.0,0.0,0.0,0.0,0.0,0.0,0.0,0.0,0.0,0.0,0.0,0.0,0.0,0.0,0.0,0.0,0.0,0.0,0.1466,0.1664,0.1939,0.1993,0.2012,0.1997,0.1915,0.1812,0.1689,0.1666,0.0,0.0,0.0,0.0,0.0,0.0,0.0,0.0,0.0,0.0,0.0,0.0,0.0,0.0,0.0,0.0,0.0,0.0,0.0,0.0,0.0,0.0,0.0,0.0,0.0,0.0,0.0,0.0,0.0,0.0,0.0,0.0,0.0,0.0,0.0,0.0,0.0,0.0,0.0,0.0,0.0,0.0,0.0,0.0,0.0,0.0,0.0,0.0,0.0,0.0,0.0,0.0,0.0,0.0,0.0,0.0,0.0,0.0,0.0,0.0,0.0,0.0,0.0,0.0,0.0,0.0,0.0,0.0,0.0,0.0,0.0,0.0,0.0,0.0,0.0,0.0,0.0,0.0,0.0,0.0,0.0,0.0,0.0,0.0,0.0,0.0,0.0,0.0,0.0,0.0,0.0,0.0,0.0,0.0,0.0,0.0,0.0,0.0,0.0,0.0,0.0,0.0,0.1742,0.1825,0.1933,0.197,0.1975,0.1947,0.1888,0.1795,0.166,0.1615,0.0,0.0,0.0,0.0,0.0,0.0,0.0,0.0,0.0,0.0,0.0,0.0,0.0,0.0,0.0,0.0,0.0,0.0,0.0,0.0,0.0,0.0,0.0,0.0,0.0,0.0,0.0,0.0,0.0,0.0,0.0,0.0,0.0,0.0,0.0,0.0,0.0,0.0,0.0,0.0,0.0,0.0,0.0,0.0,0.0,0.0,0.0,0.0,0.0,0.0,0.0,0.0,0.0,0.0,0.0,0.0,0.0,0.0,0.0,0.0,0.0,0.0,0.0,0.0,0.0,0.0,0.0,0.0,0.0,0.0,0.0,0.0,0.0,0.0,0.0,0.0,0.0,0.0,0.0,0.0,0.0,0.0,0.0,0.0,0.0,0.0,0.0,0.0,0.0,0.0,0.0,0.0,0.0,0.0,0.0,0.0,0.0,0.0,0.0,0.0,0.0,0.0,0.1699,0.1778,0.1786,0.1877,0.1883,0.1795,0.1794,0.1773,0.1626,0.1565,0.0,0.0,0.0,0.0,0.0,0.0,0.0,0.0,0.0,0.0,0.0,0.0,0.0,0.0,0.0,0.0,0.0,0.0,0.0,0.0,0.0,0.0,0.0,0.0,0.0,0.0,0.0,0.0,0.0,0.0,0.0,0.0,0.0,0.0,0.0,0.0,0.0,0.0,0.0,0.0,0.0,0.0,0.0,0.0,0.0,0.0,0.0,0.0,0.0,0.0,0.0,0.0,0.0,0.0,0.0,0.0,0.0,0.0,0.0,0.0,0.0,0.0,0.0,0.0,0.0,0.0,0.0,0.0,0.0,0.0,0.0,0.0,0.0,0.0,0.0,0.0,0.0,0.0,0.0,0.0,0.0,0.0,0.0,0.0,0.0,0.0,0.0,0.0,0.0,0.0,0.0,0.0,0.0,0.0,0.0,0.0,0.0,0.0,0.0,0.0,0.0,0.0,0.1678,0.1745,0.1805,0.1823,0.1817,0.1786,0.1745,0.1684,0.1594,0.0,0.0,0.0,0.0,0.0,0.0,0.0,0.0,0.0,0.0,0.0,0.0,0.0,0.0,0.0,0.0,0.0,0.0,0.0,0.0,0.0,0.0,0.0,0.0,0.0,0.0,0.0,0.0,0.0,0.0,0.0,0.0,0.0,0.0,0.0,0.0,0.0,0.0,0.0,0.0,0.0,0.0,0.0,0.0,0.0,0.0,0.0,0.0,0.0,0.0,0.0,0.0,0.0,0.0,0.0,0.0,0.0,0.0,0.0,0.0,0.0,0.0,0.0,0.0,0.0,0.0,0.0,0.0,0.0,0.0,0.0,0.0,0.0,0.0,0.0,0.0,0.0,0.0,0.0,0.0,0.0,0.0,0.0,0.0,0.0,0.0,0.0,0.0,0.0,0.0,0.0,0.0,0.0,0.0,0.0,0.0,0.0,0.0,0.0,0.0,0.0,0.0,0.1543,0.1654,0.171,0.1761,0.1765,0.1755,0.1778,0.1685,0.1632,0.1561,0.0,0.0,0.0,0.0,0.0,0.0,0.0,0.0,0.0,0.0,0.0,0.0,0.0,0.0,0.0,0.0,0.0,0.0,0.0,0.0,0.0,0.0,0.0,0.0,0.0,0.0,0.0,0.0,0.0,0.0,0.0,0.0,0.0,0.0,0.0,0.0,0.0,0.0,0.0,0.0,0.0,0.0,0.0,0.0,0.0,0.0,0.0,0.0,0.0,0.0,0.0,0.0,0.0,0.0,0.0,0.0,0.0,0.0,0.0,0.0,0.0,0.0,0.0,0.0,0.0,0.0,0.0,0.0,0.0,0.0,0.0,0.0,0.0,0.0,0.0,0.0,0.0,0.0,0.0,0.0,0.0,0.0,0.0,0.0,0.0,0.0,0.0,0.0,0.0,0.0,0.0,0.0,0.0,0.0,0.0,0.0,0.0,0.0,0.0,0.0,0.0,0.0,0.1564,0.1674,0.1725,0.17,0.1704,0.1692,0.1717,0.1656,0.1607,0.0,0.0,0.0,0.0,0.0,0.0,0.0,0.0,0.0,0.0,0.0,0.0,0.0,0.0,0.0,0.0,0.0,0.0,0.0,0.0,0.0,0.0,0.0,0.0,0.0,0.0,0.0,0.0,0.0,0.0,0.0,0.0,0.0,0.0,0.0,0.0,0.0,0.0,0.0,0.0,0.0,0.0,0.0,0.0,0.0,0.0,0.0,0.0,0.0,0.0,0.0,0.0,0.0,0.0,0.0,0.0,0.0,0.0,0.0,0.0,0.0,0.0,0.0,0.0,0.0,0.0,0.0,0.0,0.0,0.0,0.0,0.0,0.0,0.0,0.0,0.0,0.0,0.0,0.0,0.0,0.0,0.0,0.0,0.0,0.0,0.0,0.0,0.0,0.0,0.0,0.0,0.0,0.0,0.0,0.0,0.0,0.0,0.0,0.0,0.0,0.0,0.0,0.0,0.1531,0.1592,0.1641,0.1671,0.2352,0.2799,0.2748,0.3329,0.3691,0.3667,0.0,0.0,0.0,0.0,0.0,0.0,0.0,0.0,0.0,0.0,0.0,0.0,0.0,0.0,0.0,0.0,0.0,0.0,0.0,0.0,0.0,0.0,0.0,0.0,0.0,0.0,0.0,0.0,0.0,0.0,0.0,0.0,0.0,0.0,0.0,0.0,0.0,0.0,0.0,0.0,0.0,0.0,0.0,0.0,0.0,0.0,0.0,0.0,0.0,0.0,0.0,0.0,0.0,0.0,0.0,0.0,0.0,0.0,0.0,0.0,0.0,0.0,0.0,0.0,0.0,0.0,0.0,0.0,0.0,0.0,0.0,0.0,0.0,0.0,0.0,0.0,0.0,0.0,0.0,0.0,0.0,0.0,0.0,0.0,0.0,0.0,0.0,0.0,0.0,0.0,0.0,0.0,0.0,0.0,0.0,0.0,0.0,0.0,0.0,0.0,0.0,0.0,0.15,0.1949,0.2262,0.2304,0.3278,0.3872,0.3827,0.4321,0.4622,0.4612,0.0,0.0,0.0,0.0,0.0,0.0,0.0,0.0,0.0,0.0,0.0,0.0,0.0,0.0,0.0,0.0,0.0,0.0,0.0,0.0,0.0,0.0,0.0,0.0,0.0,0.0,0.0,0.0,0.0,0.0,0.0,0.0,0.0,0.0,0.0,0.0,0.0,0.0,0.0,0.0,0.0,0.0,0.0,0.0,0.0,0.0,0.0,0.0,0.0,0.0,0.0,0.0,0.0,0.0,0.0,0.0,0.0,0.0,0.0,0.0,0.0,0.0,0.0,0.0,0.0,0.0,0.0,0.0,0.0,0.0,0.0,0.0,0.0,0.0,0.0,0.0,0.0,0.0,0.0,0.0,0.0,0.0,0.0,0.0,0.0,0.0,0.0,0.0,0.0,0.0,0.0,0.0,0.0,0.0,0.0,0.0,0.0,0.0,0.0,0.0,0.0,0.0,0.161,0.253,0.3248,0.3316,0.4325,0.4926,0.4926,0.4913,0.4901,0.4896,0.0,0.0,0.0,0.0,0.0,0.0,0.0,0.0,0.0,0.0,0.0,0.0,0.0,0.0,0.0,0.0,0.0,0.0,0.0,0.0,0.0,0.0,0.0,0.0,0.0,0.0,0.0,0.0,0.0,0.0,0.0,0.0,0.0,0.0,0.0,0.0,0.0,0.0,0.0,0.0,0.0,0.0,0.0,0.0,0.0,0.0,0.0,0.0,0.0,0.0,0.0,0.0,0.0,0.0,0.0,0.0,0.0,0.0,0.0,0.0,0.1104,0.0922,0.0,0.0,0.0,0.0,0.0,0.0,0.0,0.0,0.0,0.0,0.0,0.0,0.0,0.0,0.0,0.0,0.0,0.0,0.0,0.0,0.0,0.0,0.0,0.0,0.0,0.0,0.0,0.0,0.0,0.0,0.0,0.0,0.0,0.0,0.0,0.0,0.0,0.0,0.0,0.0,0.2657,0.2969,0.3488,0.436,0.5427,0.6082,0.6082,0.6692,0.7091,0.6985,0.6075,0.0,0.0,0.0,0.0,0.0,0.0,0.0,0.0,0.0,0.0,0.0,0.0,0.0,0.0,0.0,0.0,0.0,0.0,0.0,0.0,0.0,0.0,0.0,0.0,0.0,0.0,0.0,0.0,0.0,0.0,0.0,0.0,0.0,0.0,0.0,0.0,0.0,0.0,0.0,0.0,0.0,0.0,0.0,0.0,0.0,0.0,0.0,0.0,0.0,0.0,0.0,0.0,0.0,0.0,0.0,0.0,0.0,0.0,0.0,0.1484,0.1281,0.0,0.0,0.0,0.0,0.0,0.0,0.0,0.0,0.0,0.0,0.0,0.0,0.0,0.0,0.0,0.0,0.0,0.0,0.0,0.0,0.0,0.0,0.0,0.0,0.0,0.0,0.0,0.0,0.0,0.0,0.0,0.0,0.0,0.0,0.0,0.0,0.0,0.0,0.0,0.0,0.2929,0.3568,0.4294,0.5458,0.6531,0.7185,0.7185,0.7553,0.778,0.7706,0.7018,0.0,0.0,0.0,0.0,0.0,0.0,0.0,0.0,0.0,0.0,0.0,0.0,0.0,0.0,0.0,0.0,0.0,0.0,0.0,0.0,0.0,0.0,0.0,0.0,0.0,0.0,0.0,0.0,0.0,0.0,0.0,0.0,0.0,0.0,0.0,0.0,0.0,0.0,0.0,0.0,0.0,0.0,0.0,0.0,0.0,0.0,0.0,0.0,0.0,0.0,0.0,0.0,0.0,0.1907,0.1925,0.1925,0.1925,0.1922,0.1914,0.1864,0.1702,0.1384,0.1416,0.0,0.0,0.0,0.0,0.0,0.0,0.0,0.0,0.0,0.0,0.0,0.0,0.0,0.0,0.0,0.0,0.0,0.0,0.0,0.0,0.0,0.0,0.0,0.0,0.0602,0.0755,0.0536,0.0,0.0,0.0,0.0,0.0,0.0,0.0,0.0,0.0,0.0,0.0,0.3221,0.4328,0.5394,0.6531,0.7427,0.7921,0.7948,0.7882,0.7814,0.7814,0.7584,0.738,0.0,0.0,0.0,0.0,0.0,0.0,0.0,0.0,0.0,0.0,0.0,0.0,0.0,0.0,0.0,0.0,0.0,0.0,0.0,0.0,0.0,0.0,0.0,0.0,0.0,0.0,0.0,0.0,0.0,0.0,0.0,0.0,0.1778,0.1778,0.0,0.0,0.0,0.0,0.0,0.0,0.0,0.0,0.0,0.0,0.0,0.0,0.0,0.1767,0.1828,0.1915,0.1971,0.1996,0.2053,0.208,0.208,0.208,0.2065,0.2103,0.2095,0.0,0.1807,0.1778,0.0,0.0,0.0,0.0,0.0,0.0,0.0,0.0,0.0,0.0,0.0,0.0,0.0,0.0,0.0,0.0,0.0,0.0,0.0,0.0,0.0,0.0,0.0101,0.0051,0.0258,0.0517,0.0,0.0803,0.0824,0.0743,0.091,0.0,0.0,0.0,0.0,0.0,0.0,0.0,0.4332,0.5355,0.6412,0.7482,0.7637,0.7706,0.7828,0.7821,0.7814,0.7814,0.7773,0.7692,0.7543,0.7394,0.0,0.0,0.0,0.0,0.0,0.0,0.0,0.0,0.0,0.0,0.0,0.0,0.0,0.0,0.0,0.0,0.0,0.0,0.0,0.0,0.0,0.0,0.0,0.0,0.0,0.0,0.0,0.0,0.0,0.1778,0.1812,0.1725,0.1792,0.1778,0.0,0.0,0.0,0.0,0.0,0.0,0.0,0.0,0.0,0.185,0.191,0.1948,0.1966,0.2057,0.2108,0.2121,0.2165,0.2185,0.2185,0.2185,0.2178,0.2166,0.2166,0.2136,0.2079,0.1964,0.1881,0.1821,0.0,0.0,0.0,0.0,0.1574,0.158,0.1622,0.1564,0.1433,0.1551,0.0,0.0,0.0,0.0,0.0,0.0,0.0,0.0344,0.0,0.0,0.0457,0.0517,0.0727,0.0935,0.1039,0.1077,0.1103,0.0,0.1295,0.1374,0.1452,0.0,0.0,0.0,0.0,0.3393,0.4471,0.5514,0.6567,0.759,0.7706,0.7746,0.7807,0.7889,0.7887,0.7887,0.7862,0.778,0.7719,0.7577,0.7461,0.0,0.0,0.0,0.0,0.0,0.0,0.0,0.0,0.0,0.0,0.0,0.0,0.0,0.0,0.0,0.0,0.0,0.0,0.0,0.0,0.0,0.0,0.0,0.0,0.0,0.0,0.0,0.0,0.1805,0.1839,0.1716,0.1836,0.1847,0.0,0.0,0.0,0.0,0.0,0.0,0.1872,0.1889,0.1922,0.1975,0.2034,0.2079,0.211,0.2177,0.2219,0.2234,0.2241,0.2179,0.2258,0.2179,0.2175,0.2175,0.2175,0.2171,0.2222,0.2072,0.1979,0.1926,0.1873,0.1834,0.1806,0.1806,0.1806,0.1814,0.1868,0.1861,0.1827,0.182,0.1564,0.1246,0.0981,0.0,0.0,0.0,0.0,0.0445,0.0148,0.045,0.0812,0.0775,0.0987,0.1195,0.1246,0.1298,0.1338,0.0,0.1495,0.1485,0.1516,0.0,0.0,0.0,0.253,0.3674,0.4418,0.5691,0.6783,0.7496,0.7597,0.7672,0.7753,0.7862,0.7907,0.7982,0.788,0.7868,0.7868,0.7699,0.7543,0.7434,0.0,0.0,0.0,0.0,0.0,0.0,0.0,0.0,0.0,0.0,0.0,0.0,0.0,0.0,0.0,0.0,0.0,0.0,0.0,0.0,0.0,0.0,0.0,0.0,0.0,0.0,0.0,0.0,0.0,0.1784,0.196,0.0,0.0,0.0,0.0,0.1877,0.1904,0.1936,0.1967,0.2022,0.2067,0.2099,0.2159,0.2206,0.2166,0.2171,0.22,0.2326,0.22,0.226,0.2288,0.2259,0.2175,0.2175,0.2175,0.2229,0.2198,0.2131,0.2083,0.2107,0.1929,0.1865,0.178,0.178,0.178,0.1786,0.1874,0.1847,0.1806,0.1864,0.1651,0.1304,0.1259,0.1024,0.0,0.0,0.0756,0.0706,0.0454,0.0606,0.0761,0.0465,0.0623,0.0883,0.1143,0.1195,0.1188,0.0,0.1244,0.1277,0.1568,0.0,0.1478,0.1478,0.3181,0.4422,0.4472,0.6179,0.7334,0.7387,0.7258,0.7247,0.7584,0.7617,0.774,0.7975,0.7982,0.7975,0.7975,0.7753,0.7597,0.759,0.7163,0.0,0.0,0.0,0.0,0.0,0.0,0.0,0.0,0.0,0.0,0.0,0.0,0.0,0.0,0.0,0.0,0.0,0.0,0.0,0.0,0.0,0.0,0.0,0.0,0.0,0.0,0.0,0.0,0.1934,0.2026,0.0,0.1954,0.1944,0.1944,0.1944,0.1989,0.2038,0.2154,0.2129,0.2165,0.2196,0.2237,0.2263,0.2274,0.2293,0.2312,0.2333,0.2311,0.2307,0.2318,0.2307,0.2292,0.2275,0.2275,0.2258,0.2225,0.2163,0.2109,0.2124,0.2018,0.1971,0.1928,0.1928,0.1915,0.1841,0.1911,0.1888,0.185,0.1661,0.1325,0.1003,0.0782,0.0513,0.0303,0.0303,0.0303,0.0252,0.0151,0.0353,0.0556,0.0662,0.0867,0.1122,0.1378,0.148,0.1476,0.1467,0.1457,0.1495,0.1575,0.1601,0.1532,0.1513,0.3249,0.4538,0.4384,0.6127,0.7333,0.7231,0.7353,0.7482,0.759,0.7773,0.7882,0.7889,0.7889,0.7848,0.776,0.7658,0.7556,0.7455,0.7197,0.693,0.0,0.0,0.0,0.0,0.0,0.0,0.0,0.0,0.0,0.0,0.0,0.0,0.0,0.0,0.0,0.0,0.0,0.0,0.0,0.0,0.0,0.0,0.0,0.0,0.0,0.1944,0.205,0.2011,0.2121,0.2165,0.2076,0.2086,0.2097,0.2097,0.2142,0.2188,0.2297,0.2259,0.2279,0.229,0.2309,0.232,0.232,0.2328,0.2338,0.2348,0.2338,0.2333,0.2333,0.2323,0.2308,0.229,0.2279,0.2252,0.2211,0.2172,0.2179,0.2049,0.2049,0.2024,0.1989,0.1979,0.1963,0.1943,0.1924,0.1896,0.1801,0.1462,0.1142,0.0845,0.0525,0.0208,0.0,0.0,0.0153,0.0255,0.0152,0.0454,0.0808,0.091,0.1162,0.1364,0.1566,0.1617,0.1617,0.1617,0.1617,0.161,0.1591,0.1579,0.171,0.2025,0.3468,0.4585,0.4798,0.627,0.7251,0.7105,0.7373,0.7543,0.7597,0.7821,0.7916,0.7821,0.7767,0.7672,0.7529,0.7475,0.7394,0.7292,0.7098,0.693,0.6776,0.0,0.0,0.0,0.0,0.0,0.0,0.0,0.0,0.0,0.0,0.0,0.0,0.0,0.0,0.0,0.0,0.0,0.0,0.0,0.0,0.0,0.0,0.0,0.1797,0.2027,0.2204,0.2145,0.2256,0.2346,0.2188,0.2231,0.2335,0.2333,0.2361,0.2378,0.2378,0.2408,0.241,0.238,0.2379,0.2379,0.2378,0.2348,0.2348,0.2376,0.2346,0.2331,0.2331,0.2304,0.2289,0.2285,0.2255,0.2208,0.2218,0.2218,0.2098,0.2019,0.2019,0.2018,0.2014,0.1986,0.1975,0.1964,0.1904,0.1864,0.1772,0.1383,0.1093,0.0817,0.0483,0.0213,0.0,0.0,0.0364,0.0724,0.0457,0.096,0.1516,0.1263,0.1415,0.1617,0.1617,0.1617,0.1617,0.1617,0.1617,0.1617,0.1617,0.1592,0.1965,0.3036,0.3833,0.0,0.5751,0.6604,0.7105,0.7105,0.7292,0.7441,0.759,0.7733,0.7807,0.7794,0.7658,0.7516,0.7412,0.721,0.7092,0.7098,0.6957,0.6883,0.6883,0.0,0.0,0.0,0.0,0.0,0.0,0.0,0.0,0.0,0.0,0.0,0.0,0.0,0.0,0.0,0.0,0.0,0.0,0.0,0.0,0.0,0.1902,0.1996,0.2001,0.2147,0.2263,0.2289,0.2382,0.2425,0.2379,0.2388,0.238,0.2337,0.2361,0.2378,0.2378,0.2408,0.242,0.2412,0.241,0.2401,0.2379,0.2348,0.2337,0.2345,0.2316,0.2303,0.2303,0.2294,0.2255,0.2261,0.2184,0.2146,0.2152,0.2065,0.2041,0.2019,0.2019,0.2005,0.1988,0.1979,0.1948,0.1902,0.184,0.1814,0.1749,0.1396,0.1104,0.0819,0.049,0.0216,0.0,0.0,0.0105,0.0259,0.0361,0.0714,0.1061,0.1162,0.1415,0.1617,0.1617,0.1617,0.1617,0.1617,0.1617,0.1617,0.1617,0.161,0.1944,0.2894,0.3786,0.0,0.5726,0.669,0.7305,0.7305,0.7536,0.7665,0.7604,0.7733,0.7672,0.7301,0.724,0.7159,0.7054,0.6964,0.6991,0.7092,0.6957,0.6883,0.0,0.0,0.0,0.0,0.0,0.0,0.0,0.0,0.0,0.0,0.0,0.0,0.0,0.0,0.0,0.0,0.0,0.0,0.0,0.0,0.0,0.0,0.2004,0.2114,0.2169,0.2263,0.2354,0.2427,0.2466,0.2491,0.2497,0.2476,0.2453,0.2429,0.2432,0.2435,0.2435,0.2451,0.2455,0.2443,0.2443,0.2416,0.236,0.2342,0.2327,0.2315,0.2286,0.2278,0.229,0.2264,0.2217,0.2221,0.2142,0.2101,0.2044,0.2026,0.2011,0.2001,0.0,0.0,0.0,0.0,0.1919,0.1862,0.1827,0.1806,0.1737,0.1279,0.1052,0.0828,0.0384,0.0109,0.0,0.0,0.0107,0.021,0.0364,0.0666,0.1011,0.1162,0.1415,0.1617,0.1617,0.1617,0.1617,0.1617,0.1617,0.0,0.1617,0.1606,0.1939,0.2943,0.3823,0.4716,0.5721,0.6672,0.7299,0.7412,0.7522,0.7617,0.7604,0.7678,0.0,0.0,0.0,0.7031,0.6889,0.6883,0.0,0.0,0.0,0.697,0.697,0.6926,0.0,0.0,0.695,0.7088,0.0,0.0,0.0,0.0,0.0,0.0,0.0,0.0,0.0,0.0,0.0,0.0,0.0,0.0,0.0,0.0,0.2056,0.2232,0.232,0.2358,0.241,0.2499,0.2515,0.2537,0.2582,0.2552,0.2536,0.2553,0.2533,0.2519,0.2519,0.2517,0.0,0.0,0.0,0.2427,0.2338,0.2331,0.2313,0.2285,0.2255,0.2255,0.2278,0.2225,0.2181,0.2216,0.2121,0.2075,0.2019,0.2019,0.2003,0.1977,0.1977,0.1973,0.1963,0.1936,0.183,0.1783,0.1779,0.0,0.0,0.1102,0.0886,0.0727,0.0165,0.0,0.0,0.0,0.0163,0.0373,0.0366,0.0771,0.1165,0.1213,0.1415,0.1617,0.1617,0.1617,0.1615,0.1613,0.1611,0.161,0.1607,0.1587,0.1961,0.3028,0.3826,0.4693,0.5735,0.6604,0.7217,0.7405,0.0,0.0,0.7563,0.757,0.7502,0.7333,0.719,0.7018,0.6889,0.6903,0.697,0.7092,0.7098,0.7098,0.7098,0.7098,0.7105,0.7119,0.6991,0.7122,0.0,0.0,0.0,0.0,0.0,0.0,0.0,0.0,0.0,0.0,0.0,0.0,0.0,0.0,0.0,0.1529,0.1936,0.2232,0.232,0.2358,0.2403,0.247,0.2521,0.2536,0.2499,0.2571,0.2594,0.2527,0.2541,0.2551,0.2551,0.2527,0.2511,0.2506,0.2482,0.2436,0.2371,0.2323,0.2283,0.2253,0.2223,0.0,0.2217,0.2206,0.217,0.2117,0.2112,0.2075,0.2019,0.2019,0.2003,0.1977,0.1977,0.1947,0.1903,0.1896,0.1872,0.1779,0.1812,0.1631,0.1346,0.1005,0.0727,0.0448,0.0112,0.0,0.0,0.0,0.0055,0.0109,0.032,0.0628,0.0926,0.1166,0.1415,0.1617,0.1617,0.1617,0.161,0.1585,0.158,0.1572,0.1547,0.156,0.1904,0.2882,0.3748,0.4626,0.5628,0.668,0.7339,0.7412,0.7482,0.7516,0.7421,0.746,0.7299,0.7034,0.6943,0.6916,0.6889,0.6997,0.7065,0.7098,0.7098,0.7098,0.7098,0.7098,0.7204,0.7326,0.7299,0.7319,0.0,0.0,0.0,0.0,0.0,0.0,0.0,0.0,0.0,0.0,0.0,0.023,0.0419,0.0,0.1333,0.1536,0.194,0.2288,0.2348,0.2369,0.2406,0.2482,0.2492,0.2497,0.2512,0.2555,0.2562,0.2518,0.2529,0.2537,0.2537,0.2508,0.2499,0.2514,0.2485,0.2432,0.2356,0.2312,0.2267,0.2222,0.2192,0.2185,0.22,0.2184,0.2153,0.2109,0.2109,0.2083,0.2039,0.2024,0.1993,0.1955,0.1971,0.1948,0.1907,0.1891,0.1759,0.1567,0.1584,0.1354,0.1077,0.0731,0.0561,0.0336,0.0056,0.0,0.0,0.0,0.0,0.0054,0.016,0.0418,0.0664,0.0911,0.1213,0.1415,0.1566,0.1617,0.1607,0.1577,0.1621,0.1562,0.1531,0.1525,0.171,0.2163,0.3408,0.4475,0.4919,0.6305,0.7285,0.7405,0.7373,0.7373,0.7419,0.7299,0.7163,0.6903,0.6883,0.6883,0.6883,0.6957,0.6991,0.6991,0.7058,0.7098,0.7098,0.7098,0.7132,0.7258,0.7333,0.7448,0.0,0.0,0.0,0.0,0.0,0.0,0.0,0.0,0.0,0.0,0.0177,0.0359,0.038,0.0904,0.139,0.1536,0.1935,0.2262,0.2365,0.2369,0.2399,0.2478,0.245,0.2453,0.2526,0.2527,0.2515,0.2497,0.2514,0.2521,0.2515,0.2491,0.2487,0.2504,0.247,0.241,0.2326,0.229,0.2245,0.2191,0.2166,0.2168,0.2191,0.2234,0.2142,0.2117,0.2105,0.2083,0.2053,0.2023,0.192,0.1821,0.1906,0.1835,0.1747,0.1778,0.1587,0.1285,0.1247,0.1018,0.0742,0.0507,0.0393,0.028,0.0056,0.0,0.0,0.0,0.0,0.0,0.0,0.0208,0.0457,0.0758,0.1011,0.1263,0.1566,0.1613,0.1599,0.1569,0.1558,0.1545,0.1513,0.1487,0.1474,0.1479,0.2947,0.4109,0.4287,0.5758,0.6968,0.7312,0.7217,0.7132,0.7278,0.717,0.6997,0.6849,0.6842,0.6842,0.6842,0.6842,0.6842,0.6842,0.6984,0.7058,0.7058,0.7085,0.7112,0.7146,0.7312,0.7495,0.0,0.0,0.0,0.0,0.0,0.0,0.0,0.0,0.0,0.0,0.0,0.0064,0.0066,0.0335,0.0748,0.1206,0.1575,0.1873,0.2261,0.2338,0.2352,0.2388,0.2412,0.2428,0.2438,0.2508,0.2521,0.244,0.2508,0.2542,0.2515,0.2511,0.2499,0.2474,0.2418,0.2358,0.2296,0.2238,0.2193,0.2227,0.2224,0.2224,0.2227,0.2224,0.222,0.2214,0.2158,0.2052,0.2022,0.1993,0.1791,0.154,0.1542,0.1346,0.1144,0.1363,0.1226,0.0978,0.096,0.073,0.045,0.0393,0.0224,0.0056,0.0,0.0,0.0,0.0,0.0,0.0,0.0,0.0208,0.0464,0.0761,0.1011,0.1263,0.1566,0.1595,0.1568,0.1536,0.1509,0.148,0.1405,0.1397,0.1449,0.1476,0.2406,0.3355,0.4198,0.5225,0.6169,0.703,0.7105,0.7051,0.6943,0.6916,0.6849,0.6736,0.6729,0.6729,0.6729,0.6729,0.6729,0.6729,0.6871,0.691,0.691,0.7038,0.721,0.7346,0.7405,0.7433,0.0,0.0,0.0,0.0,0.0,0.0,0.0,0.0,0.0,0.0,0.0,0.0,0.0,0.0276,0.0627,0.0792,0.1375,0.1812,0.1967,0.2187,0.2343,0.2375,0.239,0.2397,0.2397,0.2447,0.2458,0.2401,0.2448,0.2482,0.2488,0.2454,0.2438,0.2443,0.2383,0.2323,0.2264,0.2222,0.2185,0.2223,0.2223,0.2223,0.2223,0.2223,0.2211,0.2127,0.1904,0.174,0.1702,0.1505,0.1362,0.1219,0.1219,0.1026,0.0713,0.1004,0.0939,0.0639,0.0622,0.0395,0.017,0.0169,0.0112,0.0,0.0,0.0,0.0,0.0,0.0,0.0,0.0,0.0103,0.0255,0.0506,0.0757,0.1061,0.1314,0.1344,0.1416,0.1484,0.136,0.1287,0.1396,0.1391,0.1395,0.1452,0.2253,0.3045,0.3444,0.4781,0.6074,0.7003,0.7024,0.6916,0.681,0.6797,0.6729,0.658,0.6566,0.6566,0.6566,0.6566,0.6566,0.6566,0.6715,0.6837,0.6883,0.6943,0.7051,0.7238,0.7238,0.7238,0.0,0.0,0.0,0.0,0.0,0.0,0.0,0.0,0.0,0.0,0.0,0.0,0.0,0.021,0.0495,0.0578,0.1095,0.1539,0.1612,0.1905,0.2206,0.2226,0.2297,0.2365,0.2365,0.2401,0.2405,0.2357,0.2405,0.2438,0.2443,0.2418,0.2406,0.241,0.2353,0.2293,0.2233,0.2203,0.2176,0.2223,0.2223,0.2223,0.2221,0.2213,0.2125,0.1966,0.1696,0.1477,0.1316,0.1124,0.0924,0.0844,0.0841,0.0653,0.041,0.0585,0.0527,0.035,0.0283,0.017,0.0,0.0,0.0,0.0,0.0,0.0,0.0,0.0,0.0,0.0,0.0,0.0,0.005,0.0353,0.0555,0.0757,0.1011,0.109,0.1115,0.1291,0.1214,0.1142,0.1303,0.1346,0.1391,0.1391,0.2016,0.2598,0.2867,0.4493,0.6011,0.689,0.6883,0.6803,0.6654,0.6634,0.6573,0.6463,0.6457,0.6457,0.6457,0.6457,0.6457,0.6457,0.6559,0.6715,0.6865,0.6862,0.6957,0.7098,0.7098,0.7098,0.0,0.0,0.0,0.0,0.0,0.0,0.0,0.0,0.0,0.0,0.0,0.0,0.0,0.0,0.0141,0.0572,0.0585,0.0743,0.1188,0.156,0.1782,0.1783,0.2131,0.2334,0.2334,0.2388,0.2387,0.23,0.2402,0.2442,0.2384,0.2435,0.244,0.2382,0.2323,0.2263,0.2202,0.2172,0.2223,0.2223,0.2223,0.2223,0.2221,0.2124,0.1898,0.1612,0.1526,0.1315,0.0987,0.1034,0.0785,0.0542,0.0534,0.0292,0.0,0.0,0.0,0.0,0.0,0.0,0.0,0.0,0.0,0.0,0.0,0.0,0.0,0.0,0.0,0.0,0.0,0.0,0.005,0.0353,0.0404,0.0505,0.0757,0.0834,0.0811,0.0811,0.0969,0.1122,0.1122,0.1256,0.1391,0.1391,0.1436,0.1792,0.2777,0.4437,0.58,0.6646,0.6709,0.6647,0.6532,0.6518,0.6457,0.6313,0.6306,0.6306,0.6306,0.6306,0.6306,0.6306,0.645,0.6552,0.6709,0.6858,0.6957,0.7098,0.7098,0.7098,0.0,0.0,0.0,0.0,0.0,0.0,0.0,0.0,0.0,0.0,0.0,0.0,0.0,0.0,0.0068,0.0208,0.0431,0.0661,0.0808,0.1117,0.1496,0.1764,0.1929,0.2079,0.2264,0.2352,0.235,0.232,0.2338,0.2358,0.2378,0.2342,0.232,0.232,0.2262,0.2211,0.217,0.2227,0.2223,0.2223,0.2223,0.2087,0.1816,0.1791,0.1569,0.116,0.0953,0.0747,0.0668,0.0423,0.0298,0.0175,0.0174,0.0115,0.0,0.0,0.0,0.0,0.0,0.0,0.0,0.0,0.0,0.0,0.0,0.0,0.0,0.0,0.0,0.0,0.0,0.0,0.0,0.0101,0.0252,0.0404,0.0505,0.0545,0.0581,0.0765,0.07,0.0729,0.1034,0.1166,0.1256,0.1391,0.1391,0.1749,0.2777,0.3864,0.4923,0.5826,0.629,0.6566,0.6518,0.6422,0.6354,0.6306,0.63,0.63,0.63,0.63,0.63,0.63,0.6347,0.6443,0.6552,0.6702,0.6851,0.6957,0.7051,0.7098,0.0,0.0,0.0,0.0,0.0,0.0,0.0,0.0,0.0,0.0,0.0,0.0,0.0,0.0,0.0,0.0,0.0209,0.0359,0.0364,0.0737,0.1114,0.1339,0.1497,0.1722,0.2072,0.2135,0.2189,0.2232,0.2304,0.2313,0.233,0.2286,0.2266,0.2274,0.2226,0.2185,0.2223,0.2223,0.2154,0.1952,0.2009,0.1804,0.1402,0.1375,0.1163,0.0831,0.0564,0.043,0.0301,0.006,0.0,0.0,0.0,0.0,0.0,0.0,0.0,0.0,0.0,0.0,0.0,0.0,0.0,0.0,0.0,0.0,0.0,0.0,0.0,0.0,0.0,0.0,0.0,0.0,0.0151,0.0252,0.0252,0.0247,0.029,0.0478,0.0466,0.0501,0.0809,0.0986,0.1166,0.1256,0.1346,0.1744,0.266,0.3238,0.4007,0.521,0.5764,0.6183,0.6403,0.6402,0.6354,0.6306,0.63,0.63,0.63,0.63,0.63,0.63,0.63,0.6395,0.6552,0.6654,0.6803,0.6964,0.7051,0.7098,0.0,0.0,0.0,0.0,0.0,0.0,0.0,0.0,0.0,0.0,0.0,0.0,0.0,0.0,0.0,0.0,0.0,0.0,0.0,0.0362,0.0585,0.0612,0.0905,0.1344,0.1738,0.1795,0.1902,0.2115,0.2228,0.2307,0.218,0.2273,0.2273,0.2174,0.2214,0.2184,0.2223,0.2155,0.1952,0.1548,0.1593,0.1384,0.1053,0.1024,0.0821,0.0505,0.0489,0.0301,0.0,0.0,0.0,0.0,0.0,0.0,0.0,0.0,0.0,0.0,0.0,0.0,0.0,0.0,0.0,0.0,0.0,0.0,0.0,0.0,0.0,0.0,0.0,0.0,0.0,0.0,0.0,0.0,0.0,0.0,0.0,0.0,0.0231,0.0403,0.0403,0.0762,0.1077,0.1077,0.1256,0.1647,0.244,0.256,0.3199,0.4778,0.5172,0.5589,0.6256,0.6436,0.645,0.6306,0.63,0.63,0.63,0.63,0.63,0.63,0.63,0.6436,0.6675,0.6695,0.6844,0.7071,0.7092,0.7098,0.0,0.0,0.0,0.0,0.0,0.0,0.0,0.0,0.0,0.0,0.0,0.0,0.0,0.0,0.0,0.0,0.0,0.0,0.0,0.0075,0.0301,0.0593,0.0673,0.0902,0.1344,0.1329,0.1388,0.1374,0.1945,0.2294,0.2279,0.2244,0.2219,0.2211,0.2183,0.223,0.2223,0.1885,0.1548,0.1212,0.1194,0.1054,0.0658,0.064,0.0442,0.0126,0.0122,0.006,0.0,0.0,0.0,0.0,0.0,0.0,0.0,0.0,0.0,0.0,0.0,0.0,0.0,0.0,0.0,0.0,0.0,0.0,0.0,0.0,0.0,0.0,0.0,0.0,0.0,0.0,0.0,0.0,0.0,0.0,0.0,0.0,0.0231,0.0403,0.0403,0.0628,0.0807,0.0807,0.1031,0.1297,0.1647,0.2235,0.3065,0.4223,0.4932,0.5624,0.6391,0.6491,0.645,0.6306,0.63,0.63,0.63,0.63,0.63,0.63,0.63,0.6334,0.6416,0.6593,0.6742,0.6817,0.6997,0.7098,-0.0906,-0.0461,0.0,0.0,0.0,0.0,0.0,0.0,0.0,0.0,0.0,0.0,0.0,0.0,0.0,0.0,0.0,0.0,0.0,0.0,0.0075,0.0299,0.0303,0.0532,0.09,0.0968,0.0962,0.1104,0.1511,0.1769,0.1759,0.1723,0.1703,0.1703,0.169,0.175,0.175,0.1481,0.1212,0.0807,0.0857,0.0653,0.0261,0.0254,0.0188,0.0,0.0,0.0,0.0,0.0,0.0,0.0,0.0,0.0,0.0,0.0,0.0,0.0,0.0,0.0,0.0,0.0,0.0,0.0,0.0,0.0,0.0,0.0,0.0,0.0,0.0,0.0,0.0,0.0,0.0,0.0,0.0,0.0,0.0,0.0,0.0142,0.0233,0.0231,0.0415,0.0551,0.0546,0.0773,0.0951,0.1078,0.17,0.2436,0.3213,0.4225,0.5155,0.5893,0.6422,0.658,0.6409,0.6395,0.6368,0.63,0.63,0.63,0.63,0.63,0.6327,0.6395,0.6586,0.6736,0.6803,0.6991,0.7098,-0.2501,-0.146,-0.0333,-0.0337,-0.0135,0.0,0.0,0.0,0.0,0.0,0.0,0.0,0.0,0.0,0.0,0.0,0.0,0.0,0.0,0.0,0.0,0.0,0.0,0.0153,0.0453,0.0526,0.0673,0.1036,0.1,0.0975,0.1103,0.1088,0.1079,0.1077,0.1077,0.1077,0.101,0.101,0.0808,0.0404,0.0458,0.0258,0.0,0.0,0.0,0.0,0.0,0.0,0.0,0.0,0.0,0.0,0.0,0.0,0.0,0.0,0.0,0.0,0.0,0.0,0.0,0.0,0.0,0.0,0.0,0.0,0.0,0.0,0.0,0.0,0.0,0.0,0.0,0.0,0.0,0.0,0.0,0.0,0.0,0.0,0.0,0.0,0.0,0.0192,0.0334,0.0328,0.0512,0.0645,0.0632,0.105,0.1638,0.2195,0.3432,0.4508,0.5199,0.6245,0.6753,0.6512,0.6458,0.6417,0.6334,0.6313,0.63,0.63,0.63,0.6368,0.6511,0.6627,0.6776,0.6889,0.7031,0.7098,-0.4598,-0.332,-0.1935,-0.1919,-0.095,0.0,0.0,0.0,0.0,0.0,0.0,0.0,0.0,0.0,0.0,0.0,0.0,0.0,0.0,0.0,0.0,0.0,0.0,0.0,0.0074,0.0073,0.0144,0.0216,0.021,0.0485,0.1048,0.1104,0.109,0.1077,0.1077,0.0943,0.0606,0.0606,0.0404,0.0067,0.0065,0.0065,0.0,0.0,0.0,0.0,0.0,0.0,0.0,0.0,0.0,0.0,0.0,0.0,0.0,0.0,0.0,0.0,0.0,0.0,0.0,0.0,0.0,0.0,0.0,0.0,0.0,0.0,0.0,0.0,0.0,0.0,0.0,0.0,0.0,0.0,0.0,0.0,0.0,0.0,0.0,0.0,0.0,0.005,0.005,0.0049,0.0288,0.0377,0.0138,0.0546,0.1176,0.2055,0.3172,0.4223,0.4989,0.5952,0.6505,0.6512,0.6286,0.6264,0.6477,0.6361,0.63,0.63,0.63,0.6368,0.6511,0.6627,0.6776,0.6889,0.7031,0.7098,-0.6473,-0.525,-0.3797,-0.2815,-0.2026,-0.1186,-0.0191,0.0,0.0,0.0,0.0,0.0,0.0,0.0,0.0,0.0,0.0,0.0,0.0,0.0,0.0,0.0,0.0,0.0,0.0,0.0,0.0,0.0,0.0,0.0138,0.0486,0.0548,0.0542,0.0539,0.0539,0.0404,0.0269,0.0269,0.0135,0.0,0.0,0.0,0.0,0.0,0.0,0.0,0.0,0.0,0.0,0.0,0.0,0.0,0.0,0.0,0.0,0.0,0.0,0.0,0.0,0.0,0.0,0.0,0.0,0.0,0.0,0.0,0.0,0.0,0.0,0.0,0.0,0.0,0.0,0.0,0.0,0.0,0.0,0.0,0.0,0.0,0.0,0.0,0.0,0.0,0.0,0.0,0.01,0.0148,0.0,0.0188,0.0553,0.1139,0.2248,0.3092,0.3457,0.4836,0.5648,0.5638,0.5877,0.6066,0.6151,0.6022,0.599,0.6099,0.6099,0.6211,0.6511,0.6627,0.6776,0.6889,0.7031,0.7098,-0.8344,-0.7241,-0.5722,-0.4337,-0.3564,-0.2728,-0.0997,-0.0541,-0.0407,-0.0056,0.0,0.0,0.0,0.0,0.0,0.0,0.0,0.0,0.0,0.0,0.0,0.0,0.0,0.0,0.0,0.0,0.0,0.0,0.0,0.0,0.0,0.0,0.0,0.0,0.0,0.0,0.0,0.0,0.0,0.0,0.0,0.0,0.0,0.0,0.0,0.0,0.0,0.0,0.0,0.0,0.0,0.0,0.0,0.0,0.0,0.0,0.0,0.0,0.0,0.0,0.0,0.0,0.0,0.0,0.0,0.0,0.0,0.0,0.0,0.0,0.0,0.0,0.0,0.0,0.0,0.0,0.0,0.0,0.0,0.0,0.0,0.0,0.0,0.0,0.0,0.0,0.0,0.0,0.0,0.0,0.0095,0.0272,0.1373,0.2035,0.1998,0.3779,0.4853,0.4817,0.5513,0.5918,0.588,0.5698,0.5704,0.591,0.5885,0.6067,0.6444,0.6605,0.6739,0.6893,0.7045,0.7098,-1.0467,-0.9149,-0.7635,-0.7479,-0.6155,-0.4479,-0.2798,0.0,-0.1829,-0.0337,0.0,0.0,0.0,0.0,0.0,0.0,0.0,0.0,0.0,0.0,0.0,0.0,0.0,0.0,0.0,0.0,0.0,0.0,0.0,0.0,0.0,0.0,0.0,0.0,0.0,0.0,0.0,0.0,0.0,0.0,0.0,0.0,0.0,0.0,0.0,0.0,0.0,0.0,0.0,0.0,0.0,0.0,0.0,0.0,0.0,0.0,0.0,0.0,0.0,0.0,0.0,0.0,0.0,0.0,0.0,0.0,0.0,0.0,0.0,0.0,0.0,0.0,0.0,0.0,0.0,0.0,0.0,0.0,0.0,0.0,0.0,0.0,0.0,0.0,0.0,0.0,0.0,0.0,0.0,0.0,0.0,0.0046,0.1015,0.1675,0.1658,0.3443,0.4597,0.4785,0.5389,0.5877,0.6154,0.5796,0.5711,0.5988,0.5872,0.594,0.6245,0.6465,0.6677,0.682,0.7003,0.7098,-1.0809,-1.0291,-0.944,-0.8423,-0.7417,-0.6034,-0.3289,0.0,-0.2022,-0.0338,0.0,0.0,0.0,0.0,0.0,0.0,0.0,0.0,0.0,0.0,0.0,0.0,0.0,0.0,0.0,0.0,0.0,0.0,0.0,0.0,0.0,0.0,0.0,0.0,0.0,0.0,0.0,0.0,0.0,0.0,0.0,0.0,0.0,0.0,0.0,0.0,0.0,0.0,0.0,0.0,0.0,0.0,0.0,0.0,0.0,0.0,0.0,0.0,0.0,0.0,0.0,0.0,0.0,0.0,0.0,0.0,0.0,0.0,0.0,0.0,0.0,0.0,0.0,0.0,0.0,0.0,0.0,0.0,0.0,0.0,0.0,0.0,0.0,0.0,0.0,0.0,0.0,0.0,0.0,0.0,0.0,0.0,0.0385,0.0658,0.0655,0.2431,0.3552,0.3641,0.4888,0.563,0.5766,0.5593,0.5601,0.5829,0.5776,0.5883,0.6196,0.6325,0.6437,0.6567,0.6789,0.6922,-1.0853,-1.0847,-1.0603,-0.9369,-0.8815,-0.778,0.0,0.0,-0.2738,-0.1077,-0.0337,0.0,0.0,0.0,0.0,0.0,0.0,0.0,0.0,0.0,0.0,0.0,0.0,0.0,0.0,0.0,0.0,0.0,0.0,0.0,0.0,0.0,0.0,0.0,0.0,0.0,0.0,0.0,0.0,0.0,0.0,0.0,0.0,0.0,0.0,0.0,0.0,0.0,0.0,0.0,0.0,0.0,0.0,0.0,0.0,0.0,0.0,0.0,0.0,0.0,0.0,0.0,0.0,0.0,0.0,0.0,0.0,0.0,0.0,0.0,0.0,0.0,0.0,0.0,0.0,0.0,0.0,0.0,0.0,0.0,0.0,0.0,0.0,0.0,0.0,0.0,0.0,0.0,0.0,0.0,0.0,0.0,0.0,0.0,0.0,0.1784,0.2902,0.2878,0.4555,0.5524,0.5561,0.5453,0.5488,0.5693,0.5659,0.5783,0.604,0.6127,0.6236,0.6355,0.6586,0.6707,-1.0724,-1.0833,-1.088,-1.088,-1.0543,-0.9856,-0.8125,-0.6241,-0.4435,-0.2815,-0.1132,0.0,0.0,0.0,0.0,0.0,0.0,0.0,0.0,0.0,0.0,0.0,0.0,0.0,0.0,0.0,0.0,0.0,0.0,0.0,0.0,0.0,0.0,0.0,0.0,0.0,0.0,0.0,0.0,0.0,0.0,0.0,0.0,0.0,0.0,0.0,0.0,0.0,0.0,0.0,0.0,0.0,0.0,0.0,0.0,0.0,0.0,0.0,0.0,0.0,0.0,0.0,0.0,0.0,0.0,0.0,0.0,0.0,0.0,0.0,0.0,0.0,0.0,0.0,0.0,0.0,0.0,0.0,0.0,0.0,0.0,0.0,0.0,0.0,0.0,0.0,0.0,0.0,0.0,0.0,0.0,0.0,0.0,0.0,0.0,0.1774,0.2881,0.2917,0.452,0.5561,0.568,0.5496,0.5485,0.568,0.5567,0.5567,0.5686,0.5952,0.6194,0.6316,0.6361,0.6567,-1.0392,-1.0453,-1.0493,-1.0493,-1.0304,-0.9643,-0.806,-0.6377,-0.4729,-0.2875,-0.1302,-0.0224,-0.0056,0.0,0.0,0.0,0.0,0.0,0.0,0.0,0.0,0.0,0.0,0.0,0.0,0.0,0.0,0.0,0.0,0.0,0.0,0.0,0.0,0.0,0.0,0.0,0.0,0.0,0.0,0.0,0.0,0.0,0.0,0.0,0.0,0.0,0.0,0.0,0.0,0.0,0.0,0.0,0.0,0.0,0.0,0.0,0.0,0.0,0.0,0.0,0.0,0.0,0.0,0.0,0.0,0.0,0.0,0.0,0.0,0.0,0.0,0.0,0.0,0.0,0.0,0.0,0.0,0.0,0.0,0.0,0.0,0.0,0.0,0.0,0.0,0.0,0.0,0.0,0.0,0.0,0.0,0.0,0.0,0.0,0.0,0.1144,0.2208,0.294,0.4066,0.5013,0.5799,0.5697,0.5654,0.5686,0.5653,0.5648,0.5691,0.5857,0.6093,0.6351,0.6362,0.6578,-1.0148,-1.0236,-1.0283,-1.0283,-1.0161,-0.9709,-0.8749,-0.7255,-0.5655,-0.3943,-0.2285,-0.096,-0.0281,-0.0056,0.0,0.0,0.0,0.0,0.0,0.0,0.0,0.0,0.0,0.0,0.0,0.0,0.0,0.0,0.0,0.0,0.0,0.0,0.0,0.0,0.0,0.0,0.0,0.0,0.0,0.0,0.0,0.0,0.0,0.0,0.0,0.0,0.0,0.0,0.0,0.0,0.0,0.0,0.0,0.0,0.0,0.0,0.0,0.0,0.0,0.0,0.0,0.0,0.0,0.0,0.0,0.0,0.0,0.0,0.0,0.0,0.0,0.0,0.0,0.0,0.0,0.0,0.0,0.0,0.0,0.0,0.0,0.0,0.0,0.0,0.0,0.0,0.0,0.0,0.0,0.0,0.0,0.0,0.0,0.0,0.0,0.084,0.1836,0.2949,0.3853,0.4821,0.5858,0.5833,0.5734,0.5691,0.5729,0.5795,0.5801,0.5964,0.6123,0.6199,0.6314,0.6525,0.0,-1.0154,-1.0263,-1.0263,-1.0154,-0.9984,-0.997,-0.8647,0.0,-0.5659,-0.3885,-0.2112,-0.0676,-0.0224,0.0,0.0,0.0,0.0,0.0,0.0,0.0,0.0,0.0,0.0,0.0,0.0,0.0,0.0,0.0,0.0,0.0,0.0,0.0,0.0,0.0,0.0,0.0,0.0,0.0,0.0,0.0,0.0,0.0,0.0,0.0,0.0,0.0,0.0,0.0,0.0,0.0,0.0,0.0,0.0,0.0,0.0,0.0,0.0,0.0,0.0,0.0,0.0,0.0,0.0,0.0,0.0,0.0,0.0,0.0,0.0,0.0,0.0,0.0,0.0,0.0,0.0,0.0,0.0,0.0,0.0,0.0,0.0,0.0,0.0,0.0,0.0,0.0,0.0,0.0,0.0,0.0,0.0,0.0,0.0,0.0,0.0824,0.1788,0.2925,0.3905,0.4857,0.5885,0.592,0.5866,0.5718,0.586,0.592,0.5931,0.6149,0.6149,0.5947,0.6274,0.641,-0.9943,0.0,-1.0044,-1.0044,-1.0011,-0.9957,0.0,-0.8757,-0.7254,0.0,0.0,0.0,0.0,0.0,-0.0225,-0.0057,0.0,0.0,0.0,0.0,0.0,0.0,0.0,0.0,0.0,0.0,0.0,0.0,0.0,0.0,0.0,0.0,0.0,0.0,0.0,0.0,0.0,0.0,0.0,0.0,0.0,0.0,0.0,0.0,0.0,0.0,0.0,0.0,0.0,0.0,0.0,0.0,0.0,0.0,0.0,0.0,0.0,0.0,0.0,0.0,0.0,0.0,0.0,0.0,0.0,0.0,0.0,0.0,0.0,0.0,0.0,0.0,0.0,0.0,0.0,0.0,0.0,0.0,0.0,0.0,0.0,0.0,0.0,0.0,0.0,0.0,0.0,0.0,0.0,0.0,0.0,0.0,0.0,0.0,0.0,0.0203,0.1113,0.3045,0.3266,0.4201,0.6133,0.6094,0.6029,0.6002,0.6029,0.6089,0.6181,0.6149,0.6192,0.6263,0.6306,0.6475,-0.9943,-0.9984,-1.0004,-1.0141,-1.0038,-0.9963,-0.9883,-0.9255,-0.8288,0.0,0.0,0.0,0.0,-0.1766,-0.1136,-0.086,-0.0349,0.0,0.0,0.0,0.0,0.0,0.0,0.0,0.0,0.0,0.0,0.0,0.0,0.0,0.0,0.0,0.0,0.0,0.0,0.0,0.0,0.0,0.0,0.0,0.0,0.0,0.0,0.0,0.0,0.0,0.0,0.0,0.0,0.0,0.0,0.0,0.0,0.0,0.0,0.0,0.0,0.0,0.0,0.0,0.0,0.0,0.0,0.0,0.0,0.0,0.0,0.0,0.0,0.0,0.0,0.0,0.0,0.0,0.0,0.0,0.0,0.0,0.0,0.0,0.0,0.0,0.0,0.0,0.0,0.0,0.0,0.0,0.0,0.0,0.0,0.0,0.0,0.0,0.0,0.0,0.071,0.2351,0.2882,0.386,0.5484,0.5962,0.617,0.617,0.617,0.6251,0.6317,0.6252,0.6285,0.6361,0.635,0.6426,-0.9977,-1.0024,-1.0114,-1.0249,-1.0181,-1.0017,-0.999,-0.9869,-0.9357,0.0,0.0,0.0,-0.4515,-0.2939,-0.1842,-0.1613,-0.0703,0.0,0.0,0.0,0.0,0.0,0.0,0.0,0.0,0.0,0.0,0.0,0.0,0.0,0.0,0.0,0.0,0.0,0.0,0.0,0.0,0.0,0.0,0.0,0.0,0.0,0.0,0.0,0.0,0.0,0.0,0.0,0.0,0.0,0.0,0.0,0.0,0.0,0.0,0.0,0.0,0.0,0.0,0.0,0.0,0.0,0.0,0.0,0.0,0.0,0.0,0.0,0.0,0.0,0.0,0.0,0.0,0.0,0.0,0.0,0.0,0.0,0.0,0.0,0.0,0.0,0.0,0.0,0.0,0.0,0.0,0.0,0.0,0.0,0.0,0.0,0.0,0.0,0.0,0.0,0.0404,0.1312,0.2519,0.3751,0.4916,0.585,0.6295,0.6295,0.6295,0.6295,0.6295,0.6388,0.6388,0.6295,0.6393,0.6387,-1.0168,-1.0243,-1.0249,-1.0276,-1.0263,-1.0209,-1.0017,-0.9869,-0.914,0.0,0.0,-0.4906,-0.2454,-0.1243,-0.0704,-0.0704,-0.0301,0.0,0.0,0.0,0.0,0.0,0.0,0.0,0.0,0.0,0.0,0.0,0.0,0.0,0.0,0.0,0.0,0.0,0.0,0.0,0.0,0.0,0.0,0.0,0.0,0.0,0.0,0.0,0.0,0.0,0.0,0.0,0.0,0.0,0.0,0.0,0.0,0.0,0.0,0.0,0.0,0.0,0.0,0.0,0.0,0.0,0.0,0.0,0.0,0.0,0.0,0.0,0.0,0.0,0.0,0.0,0.0,0.0,0.0,0.0,0.0,0.0,0.0,0.0,0.0,0.0,0.0,0.0,0.0,0.0,0.0,0.0,0.0,0.0,0.0,0.0,0.0,0.0,0.0,0.0,0.005,0.0252,0.2116,0.4071,0.6061,0.631,0.636,0.636,0.636,0.636,0.636,0.6376,0.6376,0.636,0.6376,0.6387,-0.9992,-1.0093,-1.0154,-1.0154,-1.0276,-1.0358,-1.0209,-1.0053,-0.9549,-0.8299,-0.7281,-0.6188,-0.4807,-0.2951,-0.1336,-0.0371,-0.0125,0.0,0.0,0.0,0.0,0.0,0.0,0.0,0.0,0.0,0.0,0.0,0.0,-0.0308,-0.1049,-0.037,-0.0308,-0.1049,-0.0367,0.0,0.0,0.0,0.0,0.0,0.0,0.0,0.0,0.0,0.0,0.0,0.0,0.0,0.0,0.0,0.0,0.0,0.0,0.0,0.0,0.0,0.0,0.0,0.0,0.0,0.0,0.0,0.0,0.0,0.0,0.0,0.0,0.0,0.0,0.0,0.0,0.0,0.0,0.0,0.0,0.0,0.0,0.0,0.0,0.0,0.0,0.0,0.0,0.0,0.0,0.0,0.0,0.0,0.0,0.0,0.0,0.0,0.0,0.0,0.0,0.0,0.0505,0.1663,0.267,0.4178,0.6337,0.6387,0.6387,0.6387,0.6387,0.6387,0.6387,0.6387,0.6387,0.6387,0.6387,0.6387,-0.9863,-0.9985,-1.0051,-1.0085,-1.027,-1.0378,-1.0337,-1.0181,-0.9908,-0.9552,-0.8482,-0.7467,-0.704,-0.4719,-0.2247,-0.0384,-0.0129,-0.0065,0.0,0.0,0.0,0.0,0.0,0.0,0.0,0.0,0.0,0.0,0.0,-0.0432,-0.1481,-0.0555,-0.0493,-0.1472,-0.0546,0.0,0.0,0.0,0.0,0.0,0.0,0.0,0.0,0.0,0.0,0.0,0.0,0.0,0.0,0.0,0.0,0.0,0.0,0.0,0.0,0.0,0.0,0.0,0.0,0.0,0.0,0.0,0.0,0.0,0.0,0.0,0.0,0.0,0.0,0.0,0.0,0.0,0.0,0.0,0.0,0.0,0.0,0.0,0.0,0.0,0.0,0.0,0.0,0.0,0.0,0.0,0.0,0.0,0.0,0.0,0.0,0.0,0.0,0.0,0.0,0.0,0.0807,0.272,0.3073,0.4178,0.6337,0.6387,0.6387,0.6387,0.6387,0.6387,0.6387,0.6387,0.6387,0.6387,0.6387,0.6387,-0.993,-1.0148,-1.0297,-1.0426,-1.027,-1.0085,-1.0419,-1.0256,-0.9745,-0.8764,-0.8044,-0.7324,-0.6326,-0.4705,-0.2768,-0.0695,-0.0453,-0.033,-0.0067,0.0,0.0,0.0,0.0,0.0,0.0,0.0,0.0,0.0,0.0,-0.0062,-0.0123,-0.0062,-0.0061,-0.0121,-0.006,0.0,0.0,0.0,0.0,0.0,0.0,0.0,0.0,0.0,0.0,0.0,0.0,0.0,0.0,0.0,0.0,0.0,0.0,0.0,0.0,0.0,0.0,0.0,0.0,0.0,0.0,0.0,0.0,0.0,0.0,0.0,0.0,0.0,0.0,0.0,0.0,0.0,0.0,0.0,0.0,0.0,0.0,0.0,0.0,0.0,0.0,0.0,0.0,0.0,0.0,0.0,0.0,0.0,0.0,0.0,0.0,0.0,0.0,0.0,0.0,0.0,0.0505,0.1663,0.267,0.4178,0.6337,0.6387,0.6387,0.6387,0.6387,0.6387,0.6387,0.6387,0.6387,0.6387,0.6387,0.6387,-0.989,-0.9951,-1.0032,-1.0181,-1.0071,-1.0092,-1.0541,-1.0622,-1.0365,-0.9742,-0.8916,-0.7786,-0.5996,-0.4464,-0.3093,-0.2042,-0.13,-0.0662,-0.0336,-0.0334,-0.0266,0.0,0.0,0.0,0.0,0.0,0.0,0.0,0.0,-0.037,-0.1172,-0.0428,-0.0364,-0.1206,-0.0414,0.0,0.0,0.0,0.0,0.0,0.0,0.0,0.0,0.0,0.0,0.0,0.0,0.0,0.0,0.0,0.0,0.0,0.0,0.0,0.0,0.0,0.0,0.0,0.0,0.0,0.0,0.0,0.0,0.0,0.0,0.0,0.0,0.0,0.0,0.0,0.0,0.0,0.0,0.0,0.0,0.0,0.0,0.0,0.0,0.0,0.0,0.0,0.0,0.0,0.0,0.0,0.0,0.0,0.0,0.0,0.0,0.0,0.0,0.0,0.0,0.0,0.0454,0.1512,0.262,0.3877,0.5336,0.6037,0.6387,0.6387,0.6387,0.6387,0.6387,0.6387,0.6387,0.6387,0.6387,0.6387,-0.9822,-0.9856,-0.9856,-0.9963,-1.0058,-1.022,-1.0636,-1.0799,-1.0819,-1.0602,-0.9939,-0.8759,-0.6742,-0.5545,-0.4542,-0.3827,-0.2976,-0.2295,-0.192,-0.1906,-0.1763,-0.1438,-0.1361,-0.1354,-0.1225,-0.1209,-0.1261,-0.1261,-0.1244,-0.1603,-0.2525,-0.1337,-0.1022,-0.1974,-0.1049,-0.0401,0.0,-0.0393,-0.039,0.0,0.0,0.0,0.0,0.0,0.0,0.0,0.0,0.0,0.0,0.0,0.0,0.0,0.0,0.0,0.0,0.0,0.0,0.0,0.0,0.0,0.0,0.0,0.0,0.0,0.0,0.0,0.0,0.0,0.0,0.0,0.0,0.0,0.0,0.0,0.0,0.0,0.0,0.0,0.0,0.0,0.0,0.0,0.0,0.0,0.0,0.0,0.0,0.0,0.0,0.0,0.0,0.0,0.0,0.0,0.0,0.0,0.0303,0.1059,0.2116,0.3173,0.4228,0.5331,0.5887,0.5887,0.6237,0.6387,0.6387,0.6387,0.6387,0.6387,0.6387,0.6387,-0.9822,-0.9869,-0.9984,-0.999,-1.027,-1.0527,-1.0683,-1.0724,-1.0806,-1.1104,-1.0806,-1.0116,-0.8753,-0.818,-0.7411,-0.5843,-0.5534,-0.5394,-0.4942,-0.4878,-0.475,-0.4432,-0.4432,-0.424,-0.3922,-0.387,-0.3899,-0.3899,-0.3908,-0.3873,-0.3873,-0.2731,-0.2034,-0.2,-0.1911,-0.1253,-0.0056,-0.1211,-0.1211,-0.0056,-0.0054,0.0,0.0,0.0,0.0,0.0,0.0,0.0,-0.0052,-0.0052,-0.0051,-0.0051,-0.005,-0.005,-0.0051,-0.0052,-0.0052,-0.0052,-0.0054,-0.0055,-0.0055,0.0,0.0,0.0,0.0,0.0,0.0,0.0,0.0,0.0,0.0,0.0,0.0,0.0,0.0,0.0,0.0,0.0,0.0,0.0,0.0,0.0,0.0,0.0,0.0,0.0,0.0,0.0,0.0,0.0,0.0,0.0,0.0,0.0,0.0,0.0,0.0,0.0,0.1009,0.2066,0.3123,0.4232,0.4784,0.4784,0.5837,0.6387,0.6387,0.6387,0.6387,0.6387,0.6387,0.6387,-0.9822,-0.9856,-0.9937,-1.0161,-1.0276,-1.0439,-1.0799,-1.0962,-1.1084,-1.128,-1.088,-1.0408,-0.9974,-0.8951,-0.7949,-0.7296,-0.6552,-0.5845,-0.5394,-0.5344,-0.5182,-0.4804,-0.4574,-0.4342,-0.4116,-0.401,-0.3868,-0.3727,-0.3838,-0.3841,-0.3698,-0.3443,-0.3232,-0.3123,-0.307,-0.2852,-0.2418,-0.2821,-0.2804,-0.2265,-0.235,-0.1558,0.0,0.0,-0.0429,-0.1065,-0.0318,-0.0839,-0.2225,-0.2247,-0.2296,-0.2357,-0.2279,-0.2267,-0.2269,-0.2232,-0.2323,-0.2377,-0.2402,-0.245,-0.2392,-0.1565,-0.1288,-0.1121,-0.028,0.0,0.0,0.0,0.0,0.0,0.0,0.0,0.0,0.0,0.0,0.0,0.0,0.0,0.0,0.0,0.0,0.0,0.0,0.0,0.0,0.0,0.0,0.0,0.0,0.0,0.0,0.0,0.0,0.0,0.0,0.0,0.0,0.0,0.0303,0.0958,0.2016,0.3123,0.4028,0.4784,0.5135,0.5636,0.6387,0.6387,0.6387,0.6387,0.6387,0.6387,-0.9822,-0.9863,-0.9958,-1.0141,-1.0324,-1.0541,-1.0806,-1.1056,-1.1206,-1.1362,-1.0962,-1.0602,-1.0663,-0.9806,-0.903,-0.8884,-0.8196,-0.7623,-0.7258,-0.7194,-0.7093,-0.6717,-0.6446,-0.6198,-0.6064,-0.5746,-0.5526,-0.5459,-0.5339,-0.5272,-0.5174,-0.4729,-0.446,-0.4357,-0.4346,-0.3993,-0.3382,-0.3938,-0.3905,-0.3186,-0.3299,-0.2575,-0.1285,-0.1271,-0.1627,-0.2186,-0.1545,-0.1999,-0.3224,-0.3189,-0.3243,-0.3324,-0.3237,-0.3224,-0.3176,-0.32,-0.3254,-0.3315,-0.3337,-0.3407,-0.3379,-0.2658,-0.2436,-0.2329,-0.162,-0.1384,-0.1259,-0.083,-0.072,-0.0608,-0.0111,0.0,0.0,0.0,0.0,0.0,0.0,0.0,0.0,0.0,0.0,0.0,0.0,0.0,0.0,0.0,0.0,0.0,0.0,0.0,0.0,0.0,0.0,0.0,0.0,0.0,0.0,0.0,0.0,0.0303,0.0958,0.2016,0.2871,0.3525,0.3927,0.468,0.5787,0.5787,0.5987,0.6387,0.6387,0.6387,-0.9822,-0.9869,-0.999,-1.0004,-1.0405,-1.0778,-1.0847,-1.105,-1.1185,-1.1321,-1.1023,-1.0778,-1.084,-1.0582,-1.029,-1.0263,-1.0141,-0.9936,-0.9842,-0.9808,-0.968,-0.9377,-0.9187,-0.9029,-0.8908,-0.8349,-0.8078,-0.8177,-0.7802,-0.7508,-0.7486,-0.6341,-0.5654,-0.5646,-0.5558,-0.4915,-0.3691,-0.4813,-0.4718,-0.3484,-0.3483,-0.351,-0.346,-0.3305,-0.3224,-0.3224,-0.3425,-0.3428,-0.3383,-0.3478,-0.3478,-0.3534,-0.3478,-0.3475,-0.3481,-0.3488,-0.3514,-0.3529,-0.3528,-0.3591,-0.3697,-0.3588,-0.3539,-0.3553,-0.3548,-0.3474,-0.3216,-0.2232,-0.1926,-0.1667,-0.0604,-0.0332,-0.028,-0.0168,-0.0056,0.0,0.0,0.0,0.0,0.0,0.0,0.0,0.0,0.0,0.0,0.0,0.0,0.0,0.0,0.0,0.0,0.0,0.0,0.0,0.0,0.0,0.0,0.0,0.0,0.0,0.0,0.0958,0.1513,0.1613,0.2569,0.3575,0.4634,0.4634,0.5186,0.6237,0.6237,0.6287,-0.9822,-0.9869,-1.0017,-1.0202,-1.0568,-1.084,-1.0873,-1.09,-1.1002,-1.0968,-1.09,-1.0806,-1.0785,-1.0595,-1.0371,-1.0134,-1.0011,-0.9936,-0.9842,-0.9727,-0.9593,-0.9533,-0.917,-0.8871,-0.873,-0.8485,-0.8262,-0.8076,-0.7945,-0.7783,-0.7584,-0.7097,-0.676,-0.6673,-0.6565,-0.6288,-0.5912,-0.629,-0.6177,-0.5698,-0.5843,-0.5829,-0.5665,-0.395,-0.3187,-0.3274,-0.4981,-0.5271,-0.4673,-0.5413,-0.5785,-0.5853,-0.5766,-0.5732,-0.5737,-0.5706,-0.5773,-0.5845,-0.5869,-0.5946,-0.5931,-0.4965,-0.4744,-0.4626,-0.3608,-0.3407,-0.348,-0.3002,-0.3,-0.3014,-0.2721,-0.268,-0.2476,-0.1619,-0.0672,0.0,0.0,0.0,0.0,0.0,0.0,0.0,0.0,0.0,0.0,0.0,0.0,0.0,0.0,0.0,0.0,0.0,0.0,0.0,0.0,0.0,0.0,0.0,0.0,0.0,0.0,0.0202,0.0757,0.1562,0.1814,0.2469,0.3525,0.3525,0.4078,0.5135,0.5135,0.5586,-0.9822,-0.9985,0.0,-1.0527,0.0,-1.0793,-1.086,-1.0826,-1.0772,-1.0772,-1.0772,-1.0792,-1.0636,-1.0548,-1.0392,-1.0038,-0.9984,-0.9936,-0.9842,-0.9754,-0.9686,-0.9618,-0.93,-0.9116,-0.9043,-0.8692,-0.8395,-0.8314,-0.8096,-0.7762,-0.7517,-0.7291,-0.7121,-0.6899,-0.6834,-0.6741,-0.6622,-0.6681,-0.6622,-0.6387,-0.6452,-0.6446,-0.6387,-0.5231,-0.473,-0.478,-0.5932,-0.6118,-0.5708,-0.6208,-0.6425,-0.6473,-0.6414,-0.6387,-0.6387,-0.6387,-0.6425,-0.6478,-0.6478,-0.6611,-0.661,-0.5979,-0.5803,-0.5744,-0.5096,-0.5022,-0.4996,-0.4365,-0.4219,-0.4149,-0.3642,-0.3433,-0.3285,-0.2787,-0.1735,-0.0728,-0.0112,0.0,0.0,0.0,0.0,0.0,0.0,0.0,0.0,0.0,0.0,0.0,0.0,0.0,0.0,0.0,0.0,0.0,0.0,0.0,0.0,0.0,0.0,0.0,0.0,0.0,0.0252,0.0807,0.0858,0.1361,0.2418,0.2418,0.2972,0.4028,0.4028,0.4329,-0.9822,-1.0046,-1.0378,-1.0772,-1.0725,0.0,-1.0813,-1.0812,-1.0717,-1.0717,-1.0717,-1.0663,-1.0487,-1.0453,-1.0358,-0.9997,-0.995,-0.9896,-0.9802,-0.9761,-0.9693,-0.9551,-0.9395,-0.9306,-0.9306,-0.8851,-0.8592,-0.8715,-0.8225,-0.781,-0.7576,-0.7346,-0.7106,-0.6826,-0.6752,-0.6687,-0.6589,-0.6589,-0.6484,-0.6387,-0.6387,-0.6387,-0.6387,-0.6387,-0.6387,-0.6387,-0.6387,-0.6387,-0.6387,-0.6387,-0.6387,-0.6387,-0.6387,-0.6387,-0.6387,-0.6387,-0.6387,-0.6387,-0.6387,-0.6452,-0.6589,-0.6589,-0.66,-0.6632,-0.6714,-0.6785,-0.6664,-0.5721,-0.5461,-0.5264,-0.4395,-0.407,-0.3977,-0.3883,-0.3126,-0.2014,-0.0614,-0.0167,0.0,0.0,0.0,0.0,0.0,0.0,0.0,0.0,0.0,0.0,0.0,0.0,0.0,0.0,0.0,0.0,0.0,0.0,0.0,0.0,0.0,0.0,0.0,0.0,0.0,0.0,0.0,0.0454,0.1312,0.1312,0.1865,0.2922,0.2922,0.3022,-0.9822,0.0,-1.0324,0.0,-1.0636,-1.0724,0.0,0.0,-1.0717,-1.0717,-1.0717,-1.0636,-1.0358,-1.031,-1.0209,-0.9903,-0.9849,-0.9802,-0.9659,-0.9523,-0.9381,-0.9289,-0.9089,-0.8939,-0.8939,-0.8905,-0.8836,-0.8856,-0.8595,-0.8352,-0.8183,-0.7558,-0.7119,-0.6964,-0.6642,-0.6425,-0.6408,-0.6408,-0.6403,-0.6387,-0.6387,-0.6387,-0.6387,-0.6387,-0.6387,-0.6387,-0.6387,-0.6387,-0.6387,-0.6387,-0.6387,-0.6387,-0.6387,-0.6387,-0.6387,-0.6387,-0.6387,-0.6387,-0.6387,-0.6398,-0.6408,-0.6408,-0.6478,-0.66,-0.6462,-0.6709,-0.6915,-0.6495,-0.6521,-0.6558,-0.6399,-0.6346,-0.6105,-0.5176,-0.4926,-0.429,-0.2032,-0.0713,0.0,0.0,0.0,0.0,0.0,0.0,0.0,0.0,0.0,0.0,0.0,0.0,0.0,0.0,0.0,0.0,0.0,0.0,0.0,0.0,0.0,0.0,0.0,0.0,0.0,0.0,0.0,0.005,0.0202,0.0202,0.0757,0.1814,0.1814,0.2318,-0.9862,-1.0046,-1.0209,0.0,-1.0541,-1.0616,-1.0704,-1.0717,-1.0717,-1.0717,-1.0717,-1.0629,-1.0337,-1.0209,-1.008,-0.9856,-0.9822,-0.9774,-0.9632,-0.9551,-0.9422,-0.9234,-0.9096,-0.9028,-0.8892,-0.8885,-0.8885,-0.8885,-0.8669,-0.8387,-0.8222,-0.769,-0.7343,-0.7131,-0.6821,-0.6642,-0.6642,-0.6487,-0.6387,-0.6387,-0.6387,-0.6387,-0.6387,-0.6387,-0.6387,-0.6387,-0.6387,-0.6387,-0.6387,-0.6387,-0.6387,-0.6387,-0.6387,-0.6387,-0.6387,-0.6387,-0.6387,-0.6387,-0.6387,-0.6387,-0.6387,-0.6387,-0.6425,-0.6457,-0.6403,-0.6594,-0.6774,-0.6736,-0.6709,-0.673,-0.6866,-0.6801,-0.6574,-0.6206,-0.562,-0.4866,-0.3825,-0.2206,-0.0817,-0.0108,0.0,0.0,0.0,0.0,0.0,0.0,0.0,0.0,0.0,0.0,0.0,0.0,0.0,0.0,0.0,0.0,0.0,0.0,0.0,0.0,0.0,0.0,0.0,0.0,0.0,0.0,0.0,0.0,0.0252,0.0706,0.0706,0.0958,0.0,0.0,-1.0038,-1.0324,-1.0405,-1.048,0.0,0.0,-1.067,-1.0711,-1.069,-1.0595,-1.0378,-1.0209,-1.0046,-0.9849,-0.9822,-0.9754,-0.9578,-0.9551,-0.9442,-0.9137,-0.9096,-0.9055,-0.8892,-0.8885,-0.8885,-0.8885,-0.8689,-0.8474,-0.8223,-0.7884,-0.7578,-0.7291,-0.7042,-0.6892,-0.6792,-0.6537,-0.6387,-0.6387,-0.6387,-0.6387,-0.6387,-0.6387,-0.6387,-0.6387,-0.6387,-0.6387,-0.6387,-0.6387,-0.6387,-0.6387,-0.6387,-0.6387,-0.6387,-0.6387,-0.6403,-0.643,-0.643,-0.6452,-0.6478,-0.6478,-0.6457,-0.643,-0.643,-0.6567,-0.6687,-0.6779,-0.6736,-0.6709,-0.6893,-0.6779,-0.6643,-0.6736,-0.609,-0.5286,-0.4671,-0.3065,-0.1502,-0.058,-0.0211,0.0,0.0,0.0,0.0,0.0,0.0,0.0,0.0,0.0,0.0,0.0,0.0,0.0,0.0,0.0,0.0,0.0,0.0,0.0,0.0,0.0,0.0,0.0,0.0,0.0,0.0,0.0,0.0,0.0,0.0,0.0,0.0,-0.9876,0.0,-1.0004,-1.0181,-1.0331,0.0,0.0,-1.0548,-1.069,-1.0602,-1.05,-1.048,-1.0365,-1.0168,-0.9869,-0.9822,-0.972,-0.9435,-0.9395,-0.9279,-0.8932,-0.8892,-0.8892,-0.8885,-0.8885,-0.8885,-0.8885,-0.8791,-0.8635,-0.8492,-0.8078,-0.7782,-0.7596,-0.7341,-0.7042,-0.6792,-0.6537,-0.6387,-0.6387,-0.6387,-0.6387,-0.6387,-0.6387,-0.6387,-0.6387,-0.6387,-0.6387,-0.6387,-0.6387,-0.6387,-0.6387,-0.6387,-0.6387,-0.6387,-0.6387,-0.6457,-0.6611,-0.6611,-0.6687,-0.6785,-0.6785,-0.6703,-0.6611,-0.6611,-0.6698,-0.6796,-0.6801,-0.6796,-0.6796,-0.6806,-0.6714,-0.6622,-0.6627,-0.6667,-0.608,-0.3794,-0.2386,-0.1602,-0.1522,-0.0719,0.0,0.0,0.0,0.0,0.0,0.0,0.0,0.0,0.0,0.0,0.0,0.0,0.0,0.0,0.0,0.0,0.0,0.0,0.0,0.0,0.0,0.0,0.0,0.0,0.0,0.0,0.0,0.0,0.0,0.0,0.0,0.0,0.0,0.0,-0.9963,-1.0031,-1.0175,-1.0324,-1.0358,-1.0399,-1.0541,-1.0527,-1.0466,-1.0371,-1.0236,-1.0093,-0.9923,-0.9883,-0.9754,-0.9557,-0.953,-0.9415,-0.911,-0.9076,-0.9042,-0.8892,-0.8885,-0.8844,-0.8798,-0.8648,-0.8499,-0.835,-0.8099,-0.7942,-0.7846,-0.759,-0.7241,-0.6792,-0.6692,-0.6587,-0.6387,-0.6387,-0.6387,-0.6387,-0.6387,-0.6387,-0.6387,-0.6387,-0.6387,-0.6387,-0.6387,-0.6387,-0.6387,-0.6387,-0.6435,-0.6551,-0.6551,-0.6632,-0.6736,-0.6736,-0.6763,-0.6801,-0.6801,-0.6774,-0.6736,-0.6736,-0.6768,-0.6801,-0.6801,-0.6747,-0.6687,-0.6687,-0.6594,-0.6473,-0.66,-0.6654,-0.6432,-0.5679,-0.4684,-0.3445,-0.1876,-0.1383,-0.0928,-0.0152,0.0,0.0,0.0,0.0,0.0,0.0,0.0,0.0,0.0,0.0,0.0,0.0,0.0,0.0,0.0,0.0,0.0,0.0,0.0,0.0,0.0,0.0,0.0,0.0,0.0,0.0,0.0,0.0,0.0,-0.9822,0.0,0.0,0.0,-0.995,-1.0025,-1.0236,-1.0243,-1.0243,-1.0392,-1.0419,-1.0392,-1.0297,-1.0154,-0.997,-0.9916,-0.9869,-0.9829,-0.9639,-0.9612,-0.9517,-0.9316,-0.9289,-0.9171,-0.9022,-0.9008,-0.8947,-0.8798,-0.8648,-0.8492,-0.835,-0.8201,-0.8092,-0.7988,-0.7746,-0.7447,-0.7098,-0.6992,-0.6842,-0.6686,-0.6587,-0.6587,-0.6686,-0.6587,-0.6587,-0.6686,-0.6686,-0.6587,-0.6387,-0.6387,-0.6408,-0.6446,-0.6446,-0.6573,-0.6681,-0.6681,-0.6757,-0.6866,-0.6866,-0.6888,-0.6921,-0.6921,-0.6893,-0.6866,-0.6866,-0.6866,-0.6866,-0.6866,-0.6774,-0.6681,-0.6681,-0.6589,-0.6478,-0.6649,-0.6714,-0.6752,-0.6796,-0.5951,-0.4748,-0.3143,-0.2592,-0.2134,-0.1338,-0.0874,-0.0617,-0.0617,-0.0257,0.0,0.0,0.0,0.0,0.0,0.0,0.0,0.0,0.0,0.0,0.0,0.0,0.0,0.0,0.0,0.0,0.0,0.0,0.0,0.0,0.0,0.0,0.0,0.0,0.0,0.0,0.0,0.0,-0.9943,-0.9869,-0.9897,-1.0202,-1.0148,-1.0024,-1.0243,-1.0276,-1.0276,-1.0276,-1.0154,-0.9943,-0.9849,-0.9883,-0.9883,-0.9652,-0.9618,-0.9557,-0.9408,-0.9388,-0.9327,-0.9228,-0.9214,-0.9096,-0.8892,-0.8804,-0.8648,-0.8492,-0.835,-0.8201,-0.7995,-0.7746,-0.7596,-0.7596,-0.7341,-0.7185,-0.7185,-0.6942,-0.6942,-0.7185,-0.6942,-0.6942,-0.7185,-0.7185,-0.6886,-0.6442,-0.6442,-0.6513,-0.6622,-0.6622,-0.6698,-0.6806,-0.6806,-0.6883,-0.6991,-0.6991,-0.7117,-0.721,-0.721,-0.7133,-0.6991,-0.6991,-0.6991,-0.6991,-0.6986,-0.6899,-0.6806,-0.6801,-0.6714,-0.6654,-0.6779,-0.6899,-0.6953,-0.6839,-0.6013,-0.5263,-0.5206,-0.4355,-0.3666,-0.3613,-0.2602,-0.1861,-0.1808,-0.0799,-0.0053,0.0,0.0,0.0,0.0,0.0,0.0,0.0,0.0,0.0,0.0,0.0,0.0,0.0,0.0,0.0,0.0,0.0,0.0,0.0,0.0,0.0,0.0,0.0,0.0,-0.9822,0.0,0.0,0.0,0.0,0.0,-0.993,-0.9917,-0.993,-1.0017,-1.0051,-1.0051,-1.0051,-1.0168,-1.0127,-0.9863,-0.9856,-0.9856,-0.9774,-0.9761,-0.9707,-0.9564,-0.9544,-0.949,-0.9334,-0.932,-0.9211,-0.8905,-0.8844,-0.8757,-0.8499,-0.835,-0.8201,-0.7995,-0.7939,-0.7796,-0.7596,-0.7547,-0.7391,-0.7185,-0.7141,-0.7141,-0.7185,-0.7141,-0.7141,-0.7185,-0.7185,-0.7196,-0.7184,-0.693,-0.685,-0.689,-0.6772,-0.6828,-0.6937,-0.6937,-0.7008,-0.7161,-0.7161,-0.7182,-0.721,-0.721,-0.7188,-0.7161,-0.7161,-0.7161,-0.7144,-0.7008,-0.6959,-0.6915,-0.6823,-0.6779,-0.6785,-0.6904,-0.6959,-0.6997,-0.71,-0.6837,-0.6349,-0.539,-0.5046,-0.4636,-0.3725,-0.3348,-0.2815,-0.1912,-0.1542,-0.1009,-0.0106,0.0,0.0,0.0,0.0,0.0,0.0,0.0,0.0,0.0,0.0,0.0,0.0,0.0,0.0,0.0,0.0,0.0,0.0,0.0,0.0,0.0,0.0,0.0,-0.9822,-0.9822,-0.9836,-0.9903,0.0,0.0,-0.9903,-0.9869,-0.9842,-0.9876,-0.9896,-0.9896,-0.9896,-1.0025,-1.0032,-0.9849,-0.9822,-0.9822,-0.9822,-0.9822,-0.9788,-0.9707,-0.97,-0.9639,-0.949,-0.9476,-0.9381,-0.9144,-0.9062,-0.8893,-0.8594,-0.8438,-0.8289,-0.814,-0.8133,-0.8006,-0.7796,-0.7746,-0.769,-0.754,-0.7441,-0.7441,-0.754,-0.7441,-0.7472,-0.768,-0.768,-0.7757,-0.7891,-0.7642,-0.7457,-0.7358,-0.7275,-0.7325,-0.7385,-0.7276,-0.732,-0.7326,-0.7265,-0.721,-0.721,-0.721,-0.721,-0.721,-0.721,-0.721,-0.7193,-0.7128,-0.7024,-0.697,-0.6899,-0.6877,-0.691,-0.7029,-0.7056,-0.7128,-0.7193,-0.721,-0.6945,-0.6211,-0.6072,-0.5932,-0.5218,-0.4669,-0.4127,-0.342,-0.2878,-0.2276,-0.1616,-0.1076,-0.0749,-0.0736,-0.0315,0.0,0.0,0.0,0.0,0.0,0.0,0.0,0.0,0.0,0.0,0.0,0.0,0.0,0.0,0.0,0.0,0.0,0.0,0.0,-0.9822,-0.9822,-0.9856,-0.9992,-0.9924,0.0,-0.993,-0.9856,-0.9822,-0.9822,-0.9822,-0.9822,-0.9822,-0.9822,-0.9822,-0.9822,-0.9822,-0.9822,-0.9822,-0.9822,-0.9822,-0.9822,-0.9822,-0.9774,-0.9646,-0.9632,-0.9571,-0.9415,-0.9309,-0.9084,-0.875,-0.8587,-0.8438,-0.8347,-0.8347,-0.8228,-0.8042,-0.8022,-0.8015,-0.8015,-0.7753,-0.7796,-0.7988,-0.7759,-0.7888,-0.832,-0.834,-0.8377,-0.852,-0.8387,-0.817,-0.7954,-0.7912,-0.7938,-0.7992,-0.7715,-0.766,-0.7604,-0.7326,-0.7265,-0.7265,-0.721,-0.721,-0.721,-0.721,-0.721,-0.721,-0.721,-0.7139,-0.7002,-0.7002,-0.7002,-0.7029,-0.7188,-0.721,-0.721,-0.721,-0.721,-0.721,-0.721,-0.721,-0.721,-0.721,-0.632,-0.5536,-0.5425,-0.4474,-0.3728,-0.3616,-0.268,-0.2011,-0.1977,-0.0908,-0.0214,-0.0214,-0.0053,0.0,0.0,0.0,0.0,0.0,0.0,0.0,0.0,0.0,0.0,0.0,0.0,0.0,0.0,0.0,0.0,-0.9822,-0.9822,-0.9829,-0.9856,-0.9842,0.0,-0.9856,-0.9842,-0.9822,-0.9822,-0.9822,-0.9822,-0.9822,-0.9822,-0.9822,-0.9822,-0.9822,-0.9822,-0.9822,-0.9822,-0.9822,-0.9822,-0.9822,-0.9808,-0.9781,-0.9781,-0.972,-0.9578,-0.9306,-0.9076,-0.8851,-0.875,-0.8594,-0.8445,-0.8438,-0.8425,-0.8397,-0.8282,-0.8228,-0.8221,-0.7999,-0.7939,-0.7995,-0.8116,-0.819,-0.8327,-0.8391,-0.8526,-0.8669,-0.8642,-0.844,-0.8183,-0.8017,-0.7968,-0.7986,-0.7937,-0.7937,-0.7881,-0.7604,-0.7549,-0.7493,-0.7265,-0.721,-0.721,-0.721,-0.721,-0.721,-0.721,-0.7193,-0.7177,-0.7177,-0.7177,-0.7182,-0.7204,-0.721,-0.721,-0.721,-0.721,-0.721,-0.721,-0.721,-0.721,-0.721,-0.6988,-0.6543,-0.5536,-0.5202,-0.4693,-0.3731,-0.3395,-0.3263,-0.3262,-0.2172,-0.1467,-0.1467,-0.0542,0.0,0.0,0.0,0.0,0.0,0.0,0.0,0.0,0.0,0.0,0.0,0.0,0.0,0.0,0.0,0.0,-0.9822,-0.9876,-0.9856,-0.9842,-0.9876,0.0,0.0,-0.9822,-0.9822,-0.9822,-0.9822,-0.9822,-0.9822,-0.9822,-0.9822,-0.9822,-0.9822,-0.9822,-0.9822,-0.9822,-0.9822,-0.9822,-0.9822,-0.9822,-0.9822,-0.9822,-0.9761,-0.9618,-0.9469,-0.9313,-0.9164,-0.9015,-0.8866,-0.8716,-0.8635,-0.856,-0.8479,-0.8411,-0.8377,-0.8377,-0.8296,-0.8262,-0.8262,-0.8343,-0.8418,-0.8492,-0.8567,-0.8682,-0.8825,-0.8825,-0.8716,-0.8613,-0.8465,-0.8436,-0.8436,-0.8318,-0.8263,-0.8208,-0.7881,-0.7715,-0.7549,-0.7438,-0.7321,-0.721,-0.721,-0.721,-0.721,-0.721,-0.721,-0.721,-0.721,-0.721,-0.721,-0.721,-0.7198,-0.7247,-0.7247,-0.729,-0.7317,-0.7258,-0.7247,-0.7225,-0.7221,-0.721,-0.6988,-0.6376,-0.632,-0.6093,-0.5477,-0.4864,-0.4516,-0.4478,-0.3424,-0.2707,-0.2707,-0.1591,-0.0875,-0.0874,-0.0328,0.0,0.0,0.0,0.0,0.0,0.0,0.0,0.0,0.0,0.0,0.0,0.0,0.0,-0.9863,-0.9916,-1.0004,-0.9944,-0.9978,-0.9957,0.0,0.0,0.0,-0.9822,-0.9822,0.0,0.0,0.0,0.0,-0.9822,0.0,0.0,0.0,-0.9822,0.0,-0.9822,-0.9822,-0.9822,-0.9822,-0.9822,-0.9774,-0.9659,-0.9625,-0.9557,-0.9435,-0.9337,-0.9144,-0.9028,-0.8879,-0.8737,-0.8615,-0.8554,-0.8526,-0.8526,-0.8499,-0.8479,-0.8486,-0.8513,-0.8594,-0.871,-0.8743,-0.8825,-0.8885,-0.8885,-0.8885,-0.8885,-0.8885,-0.8885,-0.8885,-0.8657,-0.8595,-0.854,-0.8208,-0.7937,-0.7771,-0.7715,-0.7493,-0.7265,-0.721,-0.721,-0.721,-0.721,-0.721,-0.721,-0.721,-0.721,-0.721,-0.721,-0.7247,-0.7277,-0.7277,-0.7432,-0.7491,-0.7331,-0.7293,-0.7296,-0.7232,-0.721,-0.721,-0.721,-0.721,-0.721,-0.721,-0.6371,-0.5759,-0.5759,-0.4641,-0.3971,-0.3971,-0.2817,-0.2125,-0.2149,-0.1253,-0.0705,-0.0682,-0.0485,-0.0329,-0.033,-0.011,0.0,0.0,0.0,0.0,0.0,0.0,0.0,-0.9963,-1.0134,-1.0249,-1.0236,-1.0141,-0.9984,-0.9963,0.0,-0.9822,-0.9822,0.0,-0.9822,-0.9822,0.0,0.0,-0.9822,-0.9822,0.0,-0.9822,-0.9822,-0.9822,-0.9822,-0.9822,-0.9822,-0.9822,-0.9822,-0.9815,-0.9795,-0.968,-0.9605,-0.9585,-0.9442,-0.9347,-0.9334,-0.9241,-0.9152,-0.9132,-0.8818,-0.8682,-0.8682,-0.8547,-0.8479,-0.8486,-0.8621,-0.8696,-0.8716,-0.8797,-0.8865,-0.8885,-0.8885,-0.8885,-0.8885,-0.8885,-0.8885,-0.8885,-0.8885,-0.8885,-0.8823,-0.854,-0.8429,-0.8374,-0.8042,-0.7771,-0.7493,-0.7265,-0.721,-0.721,-0.721,-0.721,-0.721,-0.721,-0.721,-0.721,-0.721,-0.7247,-0.7277,-0.7277,-0.7432,-0.7513,-0.7502,-0.7352,-0.7296,-0.7232,-0.721,-0.721,-0.721,-0.721,-0.721,-0.721,-0.7099,-0.6988,-0.6988,-0.5926,-0.5202,-0.5202,-0.4077,-0.34,-0.3392,-0.3289,-0.3208,-0.3201,-0.2178,-0.1595,-0.1619,-0.0559,0.0,0.0,0.0,0.0,0.0,0.0,0.0,-1.0011,-1.0222,-1.0385,-1.0304,-1.0297,-1.0283,-1.0202,-1.0066,-0.9889,-0.9889,0.0,0.0,0.0,0.0,0.0,0.0,-0.9822,-0.9822,0.0,0.0,-0.9822,-0.9822,0.0,0.0,-0.9822,-0.9822,-0.9822,-0.9822,-0.9768,-0.9734,-0.9734,-0.9591,-0.951,-0.951,-0.9367,-0.9303,-0.9207,-0.9084,-0.8927,-0.8845,-0.8777,-0.875,-0.875,-0.8811,-0.8845,-0.8845,-0.8858,-0.8885,-0.8885,-0.8885,-0.8885,-0.8885,-0.8885,-0.8885,-0.8885,-0.8885,-0.8885,-0.8885,-0.8768,-0.8657,-0.8429,-0.8097,-0.7937,-0.7826,-0.7709,-0.7549,-0.7438,-0.7438,-0.7321,-0.721,-0.721,-0.721,-0.7226,-0.7241,-0.7355,-0.7459,-0.7535,-0.7638,-0.7703,-0.7638,-0.7524,-0.7404,-0.7279,-0.7198,-0.721,-0.721,-0.721,-0.721,-0.721,-0.721,-0.721,-0.721,-0.6765,-0.6427,-0.6427,-0.5314,-0.4623,-0.4632,-0.3969,-0.3586,-0.3598,-0.31,-0.2832,-0.2854,-0.1679,-0.1065,-0.1065,-0.0336,0.0,0.0,0.0,0.0,-1.0202,-1.0358,-1.0527,-1.0426,-1.0446,-1.0466,-1.0365,-1.0222,-1.0051,-1.0051,-0.9992,0.0,0.0,0.0,-0.9822,-0.9822,0.0,-0.9822,-0.9822,-0.9822,0.0,-0.9822,-0.9822,0.0,0.0,-0.9822,-0.9822,-0.9822,-0.9822,-0.9822,-0.9822,-0.9727,-0.9666,-0.9666,-0.9523,-0.9388,-0.9337,-0.9255,-0.9103,-0.8994,-0.8905,-0.8885,-0.8885,-0.8885,-0.8885,-0.8885,-0.8885,-0.8885,-0.8885,-0.8885,-0.8885,-0.8885,-0.8885,-0.8885,-0.8885,-0.8885,-0.8885,-0.8885,-0.8885,-0.8768,-0.8546,-0.8263,-0.8152,-0.8097,-0.8042,-0.7881,-0.7721,-0.7644,-0.746,-0.7282,-0.7292,-0.7259,-0.7248,-0.735,-0.7453,-0.7551,-0.7676,-0.779,-0.7845,-0.7763,-0.7649,-0.7529,-0.7352,-0.7285,-0.7203,-0.7203,-0.7203,-0.7203,-0.7203,-0.7232,-0.721,-0.721,-0.721,-0.721,-0.721,-0.6376,-0.5899,-0.5877,-0.5049,-0.4591,-0.4613,-0.4279,-0.4111,-0.4111,-0.293,-0.2305,-0.2295,-0.1065,-0.0504,-0.0504,-0.0168,0.0,-1.048,-1.0595,-1.0711,-1.0711,-1.0595,-1.0487,-1.0487,-1.0378,-1.0276,-1.0276,-1.0148,-0.9977,-0.9977,-0.9862,-0.9822,-0.9822,-0.9822,0.0,0.0,-0.9822,-0.9822,-0.9822,-0.9822,0.0,0.0,-0.9822,-0.9822,0.0,-0.9822,-0.9822,-0.9822,-0.9815,-0.9815,-0.9815,-0.968,-0.9598,-0.9598,-0.9357,-0.9207,-0.92,-0.9008,-0.8885,-0.8885,-0.8885,-0.8885,-0.8885,-0.8885,-0.8885,-0.8885,-0.8885,-0.8885,-0.8885,-0.8885,-0.8885,-0.8885,-0.8885,-0.8885,-0.8885,-0.8885,-0.8885,-0.883,-0.8595,-0.8484,-0.8429,-0.8097,-0.7986,-0.7961,-0.7805,-0.7696,-0.755,-0.7506,-0.7328,-0.727,-0.7453,-0.7513,-0.7551,-0.7676,-0.779,-0.7872,-0.7867,-0.7774,-0.7655,-0.7535,-0.741,-0.7271,-0.7271,-0.7271,-0.7271,-0.7271,-0.7225,-0.721,-0.721,-0.721,-0.721,-0.721,-0.7154,-0.7154,-0.7149,-0.7093,-0.7091,-0.7152,-0.6066,-0.5435,-0.5435,-0.4297,-0.3697,-0.3525,-0.2351,-0.1735,-0.1735,-0.056,0.0,-1.0493,-1.0602,-1.0717,-1.0717,-1.0683,-1.0643,-1.0643,-1.0527,-1.0419,-1.0419,-1.0304,-1.0168,-1.0004,-0.9943,-0.9876,-0.9836,-0.9822,-0.9822,0.0,-0.9822,-0.9822,-0.9822,-0.9822,-0.9822,0.0,0.0,0.0,-0.9822,-0.9822,-0.9822,-0.9822,-0.9822,-0.9822,-0.9822,-0.9774,-0.9707,-0.9612,-0.9408,-0.9309,-0.9207,-0.9008,-0.8885,-0.8885,-0.8885,-0.8885,-0.8885,-0.8885,-0.8885,-0.8885,-0.8885,-0.8885,-0.8885,-0.8885,-0.8885,-0.8885,-0.8885,-0.8885,-0.8885,-0.8885,-0.8885,-0.8885,-0.8768,-0.8834,-0.8963,-0.8851,-0.8626,-0.8489,-0.8513,-0.8219,-0.7862,-0.7755,-0.7675,-0.7596,-0.7539,-0.7578,-0.7671,-0.779,-0.7845,-0.7872,-0.7872,-0.778,-0.7687,-0.7649,-0.7606,-0.7524,-0.7304,-0.7277,-0.7277,-0.7277,-0.723,-0.721,-0.721,-0.721,-0.721,-0.721,-0.721,-0.7243,-0.7269,-0.7198,-0.7247,-0.7448,-0.6976,-0.6737,-0.6812,-0.559,-0.4914,-0.4828,-0.36,-0.2574,-0.1791,-0.14,-0.0784,-1.0493,-1.0602,-1.0717,-1.0717,-1.0717,-1.0717,-1.0717,-1.0643,-1.0575,-1.0575,-1.046,-1.031,-1.0161,-1.0024,-0.9936,-0.9842,-0.9822,-0.9822,0.0,-0.9822,-0.9822,-0.9822,-0.9822,-0.9822,0.0,0.0,-0.9822,-0.9822,-0.9822,-0.9822,-0.9822,-0.9822,-0.9822,-0.9822,-0.9822,-0.9774,-0.9686,-0.9537,-0.9415,-0.9313,-0.911,-0.9015,-0.9015,-0.8905,-0.8885,-0.8885,-0.8885,-0.8885,-0.8885,-0.8885,-0.8967,-0.9008,-0.8905,-0.8967,-0.9008,-0.8905,-0.8885,-0.8892,-0.8994,-0.8981,-0.8885,-0.8885,-0.9001,-0.9089,-0.9193,-0.9037,-0.89,-0.8878,-0.8616,-0.8276,-0.8008,-0.7887,-0.7841,-0.7665,-0.7671,-0.7731,-0.7845,-0.7872,-0.7872,-0.7872,-0.7812,-0.7747,-0.7709,-0.7736,-0.7693,-0.7497,-0.7464,-0.7464,-0.7464,-0.7323,-0.722,-0.722,-0.7237,-0.721,-0.721,-0.7248,-0.7252,-0.7271,-0.7263,-0.7328,-0.7573,-0.7464,-0.7475,-0.7644,-0.672,-0.6182,-0.6182,-0.4863,-0.386,-0.3078,-0.2183,-0.14]}]]